<?xml version="1.0" encoding="UTF-8" standalone="no" ?>
<gpx xmlns="http://www.topografix.com/GPX/1/1" xmlns:xsi="http://www.w3.org/2001/XMLSchema-instance" xsi:schemaLocation="http://www.topografix.com/GPX/1/1 http://www.topografix.com/GPX/1/1/gpx.xsd" version="1.1" creator="VisuGPX - https://www.visugpx.com">
  <metadata>
    <name>grande_boucle_montrésor</name>
    <desc><![CDATA[MONTRESOR GENILLE CERE LA RONDE GENILLE]]></desc>
  </metadata>
  <wpt lat="47.18557" lon="1.11027">
    <ele>87.1</ele>
    <name><![CDATA[barres d'attaches chevaux]]></name>
    <type><![CDATA[user]]></type>
  </wpt>
  <wpt lat="47.15718" lon="1.20272">
    <ele>111.5</ele>
    <name><![CDATA[route groudronnée très en pente]]></name>
    <type><![CDATA[user]]></type>
  </wpt>
  <trk>
    <name><![CDATA[8086810-Boucle équestre Montrésor 001]]></name>
    <trkseg>
      <trkpt lat="47.16" lon="1.16243">
        <ele>95</ele>
        <time>2017-12-22T15:46:52Z</time>
      </trkpt>
      <trkpt lat="47.15928" lon="1.16161">
        <ele>95</ele>
        <time>2017-12-22T15:47:52Z</time>
      </trkpt>
      <trkpt lat="47.15855" lon="1.16093">
        <ele>94</ele>
        <time>2017-12-22T15:48:52Z</time>
      </trkpt>
      <trkpt lat="47.15788" lon="1.16039">
        <ele>94</ele>
        <time>2017-12-22T15:49:52Z</time>
      </trkpt>
      <trkpt lat="47.15718" lon="1.15955">
        <ele>96</ele>
        <time>2017-12-22T15:50:52Z</time>
      </trkpt>
      <trkpt lat="47.15634" lon="1.15872">
        <ele>99</ele>
        <time>2017-12-22T15:51:52Z</time>
      </trkpt>
      <trkpt lat="47.15594" lon="1.15818">
        <ele>100</ele>
        <time>2017-12-22T15:52:52Z</time>
      </trkpt>
      <trkpt lat="47.156" lon="1.15715">
        <ele>96</ele>
        <time>2017-12-22T15:53:52Z</time>
      </trkpt>
      <trkpt lat="47.15606" lon="1.15576">
        <ele>93</ele>
        <time>2017-12-22T15:54:52Z</time>
      </trkpt>
      <trkpt lat="47.15596" lon="1.15449">
        <ele>95</ele>
        <time>2017-12-22T15:55:52Z</time>
      </trkpt>
      <trkpt lat="47.156" lon="1.15391">
        <ele>97</ele>
        <time>2017-12-22T15:56:52Z</time>
      </trkpt>
      <trkpt lat="47.15596" lon="1.15275">
        <ele>99</ele>
        <time>2017-12-22T15:57:52Z</time>
      </trkpt>
      <trkpt lat="47.15594" lon="1.15179">
        <ele>102</ele>
        <time>2017-12-22T15:58:52Z</time>
      </trkpt>
      <trkpt lat="47.15607" lon="1.15082">
        <ele>98</ele>
        <time>2017-12-22T15:59:52Z</time>
      </trkpt>
      <trkpt lat="47.15625" lon="1.1502">
        <ele>95</ele>
        <time>2017-12-22T16:00:52Z</time>
      </trkpt>
      <trkpt lat="47.15648" lon="1.14932">
        <ele>101</ele>
        <time>2017-12-22T16:01:52Z</time>
      </trkpt>
      <trkpt lat="47.15677" lon="1.14868">
        <ele>105</ele>
        <time>2017-12-22T16:02:52Z</time>
      </trkpt>
      <trkpt lat="47.15736" lon="1.14807">
        <ele>98</ele>
        <time>2017-12-22T16:03:52Z</time>
      </trkpt>
      <trkpt lat="47.15787" lon="1.14756">
        <ele>99</ele>
        <time>2017-12-22T16:04:52Z</time>
      </trkpt>
      <trkpt lat="47.1582" lon="1.1473">
        <ele>99</ele>
        <time>2017-12-22T16:05:52Z</time>
      </trkpt>
      <trkpt lat="47.15782" lon="1.14713">
        <ele>104</ele>
        <time>2017-12-22T16:06:52Z</time>
      </trkpt>
      <trkpt lat="47.15733" lon="1.14724">
        <ele>108</ele>
        <time>2017-12-22T16:07:52Z</time>
      </trkpt>
      <trkpt lat="47.15711" lon="1.14737">
        <ele>109</ele>
        <time>2017-12-22T16:08:52Z</time>
      </trkpt>
      <trkpt lat="47.1565" lon="1.14743">
        <ele>115</ele>
        <time>2017-12-22T16:09:52Z</time>
      </trkpt>
      <trkpt lat="47.15577" lon="1.14741">
        <ele>120</ele>
        <time>2017-12-22T16:10:52Z</time>
      </trkpt>
      <trkpt lat="47.15498" lon="1.14726">
        <ele>121</ele>
        <time>2017-12-22T16:11:52Z</time>
      </trkpt>
      <trkpt lat="47.15457" lon="1.14709">
        <ele>123</ele>
        <time>2017-12-22T16:12:52Z</time>
      </trkpt>
      <trkpt lat="47.15405" lon="1.14728">
        <ele>124</ele>
        <time>2017-12-22T16:13:52Z</time>
      </trkpt>
      <trkpt lat="47.15355" lon="1.14743">
        <ele>124</ele>
        <time>2017-12-22T16:14:52Z</time>
      </trkpt>
      <trkpt lat="47.1532" lon="1.14756">
        <ele>124</ele>
        <time>2017-12-22T16:15:52Z</time>
      </trkpt>
      <trkpt lat="47.1527" lon="1.14837">
        <ele>124</ele>
        <time>2017-12-22T16:16:52Z</time>
      </trkpt>
      <trkpt lat="47.14974" lon="1.15303">
        <ele>121</ele>
        <time>2017-12-22T16:17:52Z</time>
      </trkpt>
      <trkpt lat="47.14929" lon="1.15252">
        <ele>119</ele>
        <time>2017-12-22T16:18:52Z</time>
      </trkpt>
      <trkpt lat="47.14879" lon="1.15164">
        <ele>116</ele>
        <time>2017-12-22T16:19:52Z</time>
      </trkpt>
      <trkpt lat="47.14814" lon="1.15058">
        <ele>116</ele>
        <time>2017-12-22T16:20:52Z</time>
      </trkpt>
      <trkpt lat="47.14786" lon="1.15005">
        <ele>119</ele>
        <time>2017-12-22T16:21:52Z</time>
      </trkpt>
      <trkpt lat="47.14767" lon="1.14938">
        <ele>118</ele>
        <time>2017-12-22T16:22:52Z</time>
      </trkpt>
      <trkpt lat="47.14757" lon="1.14868">
        <ele>116</ele>
        <time>2017-12-22T16:23:52Z</time>
      </trkpt>
      <trkpt lat="47.14751" lon="1.14777">
        <ele>111</ele>
        <time>2017-12-22T16:24:52Z</time>
      </trkpt>
      <trkpt lat="47.14743" lon="1.14715">
        <ele>108</ele>
        <time>2017-12-22T16:25:52Z</time>
      </trkpt>
      <trkpt lat="47.1473" lon="1.14677">
        <ele>104</ele>
        <time>2017-12-22T16:26:52Z</time>
      </trkpt>
      <trkpt lat="47.14698" lon="1.14638">
        <ele>100</ele>
        <time>2017-12-22T16:27:52Z</time>
      </trkpt>
      <trkpt lat="47.14631" lon="1.14526">
        <ele>98</ele>
        <time>2017-12-22T16:28:52Z</time>
      </trkpt>
      <trkpt lat="47.146" lon="1.14479">
        <ele>100</ele>
        <time>2017-12-22T16:29:52Z</time>
      </trkpt>
      <trkpt lat="47.14565" lon="1.14441">
        <ele>102</ele>
        <time>2017-12-22T16:30:52Z</time>
      </trkpt>
      <trkpt lat="47.14536" lon="1.14436">
        <ele>104</ele>
        <time>2017-12-22T16:31:52Z</time>
      </trkpt>
      <trkpt lat="47.14506" lon="1.14458">
        <ele>104</ele>
        <time>2017-12-22T16:32:52Z</time>
      </trkpt>
      <trkpt lat="47.14471" lon="1.14501">
        <ele>106</ele>
        <time>2017-12-22T16:33:52Z</time>
      </trkpt>
      <trkpt lat="47.14335" lon="1.14647">
        <ele>114</ele>
        <time>2017-12-22T16:34:52Z</time>
      </trkpt>
      <trkpt lat="47.13569" lon="1.13973">
        <ele>145</ele>
        <time>2017-12-22T16:35:52Z</time>
      </trkpt>
      <trkpt lat="47.13643" lon="1.13857">
        <ele>135</ele>
        <time>2017-12-22T16:36:52Z</time>
      </trkpt>
      <trkpt lat="47.1371" lon="1.1376">
        <ele>124</ele>
        <time>2017-12-22T16:37:52Z</time>
      </trkpt>
      <trkpt lat="47.13736" lon="1.13711">
        <ele>122</ele>
        <time>2017-12-22T16:38:52Z</time>
      </trkpt>
      <trkpt lat="47.13815" lon="1.13608">
        <ele>128</ele>
        <time>2017-12-22T16:39:52Z</time>
      </trkpt>
      <trkpt lat="47.14167" lon="1.13084">
        <ele>116</ele>
        <time>2017-12-22T16:40:52Z</time>
      </trkpt>
      <trkpt lat="47.14187" lon="1.13059">
        <ele>113</ele>
        <time>2017-12-22T16:41:52Z</time>
      </trkpt>
      <trkpt lat="47.14281" lon="1.12868">
        <ele>119</ele>
        <time>2017-12-22T16:42:52Z</time>
      </trkpt>
      <trkpt lat="47.14317" lon="1.12831">
        <ele>124</ele>
        <time>2017-12-22T16:43:52Z</time>
      </trkpt>
      <trkpt lat="47.14363" lon="1.12793">
        <ele>129</ele>
        <time>2017-12-22T16:44:52Z</time>
      </trkpt>
      <trkpt lat="47.14383" lon="1.12767">
        <ele>132</ele>
        <time>2017-12-22T16:45:52Z</time>
      </trkpt>
      <trkpt lat="47.14428" lon="1.12765">
        <ele>133</ele>
        <time>2017-12-22T16:46:52Z</time>
      </trkpt>
      <trkpt lat="47.14482" lon="1.12793">
        <ele>132</ele>
        <time>2017-12-22T16:47:52Z</time>
      </trkpt>
      <trkpt lat="47.14781" lon="1.12207">
        <ele>133</ele>
        <time>2017-12-22T16:48:52Z</time>
      </trkpt>
      <trkpt lat="47.14717" lon="1.12166">
        <ele>138</ele>
        <time>2017-12-22T16:49:52Z</time>
      </trkpt>
      <trkpt lat="47.14646" lon="1.12097">
        <ele>143</ele>
        <time>2017-12-22T16:50:52Z</time>
      </trkpt>
      <trkpt lat="47.14684" lon="1.11857">
        <ele>134</ele>
        <time>2017-12-22T16:51:52Z</time>
      </trkpt>
      <trkpt lat="47.14694" lon="1.1176">
        <ele>130</ele>
        <time>2017-12-22T16:52:52Z</time>
      </trkpt>
      <trkpt lat="47.14752" lon="1.11486">
        <ele>129</ele>
        <time>2017-12-22T16:53:52Z</time>
      </trkpt>
      <trkpt lat="47.14749" lon="1.11426">
        <ele>132</ele>
        <time>2017-12-22T16:54:52Z</time>
      </trkpt>
      <trkpt lat="47.14725" lon="1.11258">
        <ele>140</ele>
        <time>2017-12-22T16:55:52Z</time>
      </trkpt>
      <trkpt lat="47.14713" lon="1.11102">
        <ele>139</ele>
        <time>2017-12-22T16:56:52Z</time>
      </trkpt>
      <trkpt lat="47.14706" lon="1.10977">
        <ele>137</ele>
        <time>2017-12-22T16:57:52Z</time>
      </trkpt>
      <trkpt lat="47.147" lon="1.10821">
        <ele>132</ele>
        <time>2017-12-22T16:58:52Z</time>
      </trkpt>
      <trkpt lat="47.14692" lon="1.10739">
        <ele>128</ele>
        <time>2017-12-22T16:59:52Z</time>
      </trkpt>
      <trkpt lat="47.14682" lon="1.10688">
        <ele>125</ele>
        <time>2017-12-22T17:00:52Z</time>
      </trkpt>
      <trkpt lat="47.14685" lon="1.10625">
        <ele>119</ele>
        <time>2017-12-22T17:01:52Z</time>
      </trkpt>
      <trkpt lat="47.14692" lon="1.10548">
        <ele>113</ele>
        <time>2017-12-22T17:02:52Z</time>
      </trkpt>
      <trkpt lat="47.14706" lon="1.10432">
        <ele>110</ele>
        <time>2017-12-22T17:03:52Z</time>
      </trkpt>
      <trkpt lat="47.14717" lon="1.10342">
        <ele>116</ele>
        <time>2017-12-22T17:04:52Z</time>
      </trkpt>
      <trkpt lat="47.14713" lon="1.10297">
        <ele>117</ele>
        <time>2017-12-22T17:05:52Z</time>
      </trkpt>
      <trkpt lat="47.14694" lon="1.10258">
        <ele>117</ele>
        <time>2017-12-22T17:06:52Z</time>
      </trkpt>
      <trkpt lat="47.14618" lon="1.10179">
        <ele>119</ele>
        <time>2017-12-22T17:07:52Z</time>
      </trkpt>
      <trkpt lat="47.14579" lon="1.10112">
        <ele>123</ele>
        <time>2017-12-22T17:08:52Z</time>
      </trkpt>
      <trkpt lat="47.14568" lon="1.1005">
        <ele>125</ele>
        <time>2017-12-22T17:09:52Z</time>
      </trkpt>
      <trkpt lat="47.14555" lon="1.09956">
        <ele>124</ele>
        <time>2017-12-22T17:10:52Z</time>
      </trkpt>
      <trkpt lat="47.14574" lon="1.09866">
        <ele>126</ele>
        <time>2017-12-22T17:11:52Z</time>
      </trkpt>
      <trkpt lat="47.14596" lon="1.09786">
        <ele>128</ele>
        <time>2017-12-22T17:12:52Z</time>
      </trkpt>
      <trkpt lat="47.14595" lon="1.09743">
        <ele>128</ele>
        <time>2017-12-22T17:13:52Z</time>
      </trkpt>
      <trkpt lat="47.14657" lon="1.09758">
        <ele>130</ele>
        <time>2017-12-22T17:14:52Z</time>
      </trkpt>
      <trkpt lat="47.14685" lon="1.09767">
        <ele>131</ele>
        <time>2017-12-22T17:15:52Z</time>
      </trkpt>
      <trkpt lat="47.14754" lon="1.09771">
        <ele>132</ele>
        <time>2017-12-22T17:16:52Z</time>
      </trkpt>
      <trkpt lat="47.14792" lon="1.09735">
        <ele>132</ele>
        <time>2017-12-22T17:17:52Z</time>
      </trkpt>
      <trkpt lat="47.1484" lon="1.09731">
        <ele>132</ele>
        <time>2017-12-22T17:18:52Z</time>
      </trkpt>
      <trkpt lat="47.14873" lon="1.09724">
        <ele>132</ele>
        <time>2017-12-22T17:19:52Z</time>
      </trkpt>
      <trkpt lat="47.14986" lon="1.09655">
        <ele>132</ele>
        <time>2017-12-22T17:20:52Z</time>
      </trkpt>
      <trkpt lat="47.15015" lon="1.09705">
        <ele>132</ele>
        <time>2017-12-22T17:21:52Z</time>
      </trkpt>
      <trkpt lat="47.15053" lon="1.09814">
        <ele>131</ele>
        <time>2017-12-22T17:22:52Z</time>
      </trkpt>
      <trkpt lat="47.15081" lon="1.09786">
        <ele>132</ele>
        <time>2017-12-22T17:23:52Z</time>
      </trkpt>
      <trkpt lat="47.1511" lon="1.09743">
        <ele>132</ele>
        <time>2017-12-22T17:24:52Z</time>
      </trkpt>
      <trkpt lat="47.15136" lon="1.09683">
        <ele>132</ele>
        <time>2017-12-22T17:25:52Z</time>
      </trkpt>
      <trkpt lat="47.15135" lon="1.09632">
        <ele>132</ele>
        <time>2017-12-22T17:26:52Z</time>
      </trkpt>
      <trkpt lat="47.1513" lon="1.09589">
        <ele>132</ele>
        <time>2017-12-22T17:27:52Z</time>
      </trkpt>
      <trkpt lat="47.15167" lon="1.09537">
        <ele>130</ele>
        <time>2017-12-22T17:28:52Z</time>
      </trkpt>
      <trkpt lat="47.15228" lon="1.09499">
        <ele>128</ele>
        <time>2017-12-22T17:29:52Z</time>
      </trkpt>
      <trkpt lat="47.15276" lon="1.09449">
        <ele>127</ele>
        <time>2017-12-22T17:30:52Z</time>
      </trkpt>
      <trkpt lat="47.15289" lon="1.09484">
        <ele>126</ele>
        <time>2017-12-22T17:31:52Z</time>
      </trkpt>
      <trkpt lat="47.1532" lon="1.09537">
        <ele>124</ele>
        <time>2017-12-22T17:32:52Z</time>
      </trkpt>
      <trkpt lat="47.15323" lon="1.09591">
        <ele>123</ele>
        <time>2017-12-22T17:33:52Z</time>
      </trkpt>
      <trkpt lat="47.15329" lon="1.09673">
        <ele>122</ele>
        <time>2017-12-22T17:34:52Z</time>
      </trkpt>
      <trkpt lat="47.15358" lon="1.09746">
        <ele>125</ele>
        <time>2017-12-22T17:35:52Z</time>
      </trkpt>
      <trkpt lat="47.15407" lon="1.09819">
        <ele>127</ele>
        <time>2017-12-22T17:36:52Z</time>
      </trkpt>
      <trkpt lat="47.15451" lon="1.09879">
        <ele>128</ele>
        <time>2017-12-22T17:37:52Z</time>
      </trkpt>
      <trkpt lat="47.15479" lon="1.0996">
        <ele>129</ele>
        <time>2017-12-22T17:38:52Z</time>
      </trkpt>
      <trkpt lat="47.15517" lon="1.10031">
        <ele>129</ele>
        <time>2017-12-22T17:39:52Z</time>
      </trkpt>
      <trkpt lat="47.15553" lon="1.10078">
        <ele>128</ele>
        <time>2017-12-22T17:40:52Z</time>
      </trkpt>
      <trkpt lat="47.15604" lon="1.10123">
        <ele>127</ele>
        <time>2017-12-22T17:41:52Z</time>
      </trkpt>
      <trkpt lat="47.15637" lon="1.10132">
        <ele>126</ele>
        <time>2017-12-22T17:42:52Z</time>
      </trkpt>
      <trkpt lat="47.1568" lon="1.10134">
        <ele>124</ele>
        <time>2017-12-22T17:43:52Z</time>
      </trkpt>
      <trkpt lat="47.15737" lon="1.1014">
        <ele>123</ele>
        <time>2017-12-22T17:44:52Z</time>
      </trkpt>
      <trkpt lat="47.15794" lon="1.10143">
        <ele>122</ele>
        <time>2017-12-22T17:45:52Z</time>
      </trkpt>
      <trkpt lat="47.1585" lon="1.10158">
        <ele>121</ele>
        <time>2017-12-22T17:46:52Z</time>
      </trkpt>
      <trkpt lat="47.15906" lon="1.10164">
        <ele>119</ele>
        <time>2017-12-22T17:47:52Z</time>
      </trkpt>
      <trkpt lat="47.15981" lon="1.1017">
        <ele>120</ele>
        <time>2017-12-22T17:48:52Z</time>
      </trkpt>
      <trkpt lat="47.16038" lon="1.10177">
        <ele>119</ele>
        <time>2017-12-22T17:49:52Z</time>
      </trkpt>
      <trkpt lat="47.16067" lon="1.10218">
        <ele>116</ele>
        <time>2017-12-22T17:50:52Z</time>
      </trkpt>
      <trkpt lat="47.16101" lon="1.10288">
        <ele>114</ele>
        <time>2017-12-22T17:51:52Z</time>
      </trkpt>
      <trkpt lat="47.16125" lon="1.10331">
        <ele>111</ele>
        <time>2017-12-22T17:52:52Z</time>
      </trkpt>
      <trkpt lat="47.16176" lon="1.10357">
        <ele>108</ele>
        <time>2017-12-22T17:53:52Z</time>
      </trkpt>
      <trkpt lat="47.16258" lon="1.10381">
        <ele>98</ele>
        <time>2017-12-22T17:54:52Z</time>
      </trkpt>
      <trkpt lat="47.16315" lon="1.10379">
        <ele>96</ele>
        <time>2017-12-22T17:55:52Z</time>
      </trkpt>
      <trkpt lat="47.16359" lon="1.1037">
        <ele>95</ele>
        <time>2017-12-22T17:56:52Z</time>
      </trkpt>
      <trkpt lat="47.16403" lon="1.10366">
        <ele>94</ele>
        <time>2017-12-22T17:57:52Z</time>
      </trkpt>
      <trkpt lat="47.16464" lon="1.10376">
        <ele>88</ele>
        <time>2017-12-22T17:58:52Z</time>
      </trkpt>
      <trkpt lat="47.16516" lon="1.10379">
        <ele>85</ele>
        <time>2017-12-22T17:59:52Z</time>
      </trkpt>
      <trkpt lat="47.16559" lon="1.10357">
        <ele>87</ele>
        <time>2017-12-22T18:00:52Z</time>
      </trkpt>
      <trkpt lat="47.16655" lon="1.1064">
        <ele>83</ele>
        <time>2017-12-22T18:01:52Z</time>
      </trkpt>
      <trkpt lat="47.16668" lon="1.10692">
        <ele>85</ele>
        <time>2017-12-22T18:02:52Z</time>
      </trkpt>
      <trkpt lat="47.16705" lon="1.10724">
        <ele>86</ele>
        <time>2017-12-22T18:03:52Z</time>
      </trkpt>
      <trkpt lat="47.16745" lon="1.10823">
        <ele>89</ele>
        <time>2017-12-22T18:04:52Z</time>
      </trkpt>
      <trkpt lat="47.16843" lon="1.10889">
        <ele>89</ele>
        <time>2017-12-22T18:05:52Z</time>
      </trkpt>
      <trkpt lat="47.16945" lon="1.10954">
        <ele>88</ele>
        <time>2017-12-22T18:06:52Z</time>
      </trkpt>
      <trkpt lat="47.17024" lon="1.11016">
        <ele>89</ele>
        <time>2017-12-22T18:07:52Z</time>
      </trkpt>
      <trkpt lat="47.1709" lon="1.11085">
        <ele>90</ele>
        <time>2017-12-22T18:08:52Z</time>
      </trkpt>
      <trkpt lat="47.17135" lon="1.11102">
        <ele>88</ele>
        <time>2017-12-22T18:09:52Z</time>
      </trkpt>
      <trkpt lat="47.17215" lon="1.11142">
        <ele>88</ele>
        <time>2017-12-22T18:10:52Z</time>
      </trkpt>
      <trkpt lat="47.17266" lon="1.1116">
        <ele>86</ele>
        <time>2017-12-22T18:11:52Z</time>
      </trkpt>
      <trkpt lat="47.1732" lon="1.11207">
        <ele>90</ele>
        <time>2017-12-22T18:12:52Z</time>
      </trkpt>
      <trkpt lat="47.1738" lon="1.11205">
        <ele>88</ele>
        <time>2017-12-22T18:13:52Z</time>
      </trkpt>
      <trkpt lat="47.17443" lon="1.11196">
        <ele>89</ele>
        <time>2017-12-22T18:14:52Z</time>
      </trkpt>
      <trkpt lat="47.1746" lon="1.11256">
        <ele>98</ele>
        <time>2017-12-22T18:15:52Z</time>
      </trkpt>
      <trkpt lat="47.17485" lon="1.11297">
        <ele>101</ele>
        <time>2017-12-22T18:16:52Z</time>
      </trkpt>
      <trkpt lat="47.1751" lon="1.11329">
        <ele>102</ele>
        <time>2017-12-22T18:17:52Z</time>
      </trkpt>
      <trkpt lat="47.17545" lon="1.11374">
        <ele>105</ele>
        <time>2017-12-22T18:18:52Z</time>
      </trkpt>
      <trkpt lat="47.17574" lon="1.11432">
        <ele>106</ele>
        <time>2017-12-22T18:19:52Z</time>
      </trkpt>
      <trkpt lat="47.17607" lon="1.11464">
        <ele>110</ele>
        <time>2017-12-22T18:20:52Z</time>
      </trkpt>
      <trkpt lat="47.17653" lon="1.11499">
        <ele>113</ele>
        <time>2017-12-22T18:21:52Z</time>
      </trkpt>
      <trkpt lat="47.17692" lon="1.11559">
        <ele>116</ele>
        <time>2017-12-22T18:22:52Z</time>
      </trkpt>
      <trkpt lat="47.17729" lon="1.11642">
        <ele>115</ele>
        <time>2017-12-22T18:23:52Z</time>
      </trkpt>
      <trkpt lat="47.17787" lon="1.11758">
        <ele>116</ele>
        <time>2017-12-22T18:24:52Z</time>
      </trkpt>
      <trkpt lat="47.17854" lon="1.1149">
        <ele>120</ele>
        <time>2017-12-22T18:25:52Z</time>
      </trkpt>
      <trkpt lat="47.17889" lon="1.11378">
        <ele>120</ele>
        <time>2017-12-22T18:26:52Z</time>
      </trkpt>
      <trkpt lat="47.17909" lon="1.11327">
        <ele>120</ele>
        <time>2017-12-22T18:27:52Z</time>
      </trkpt>
      <trkpt lat="47.17934" lon="1.11267">
        <ele>118</ele>
        <time>2017-12-22T18:28:52Z</time>
      </trkpt>
      <trkpt lat="47.17962" lon="1.11218">
        <ele>116</ele>
        <time>2017-12-22T18:29:52Z</time>
      </trkpt>
      <trkpt lat="47.17987" lon="1.11181">
        <ele>114</ele>
        <time>2017-12-22T18:30:52Z</time>
      </trkpt>
      <trkpt lat="47.18095" lon="1.11027">
        <ele>116</ele>
        <time>2017-12-22T18:31:52Z</time>
      </trkpt>
      <trkpt lat="47.18144" lon="1.10881">
        <ele>115</ele>
        <time>2017-12-22T18:32:52Z</time>
      </trkpt>
      <trkpt lat="47.18162" lon="1.10939">
        <ele>116</ele>
        <time>2017-12-22T18:33:52Z</time>
      </trkpt>
      <trkpt lat="47.18184" lon="1.10982">
        <ele>115</ele>
        <time>2017-12-22T18:34:52Z</time>
      </trkpt>
      <trkpt lat="47.18192" lon="1.11039">
        <ele>116</ele>
        <time>2017-12-22T18:35:52Z</time>
      </trkpt>
      <trkpt lat="47.18198" lon="1.111">
        <ele>116</ele>
        <time>2017-12-22T18:36:52Z</time>
      </trkpt>
      <trkpt lat="47.18208" lon="1.11183">
        <ele>115</ele>
        <time>2017-12-22T18:37:52Z</time>
      </trkpt>
      <trkpt lat="47.18216" lon="1.11222">
        <ele>114</ele>
        <time>2017-12-22T18:38:52Z</time>
      </trkpt>
      <trkpt lat="47.18238" lon="1.11239">
        <ele>113</ele>
        <time>2017-12-22T18:39:52Z</time>
      </trkpt>
      <trkpt lat="47.18414" lon="1.1116">
        <ele>101</ele>
        <time>2017-12-22T18:40:52Z</time>
      </trkpt>
      <trkpt lat="47.18439" lon="1.11164">
        <ele>99</ele>
        <time>2017-12-22T18:41:52Z</time>
      </trkpt>
      <trkpt lat="47.18459" lon="1.11108">
        <ele>95</ele>
        <time>2017-12-22T18:42:52Z</time>
      </trkpt>
      <trkpt lat="47.18523" lon="1.11078">
        <ele>90</ele>
        <time>2017-12-22T18:43:52Z</time>
      </trkpt>
      <trkpt lat="47.18545" lon="1.11042">
        <ele>89</ele>
        <time>2017-12-22T18:44:52Z</time>
      </trkpt>
      <trkpt lat="47.18599" lon="1.11016">
        <ele>88</ele>
        <time>2017-12-22T18:45:52Z</time>
      </trkpt>
      <trkpt lat="47.18608" lon="1.11067">
        <ele>88</ele>
        <time>2017-12-22T18:46:52Z</time>
      </trkpt>
      <trkpt lat="47.18631" lon="1.11112">
        <ele>89</ele>
        <time>2017-12-22T18:47:52Z</time>
      </trkpt>
      <trkpt lat="47.18659" lon="1.1114">
        <ele>90</ele>
        <time>2017-12-22T18:48:52Z</time>
      </trkpt>
      <trkpt lat="47.18741" lon="1.11166">
        <ele>99</ele>
        <time>2017-12-22T18:49:52Z</time>
      </trkpt>
      <trkpt lat="47.18835" lon="1.11177">
        <ele>104</ele>
        <time>2017-12-22T18:50:52Z</time>
      </trkpt>
      <trkpt lat="47.18865" lon="1.11228">
        <ele>111</ele>
        <time>2017-12-22T18:51:52Z</time>
      </trkpt>
      <trkpt lat="47.18905" lon="1.11295">
        <ele>117</ele>
        <time>2017-12-22T18:52:52Z</time>
      </trkpt>
      <trkpt lat="47.18958" lon="1.11344">
        <ele>119</ele>
        <time>2017-12-22T18:53:52Z</time>
      </trkpt>
      <trkpt lat="47.18987" lon="1.11411">
        <ele>122</ele>
        <time>2017-12-22T18:54:52Z</time>
      </trkpt>
      <trkpt lat="47.18997" lon="1.11462">
        <ele>123</ele>
        <time>2017-12-22T18:55:52Z</time>
      </trkpt>
      <trkpt lat="47.19035" lon="1.11531">
        <ele>126</ele>
        <time>2017-12-22T18:56:52Z</time>
      </trkpt>
      <trkpt lat="47.19129" lon="1.11645">
        <ele>127</ele>
        <time>2017-12-22T18:57:52Z</time>
      </trkpt>
      <trkpt lat="47.19303" lon="1.11915">
        <ele>125</ele>
        <time>2017-12-22T18:58:52Z</time>
      </trkpt>
      <trkpt lat="47.19688" lon="1.1175">
        <ele>131</ele>
        <time>2017-12-22T18:59:52Z</time>
      </trkpt>
      <trkpt lat="47.19728" lon="1.1173">
        <ele>132</ele>
        <time>2017-12-22T19:00:52Z</time>
      </trkpt>
      <trkpt lat="47.19757" lon="1.11737">
        <ele>133</ele>
        <time>2017-12-22T19:01:52Z</time>
      </trkpt>
      <trkpt lat="47.19823" lon="1.11754">
        <ele>129</ele>
        <time>2017-12-22T19:02:52Z</time>
      </trkpt>
      <trkpt lat="47.20133" lon="1.11563">
        <ele>127</ele>
        <time>2017-12-22T19:03:52Z</time>
      </trkpt>
      <trkpt lat="47.20193" lon="1.11606">
        <ele>128</ele>
        <time>2017-12-22T19:04:52Z</time>
      </trkpt>
      <trkpt lat="47.20342" lon="1.11546">
        <ele>126</ele>
        <time>2017-12-22T19:05:52Z</time>
      </trkpt>
      <trkpt lat="47.20359" lon="1.11552">
        <ele>126</ele>
        <time>2017-12-22T19:06:52Z</time>
      </trkpt>
      <trkpt lat="47.2048" lon="1.11428">
        <ele>127</ele>
        <time>2017-12-22T19:07:52Z</time>
      </trkpt>
      <trkpt lat="47.2053" lon="1.11404">
        <ele>130</ele>
        <time>2017-12-22T19:08:52Z</time>
      </trkpt>
      <trkpt lat="47.20607" lon="1.11385">
        <ele>132</ele>
        <time>2017-12-22T19:09:52Z</time>
      </trkpt>
      <trkpt lat="47.20661" lon="1.11348">
        <ele>132</ele>
        <time>2017-12-22T19:10:52Z</time>
      </trkpt>
      <trkpt lat="47.20707" lon="1.11331">
        <ele>131</ele>
        <time>2017-12-22T19:11:52Z</time>
      </trkpt>
      <trkpt lat="47.20865" lon="1.11301">
        <ele>129</ele>
        <time>2017-12-22T19:12:52Z</time>
      </trkpt>
      <trkpt lat="47.20872" lon="1.11471">
        <ele>133</ele>
        <time>2017-12-22T19:13:52Z</time>
      </trkpt>
      <trkpt lat="47.20868" lon="1.11557">
        <ele>132</ele>
        <time>2017-12-22T19:14:52Z</time>
      </trkpt>
      <trkpt lat="47.20861" lon="1.11636">
        <ele>130</ele>
        <time>2017-12-22T19:15:52Z</time>
      </trkpt>
      <trkpt lat="47.20957" lon="1.11632">
        <ele>130</ele>
        <time>2017-12-22T19:16:52Z</time>
      </trkpt>
      <trkpt lat="47.21015" lon="1.11642">
        <ele>129</ele>
        <time>2017-12-22T19:17:52Z</time>
      </trkpt>
      <trkpt lat="47.21031" lon="1.11748">
        <ele>127</ele>
        <time>2017-12-22T19:18:52Z</time>
      </trkpt>
      <trkpt lat="47.21161" lon="1.1175">
        <ele>122</ele>
        <time>2017-12-22T19:19:52Z</time>
      </trkpt>
      <trkpt lat="47.21264" lon="1.11745">
        <ele>122</ele>
        <time>2017-12-22T19:20:52Z</time>
      </trkpt>
      <trkpt lat="47.21291" lon="1.11748">
        <ele>124</ele>
        <time>2017-12-22T19:21:52Z</time>
      </trkpt>
      <trkpt lat="47.21324" lon="1.11735">
        <ele>126</ele>
        <time>2017-12-22T19:22:52Z</time>
      </trkpt>
      <trkpt lat="47.21336" lon="1.11664">
        <ele>125</ele>
        <time>2017-12-22T19:23:52Z</time>
      </trkpt>
      <trkpt lat="47.21365" lon="1.1163">
        <ele>124</ele>
        <time>2017-12-22T19:24:52Z</time>
      </trkpt>
      <trkpt lat="47.21419" lon="1.11623">
        <ele>122</ele>
        <time>2017-12-22T19:25:52Z</time>
      </trkpt>
      <trkpt lat="47.21438" lon="1.11589">
        <ele>120</ele>
        <time>2017-12-22T19:26:52Z</time>
      </trkpt>
      <trkpt lat="47.21481" lon="1.11539">
        <ele>120</ele>
        <time>2017-12-22T19:27:52Z</time>
      </trkpt>
      <trkpt lat="47.21623" lon="1.11436">
        <ele>126</ele>
        <time>2017-12-22T19:28:52Z</time>
      </trkpt>
      <trkpt lat="47.21667" lon="1.11411">
        <ele>128</ele>
        <time>2017-12-22T19:29:52Z</time>
      </trkpt>
      <trkpt lat="47.21688" lon="1.11406">
        <ele>127</ele>
        <time>2017-12-22T19:30:52Z</time>
      </trkpt>
      <trkpt lat="47.21721" lon="1.11404">
        <ele>127</ele>
        <time>2017-12-22T19:31:52Z</time>
      </trkpt>
      <trkpt lat="47.2175" lon="1.11428">
        <ele>126</ele>
        <time>2017-12-22T19:32:52Z</time>
      </trkpt>
      <trkpt lat="47.21868" lon="1.11441">
        <ele>125</ele>
        <time>2017-12-22T19:33:52Z</time>
      </trkpt>
      <trkpt lat="47.2191" lon="1.1143">
        <ele>124</ele>
        <time>2017-12-22T19:34:52Z</time>
      </trkpt>
      <trkpt lat="47.22011" lon="1.114">
        <ele>128</ele>
        <time>2017-12-22T19:35:52Z</time>
      </trkpt>
      <trkpt lat="47.22037" lon="1.1137">
        <ele>129</ele>
        <time>2017-12-22T19:36:52Z</time>
      </trkpt>
      <trkpt lat="47.22066" lon="1.11333">
        <ele>129</ele>
        <time>2017-12-22T19:37:52Z</time>
      </trkpt>
      <trkpt lat="47.22121" lon="1.1131">
        <ele>129</ele>
        <time>2017-12-22T19:38:52Z</time>
      </trkpt>
      <trkpt lat="47.22204" lon="1.11278">
        <ele>130</ele>
        <time>2017-12-22T19:39:52Z</time>
      </trkpt>
      <trkpt lat="47.22245" lon="1.11245">
        <ele>130</ele>
        <time>2017-12-22T19:40:52Z</time>
      </trkpt>
      <trkpt lat="47.2229" lon="1.11179">
        <ele>129</ele>
        <time>2017-12-22T19:41:52Z</time>
      </trkpt>
      <trkpt lat="47.22341" lon="1.11248">
        <ele>128</ele>
        <time>2017-12-22T19:42:52Z</time>
      </trkpt>
      <trkpt lat="47.22417" lon="1.11567">
        <ele>133</ele>
        <time>2017-12-22T19:43:52Z</time>
      </trkpt>
      <trkpt lat="47.22435" lon="1.11615">
        <ele>134</ele>
        <time>2017-12-22T19:44:52Z</time>
      </trkpt>
      <trkpt lat="47.22474" lon="1.11735">
        <ele>137</ele>
        <time>2017-12-22T19:45:52Z</time>
      </trkpt>
      <trkpt lat="47.22493" lon="1.11763">
        <ele>137</ele>
        <time>2017-12-22T19:46:52Z</time>
      </trkpt>
      <trkpt lat="47.22503" lon="1.11825">
        <ele>136</ele>
        <time>2017-12-22T19:47:52Z</time>
      </trkpt>
      <trkpt lat="47.22521" lon="1.11874">
        <ele>135</ele>
        <time>2017-12-22T19:48:52Z</time>
      </trkpt>
      <trkpt lat="47.22551" lon="1.11909">
        <ele>134</ele>
        <time>2017-12-22T19:49:52Z</time>
      </trkpt>
      <trkpt lat="47.22626" lon="1.12018">
        <ele>134</ele>
        <time>2017-12-22T19:50:52Z</time>
      </trkpt>
      <trkpt lat="47.22695" lon="1.12087">
        <ele>137</ele>
        <time>2017-12-22T19:51:52Z</time>
      </trkpt>
      <trkpt lat="47.22706" lon="1.12117">
        <ele>137</ele>
        <time>2017-12-22T19:52:52Z</time>
      </trkpt>
      <trkpt lat="47.22729" lon="1.12123">
        <ele>136</ele>
        <time>2017-12-22T19:53:52Z</time>
      </trkpt>
      <trkpt lat="47.22758" lon="1.12155">
        <ele>135</ele>
        <time>2017-12-22T19:54:52Z</time>
      </trkpt>
      <trkpt lat="47.22787" lon="1.12235">
        <ele>136</ele>
        <time>2017-12-22T19:55:52Z</time>
      </trkpt>
      <trkpt lat="47.22882" lon="1.12305">
        <ele>137</ele>
        <time>2017-12-22T19:56:52Z</time>
      </trkpt>
      <trkpt lat="47.23106" lon="1.12052">
        <ele>129</ele>
        <time>2017-12-22T19:57:52Z</time>
      </trkpt>
      <trkpt lat="47.23109" lon="1.12297">
        <ele>129</ele>
        <time>2017-12-22T19:58:52Z</time>
      </trkpt>
      <trkpt lat="47.23124" lon="1.12782">
        <ele>126</ele>
        <time>2017-12-22T19:59:52Z</time>
      </trkpt>
      <trkpt lat="47.23152" lon="1.12932">
        <ele>129</ele>
        <time>2017-12-22T20:00:52Z</time>
      </trkpt>
      <trkpt lat="47.23185" lon="1.13067">
        <ele>131</ele>
        <time>2017-12-22T20:01:52Z</time>
      </trkpt>
      <trkpt lat="47.23214" lon="1.13031">
        <ele>131</ele>
        <time>2017-12-22T20:02:52Z</time>
      </trkpt>
      <trkpt lat="47.23248" lon="1.13014">
        <ele>132</ele>
        <time>2017-12-22T20:03:52Z</time>
      </trkpt>
      <trkpt lat="47.23296" lon="1.12986">
        <ele>130</ele>
        <time>2017-12-22T20:04:52Z</time>
      </trkpt>
      <trkpt lat="47.23577" lon="1.12775">
        <ele>126</ele>
        <time>2017-12-22T20:05:52Z</time>
      </trkpt>
      <trkpt lat="47.23481" lon="1.12526">
        <ele>120</ele>
        <time>2017-12-22T20:06:52Z</time>
      </trkpt>
      <trkpt lat="47.23546" lon="1.12494">
        <ele>121</ele>
        <time>2017-12-22T20:07:52Z</time>
      </trkpt>
      <trkpt lat="47.23573" lon="1.12451">
        <ele>120</ele>
        <time>2017-12-22T20:08:52Z</time>
      </trkpt>
      <trkpt lat="47.236" lon="1.124">
        <ele>120</ele>
        <time>2017-12-22T20:09:52Z</time>
      </trkpt>
      <trkpt lat="47.23628" lon="1.1234">
        <ele>122</ele>
        <time>2017-12-22T20:10:52Z</time>
      </trkpt>
      <trkpt lat="47.23699" lon="1.12228">
        <ele>125</ele>
        <time>2017-12-22T20:11:52Z</time>
      </trkpt>
      <trkpt lat="47.23734" lon="1.12194">
        <ele>126</ele>
        <time>2017-12-22T20:12:52Z</time>
      </trkpt>
      <trkpt lat="47.23771" lon="1.12168">
        <ele>125</ele>
        <time>2017-12-22T20:13:52Z</time>
      </trkpt>
      <trkpt lat="47.23832" lon="1.12147">
        <ele>124</ele>
        <time>2017-12-22T20:14:52Z</time>
      </trkpt>
      <trkpt lat="47.23871" lon="1.12112">
        <ele>122</ele>
        <time>2017-12-22T20:15:52Z</time>
      </trkpt>
      <trkpt lat="47.23932" lon="1.12054">
        <ele>118</ele>
        <time>2017-12-22T20:16:52Z</time>
      </trkpt>
      <trkpt lat="47.23967" lon="1.12039">
        <ele>115</ele>
        <time>2017-12-22T20:17:52Z</time>
      </trkpt>
      <trkpt lat="47.24008" lon="1.12046">
        <ele>113</ele>
        <time>2017-12-22T20:18:52Z</time>
      </trkpt>
      <trkpt lat="47.24112" lon="1.12076">
        <ele>114</ele>
        <time>2017-12-22T20:19:52Z</time>
      </trkpt>
      <trkpt lat="47.24192" lon="1.119">
        <ele>121</ele>
        <time>2017-12-22T20:20:52Z</time>
      </trkpt>
      <trkpt lat="47.24335" lon="1.11602">
        <ele>130</ele>
        <time>2017-12-22T20:21:52Z</time>
      </trkpt>
      <trkpt lat="47.24351" lon="1.11548">
        <ele>129</ele>
        <time>2017-12-22T20:22:52Z</time>
      </trkpt>
      <trkpt lat="47.24368" lon="1.11512">
        <ele>128</ele>
        <time>2017-12-22T20:23:52Z</time>
      </trkpt>
      <trkpt lat="47.24402" lon="1.11454">
        <ele>125</ele>
        <time>2017-12-22T20:24:52Z</time>
      </trkpt>
      <trkpt lat="47.24432" lon="1.11368">
        <ele>121</ele>
        <time>2017-12-22T20:25:52Z</time>
      </trkpt>
      <trkpt lat="47.24431" lon="1.11312">
        <ele>121</ele>
        <time>2017-12-22T20:26:52Z</time>
      </trkpt>
      <trkpt lat="47.24426" lon="1.1128">
        <ele>121</ele>
        <time>2017-12-22T20:27:52Z</time>
      </trkpt>
      <trkpt lat="47.24454" lon="1.11207">
        <ele>124</ele>
        <time>2017-12-22T20:28:52Z</time>
      </trkpt>
      <trkpt lat="47.24461" lon="1.11175">
        <ele>125</ele>
        <time>2017-12-22T20:29:52Z</time>
      </trkpt>
      <trkpt lat="47.24466" lon="1.11127">
        <ele>124</ele>
        <time>2017-12-22T20:30:52Z</time>
      </trkpt>
      <trkpt lat="47.24429" lon="1.11108">
        <ele>120</ele>
        <time>2017-12-22T20:31:52Z</time>
      </trkpt>
      <trkpt lat="47.24496" lon="1.11089">
        <ele>126</ele>
        <time>2017-12-22T20:32:52Z</time>
      </trkpt>
      <trkpt lat="47.24696" lon="1.11039">
        <ele>127</ele>
        <time>2017-12-22T20:33:52Z</time>
      </trkpt>
      <trkpt lat="47.24796" lon="1.11065">
        <ele>127</ele>
        <time>2017-12-22T20:34:52Z</time>
      </trkpt>
      <trkpt lat="47.24798" lon="1.11157">
        <ele>127</ele>
        <time>2017-12-22T20:35:52Z</time>
      </trkpt>
      <trkpt lat="47.24825" lon="1.11265">
        <ele>125</ele>
        <time>2017-12-22T20:36:52Z</time>
      </trkpt>
      <trkpt lat="47.24875" lon="1.11366">
        <ele>123</ele>
        <time>2017-12-22T20:37:52Z</time>
      </trkpt>
      <trkpt lat="47.24964" lon="1.11497">
        <ele>123</ele>
        <time>2017-12-22T20:38:52Z</time>
      </trkpt>
      <trkpt lat="47.25125" lon="1.11739">
        <ele>122</ele>
        <time>2017-12-22T20:39:52Z</time>
      </trkpt>
      <trkpt lat="47.25326" lon="1.12009">
        <ele>116</ele>
        <time>2017-12-22T20:40:52Z</time>
      </trkpt>
      <trkpt lat="47.25354" lon="1.11919">
        <ele>117</ele>
        <time>2017-12-22T20:41:52Z</time>
      </trkpt>
      <trkpt lat="47.25377" lon="1.11808">
        <ele>116</ele>
        <time>2017-12-22T20:42:52Z</time>
      </trkpt>
      <trkpt lat="47.25388" lon="1.11735">
        <ele>118</ele>
        <time>2017-12-22T20:43:52Z</time>
      </trkpt>
      <trkpt lat="47.25404" lon="1.1166">
        <ele>120</ele>
        <time>2017-12-22T20:44:52Z</time>
      </trkpt>
      <trkpt lat="47.25418" lon="1.11604">
        <ele>121</ele>
        <time>2017-12-22T20:45:52Z</time>
      </trkpt>
      <trkpt lat="47.25449" lon="1.11567">
        <ele>122</ele>
        <time>2017-12-22T20:46:52Z</time>
      </trkpt>
      <trkpt lat="47.25485" lon="1.11542">
        <ele>122</ele>
        <time>2017-12-22T20:47:52Z</time>
      </trkpt>
      <trkpt lat="47.25484" lon="1.11411">
        <ele>120</ele>
        <time>2017-12-22T20:48:52Z</time>
      </trkpt>
      <trkpt lat="47.25459" lon="1.1128">
        <ele>116</ele>
        <time>2017-12-22T20:49:52Z</time>
      </trkpt>
      <trkpt lat="47.25511" lon="1.11273">
        <ele>114</ele>
        <time>2017-12-22T20:50:52Z</time>
      </trkpt>
      <trkpt lat="47.25676" lon="1.1119">
        <ele>108</ele>
        <time>2017-12-22T20:51:52Z</time>
      </trkpt>
      <trkpt lat="47.25643" lon="1.11095">
        <ele>110</ele>
        <time>2017-12-22T20:52:52Z</time>
      </trkpt>
      <trkpt lat="47.25712" lon="1.10737">
        <ele>126</ele>
        <time>2017-12-22T20:53:52Z</time>
      </trkpt>
      <trkpt lat="47.25727" lon="1.10627">
        <ele>131</ele>
        <time>2017-12-22T20:54:52Z</time>
      </trkpt>
      <trkpt lat="47.25733" lon="1.10587">
        <ele>131</ele>
        <time>2017-12-22T20:55:52Z</time>
      </trkpt>
      <trkpt lat="47.25769" lon="1.10531">
        <ele>132</ele>
        <time>2017-12-22T20:56:52Z</time>
      </trkpt>
      <trkpt lat="47.258" lon="1.10497">
        <ele>133</ele>
        <time>2017-12-22T20:57:52Z</time>
      </trkpt>
      <trkpt lat="47.25833" lon="1.10426">
        <ele>137</ele>
        <time>2017-12-22T20:58:52Z</time>
      </trkpt>
      <trkpt lat="47.25859" lon="1.10344">
        <ele>136</ele>
        <time>2017-12-22T20:59:52Z</time>
      </trkpt>
      <trkpt lat="47.25897" lon="1.10364">
        <ele>138</ele>
        <time>2017-12-22T21:00:52Z</time>
      </trkpt>
      <trkpt lat="47.25928" lon="1.10359">
        <ele>139</ele>
        <time>2017-12-22T21:01:52Z</time>
      </trkpt>
      <trkpt lat="47.25966" lon="1.10374">
        <ele>139</ele>
        <time>2017-12-22T21:02:52Z</time>
      </trkpt>
      <trkpt lat="47.25982" lon="1.10398">
        <ele>140</ele>
        <time>2017-12-22T21:03:52Z</time>
      </trkpt>
      <trkpt lat="47.26014" lon="1.10396">
        <ele>140</ele>
        <time>2017-12-22T21:04:52Z</time>
      </trkpt>
      <trkpt lat="47.26094" lon="1.10374">
        <ele>139</ele>
        <time>2017-12-22T21:05:52Z</time>
      </trkpt>
      <trkpt lat="47.26141" lon="1.10357">
        <ele>138</ele>
        <time>2017-12-22T21:06:52Z</time>
      </trkpt>
      <trkpt lat="47.26171" lon="1.10336">
        <ele>137</ele>
        <time>2017-12-22T21:07:52Z</time>
      </trkpt>
      <trkpt lat="47.26218" lon="1.10334">
        <ele>136</ele>
        <time>2017-12-22T21:08:52Z</time>
      </trkpt>
      <trkpt lat="47.26248" lon="1.10334">
        <ele>136</ele>
        <time>2017-12-22T21:09:52Z</time>
      </trkpt>
      <trkpt lat="47.26324" lon="1.10312">
        <ele>134</ele>
        <time>2017-12-22T21:10:52Z</time>
      </trkpt>
      <trkpt lat="47.26374" lon="1.10284">
        <ele>132</ele>
        <time>2017-12-22T21:11:52Z</time>
      </trkpt>
      <trkpt lat="47.26419" lon="1.1028">
        <ele>130</ele>
        <time>2017-12-22T21:12:52Z</time>
      </trkpt>
      <trkpt lat="47.26448" lon="1.10284">
        <ele>129</ele>
        <time>2017-12-22T21:13:52Z</time>
      </trkpt>
      <trkpt lat="47.26727" lon="1.10185">
        <ele>124</ele>
        <time>2017-12-22T21:14:52Z</time>
      </trkpt>
      <trkpt lat="47.26923" lon="1.10119">
        <ele>124</ele>
        <time>2017-12-22T21:15:52Z</time>
      </trkpt>
      <trkpt lat="47.27086" lon="1.10059">
        <ele>123</ele>
        <time>2017-12-22T21:16:52Z</time>
      </trkpt>
      <trkpt lat="47.27205" lon="1.10016">
        <ele>122</ele>
        <time>2017-12-22T21:17:52Z</time>
      </trkpt>
      <trkpt lat="47.27262" lon="1.10016">
        <ele>123</ele>
        <time>2017-12-22T21:18:52Z</time>
      </trkpt>
      <trkpt lat="47.27326" lon="1.09986">
        <ele>123</ele>
        <time>2017-12-22T21:19:52Z</time>
      </trkpt>
      <trkpt lat="47.27412" lon="1.09964">
        <ele>122</ele>
        <time>2017-12-22T21:20:52Z</time>
      </trkpt>
      <trkpt lat="47.27533" lon="1.09922">
        <ele>122</ele>
        <time>2017-12-22T21:21:52Z</time>
      </trkpt>
      <trkpt lat="47.27582" lon="1.09898">
        <ele>121</ele>
        <time>2017-12-22T21:22:52Z</time>
      </trkpt>
      <trkpt lat="47.27655" lon="1.09864">
        <ele>122</ele>
        <time>2017-12-22T21:23:52Z</time>
      </trkpt>
      <trkpt lat="47.27629" lon="1.09808">
        <ele>122</ele>
        <time>2017-12-22T21:24:52Z</time>
      </trkpt>
      <trkpt lat="47.27597" lon="1.09718">
        <ele>120</ele>
        <time>2017-12-22T21:25:52Z</time>
      </trkpt>
      <trkpt lat="47.27585" lon="1.09604">
        <ele>122</ele>
        <time>2017-12-22T21:26:52Z</time>
      </trkpt>
      <trkpt lat="47.27575" lon="1.09525">
        <ele>125</ele>
        <time>2017-12-22T21:27:52Z</time>
      </trkpt>
      <trkpt lat="47.27559" lon="1.09482">
        <ele>126</ele>
        <time>2017-12-22T21:28:52Z</time>
      </trkpt>
      <trkpt lat="47.27518" lon="1.09402">
        <ele>126</ele>
        <time>2017-12-22T21:29:52Z</time>
      </trkpt>
      <trkpt lat="47.27487" lon="1.09346">
        <ele>127</ele>
        <time>2017-12-22T21:30:52Z</time>
      </trkpt>
      <trkpt lat="47.27445" lon="1.09254">
        <ele>127</ele>
        <time>2017-12-22T21:31:52Z</time>
      </trkpt>
      <trkpt lat="47.27407" lon="1.09158">
        <ele>127</ele>
        <time>2017-12-22T21:32:52Z</time>
      </trkpt>
      <trkpt lat="47.2738" lon="1.0907">
        <ele>125</ele>
        <time>2017-12-22T21:33:52Z</time>
      </trkpt>
      <trkpt lat="47.27348" lon="1.09005">
        <ele>125</ele>
        <time>2017-12-22T21:34:52Z</time>
      </trkpt>
      <trkpt lat="47.27323" lon="1.08943">
        <ele>124</ele>
        <time>2017-12-22T21:35:52Z</time>
      </trkpt>
      <trkpt lat="47.27486" lon="1.08962">
        <ele>124</ele>
        <time>2017-12-22T21:36:52Z</time>
      </trkpt>
      <trkpt lat="47.27592" lon="1.08971">
        <ele>127</ele>
        <time>2017-12-22T21:37:52Z</time>
      </trkpt>
      <trkpt lat="47.27643" lon="1.08992">
        <ele>126</ele>
        <time>2017-12-22T21:38:52Z</time>
      </trkpt>
      <trkpt lat="47.27722" lon="1.0902">
        <ele>125</ele>
        <time>2017-12-22T21:39:52Z</time>
      </trkpt>
      <trkpt lat="47.27809" lon="1.09063">
        <ele>125</ele>
        <time>2017-12-22T21:40:52Z</time>
      </trkpt>
      <trkpt lat="47.27857" lon="1.0907">
        <ele>124</ele>
        <time>2017-12-22T21:41:52Z</time>
      </trkpt>
      <trkpt lat="47.28029" lon="1.09095">
        <ele>122</ele>
        <time>2017-12-22T21:42:52Z</time>
      </trkpt>
      <trkpt lat="47.28105" lon="1.091">
        <ele>126</ele>
        <time>2017-12-22T21:43:52Z</time>
      </trkpt>
      <trkpt lat="47.2814" lon="1.09085">
        <ele>127</ele>
        <time>2017-12-22T21:44:52Z</time>
      </trkpt>
      <trkpt lat="47.28175" lon="1.09057">
        <ele>127</ele>
        <time>2017-12-22T21:45:52Z</time>
      </trkpt>
      <trkpt lat="47.28217" lon="1.0901">
        <ele>126</ele>
        <time>2017-12-22T21:46:52Z</time>
      </trkpt>
      <trkpt lat="47.28259" lon="1.08984">
        <ele>125</ele>
        <time>2017-12-22T21:47:52Z</time>
      </trkpt>
      <trkpt lat="47.28308" lon="1.08984">
        <ele>125</ele>
        <time>2017-12-22T21:48:52Z</time>
      </trkpt>
      <trkpt lat="47.28371" lon="1.09005">
        <ele>123</ele>
        <time>2017-12-22T21:49:52Z</time>
      </trkpt>
      <trkpt lat="47.28409" lon="1.09016">
        <ele>121</ele>
        <time>2017-12-22T21:50:52Z</time>
      </trkpt>
      <trkpt lat="47.28432" lon="1.08988">
        <ele>120</ele>
        <time>2017-12-22T21:51:52Z</time>
      </trkpt>
      <trkpt lat="47.28474" lon="1.08984">
        <ele>120</ele>
        <time>2017-12-22T21:52:52Z</time>
      </trkpt>
      <trkpt lat="47.28511" lon="1.08982">
        <ele>120</ele>
        <time>2017-12-22T21:53:52Z</time>
      </trkpt>
      <trkpt lat="47.2855" lon="1.08965">
        <ele>118</ele>
        <time>2017-12-22T21:54:52Z</time>
      </trkpt>
      <trkpt lat="47.28592" lon="1.08943">
        <ele>115</ele>
        <time>2017-12-22T21:55:52Z</time>
      </trkpt>
      <trkpt lat="47.28643" lon="1.08939">
        <ele>113</ele>
        <time>2017-12-22T21:56:52Z</time>
      </trkpt>
      <trkpt lat="47.28623" lon="1.08988">
        <ele>115</ele>
        <time>2017-12-22T21:57:52Z</time>
      </trkpt>
      <trkpt lat="47.28627" lon="1.09057">
        <ele>115</ele>
        <time>2017-12-22T21:58:52Z</time>
      </trkpt>
      <trkpt lat="47.28651" lon="1.09128">
        <ele>112</ele>
        <time>2017-12-22T21:59:52Z</time>
      </trkpt>
      <trkpt lat="47.28693" lon="1.09168">
        <ele>109</ele>
        <time>2017-12-22T22:00:52Z</time>
      </trkpt>
      <trkpt lat="47.28828" lon="1.09323">
        <ele>107</ele>
        <time>2017-12-22T22:01:52Z</time>
      </trkpt>
      <trkpt lat="47.28854" lon="1.09344">
        <ele>105</ele>
        <time>2017-12-22T22:02:52Z</time>
      </trkpt>
      <trkpt lat="47.28875" lon="1.0937">
        <ele>103</ele>
        <time>2017-12-22T22:03:52Z</time>
      </trkpt>
      <trkpt lat="47.28898" lon="1.09417">
        <ele>101</ele>
        <time>2017-12-22T22:04:52Z</time>
      </trkpt>
      <trkpt lat="47.28917" lon="1.09488">
        <ele>100</ele>
        <time>2017-12-22T22:05:52Z</time>
      </trkpt>
      <trkpt lat="47.28923" lon="1.09546">
        <ele>103</ele>
        <time>2017-12-22T22:06:52Z</time>
      </trkpt>
      <trkpt lat="47.28962" lon="1.09698">
        <ele>110</ele>
        <time>2017-12-22T22:07:52Z</time>
      </trkpt>
      <trkpt lat="47.28985" lon="1.09722">
        <ele>110</ele>
        <time>2017-12-22T22:08:52Z</time>
      </trkpt>
      <trkpt lat="47.29019" lon="1.09754">
        <ele>110</ele>
        <time>2017-12-22T22:09:52Z</time>
      </trkpt>
      <trkpt lat="47.29045" lon="1.09797">
        <ele>112</ele>
        <time>2017-12-22T22:10:52Z</time>
      </trkpt>
      <trkpt lat="47.29067" lon="1.0987">
        <ele>113</ele>
        <time>2017-12-22T22:11:52Z</time>
      </trkpt>
      <trkpt lat="47.29073" lon="1.09898">
        <ele>113</ele>
        <time>2017-12-22T22:12:52Z</time>
      </trkpt>
      <trkpt lat="47.29131" lon="1.09879">
        <ele>113</ele>
        <time>2017-12-22T22:13:52Z</time>
      </trkpt>
      <trkpt lat="47.29166" lon="1.10155">
        <ele>113</ele>
        <time>2017-12-22T22:14:52Z</time>
      </trkpt>
      <trkpt lat="47.29128" lon="1.10239">
        <ele>114</ele>
        <time>2017-12-22T22:15:52Z</time>
      </trkpt>
      <trkpt lat="47.29089" lon="1.10327">
        <ele>114</ele>
        <time>2017-12-22T22:16:52Z</time>
      </trkpt>
      <trkpt lat="47.29013" lon="1.1043">
        <ele>114</ele>
        <time>2017-12-22T22:17:52Z</time>
      </trkpt>
      <trkpt lat="47.28975" lon="1.10471">
        <ele>111</ele>
        <time>2017-12-22T22:18:52Z</time>
      </trkpt>
      <trkpt lat="47.2887" lon="1.10587">
        <ele>105</ele>
        <time>2017-12-22T22:19:52Z</time>
      </trkpt>
      <trkpt lat="47.2883" lon="1.10591">
        <ele>105</ele>
        <time>2017-12-22T22:20:52Z</time>
      </trkpt>
      <trkpt lat="47.28795" lon="1.10615">
        <ele>103</ele>
        <time>2017-12-22T22:21:52Z</time>
      </trkpt>
      <trkpt lat="47.28764" lon="1.10643">
        <ele>102</ele>
        <time>2017-12-22T22:22:52Z</time>
      </trkpt>
      <trkpt lat="47.28739" lon="1.10636">
        <ele>102</ele>
        <time>2017-12-22T22:23:52Z</time>
      </trkpt>
      <trkpt lat="47.28713" lon="1.10627">
        <ele>102</ele>
        <time>2017-12-22T22:24:52Z</time>
      </trkpt>
      <trkpt lat="47.28691" lon="1.10619">
        <ele>102</ele>
        <time>2017-12-22T22:25:52Z</time>
      </trkpt>
      <trkpt lat="47.28696" lon="1.10664">
        <ele>103</ele>
        <time>2017-12-22T22:26:52Z</time>
      </trkpt>
      <trkpt lat="47.28696" lon="1.10709">
        <ele>102</ele>
        <time>2017-12-22T22:27:52Z</time>
      </trkpt>
      <trkpt lat="47.28674" lon="1.10741">
        <ele>102</ele>
        <time>2017-12-22T22:28:52Z</time>
      </trkpt>
      <trkpt lat="47.28637" lon="1.10765">
        <ele>104</ele>
        <time>2017-12-22T22:29:52Z</time>
      </trkpt>
      <trkpt lat="47.28597" lon="1.10795">
        <ele>105</ele>
        <time>2017-12-22T22:30:52Z</time>
      </trkpt>
      <trkpt lat="47.2857" lon="1.10829">
        <ele>105</ele>
        <time>2017-12-22T22:31:52Z</time>
      </trkpt>
      <trkpt lat="47.28537" lon="1.10874">
        <ele>103</ele>
        <time>2017-12-22T22:32:52Z</time>
      </trkpt>
      <trkpt lat="47.28508" lon="1.10902">
        <ele>102</ele>
        <time>2017-12-22T22:33:52Z</time>
      </trkpt>
      <trkpt lat="47.28483" lon="1.10921">
        <ele>102</ele>
        <time>2017-12-22T22:34:52Z</time>
      </trkpt>
      <trkpt lat="47.28444" lon="1.10939">
        <ele>101</ele>
        <time>2017-12-22T22:35:52Z</time>
      </trkpt>
      <trkpt lat="47.28384" lon="1.1096">
        <ele>100</ele>
        <time>2017-12-22T22:36:52Z</time>
      </trkpt>
      <trkpt lat="47.28319" lon="1.10969">
        <ele>99</ele>
        <time>2017-12-22T22:37:52Z</time>
      </trkpt>
      <trkpt lat="47.28268" lon="1.10977">
        <ele>97</ele>
        <time>2017-12-22T22:38:52Z</time>
      </trkpt>
      <trkpt lat="47.28247" lon="1.10975">
        <ele>96</ele>
        <time>2017-12-22T22:39:52Z</time>
      </trkpt>
      <trkpt lat="47.28243" lon="1.11029">
        <ele>95</ele>
        <time>2017-12-22T22:40:52Z</time>
      </trkpt>
      <trkpt lat="47.2825" lon="1.11095">
        <ele>94</ele>
        <time>2017-12-22T22:41:52Z</time>
      </trkpt>
      <trkpt lat="47.2826" lon="1.11151">
        <ele>91</ele>
        <time>2017-12-22T22:42:52Z</time>
      </trkpt>
      <trkpt lat="47.28284" lon="1.11207">
        <ele>84</ele>
        <time>2017-12-22T22:43:52Z</time>
      </trkpt>
      <trkpt lat="47.28224" lon="1.1123">
        <ele>83</ele>
        <time>2017-12-22T22:44:52Z</time>
      </trkpt>
      <trkpt lat="47.28172" lon="1.11243">
        <ele>84</ele>
        <time>2017-12-22T22:45:52Z</time>
      </trkpt>
      <trkpt lat="47.28134" lon="1.11235">
        <ele>86</ele>
        <time>2017-12-22T22:46:52Z</time>
      </trkpt>
      <trkpt lat="47.28103" lon="1.11211">
        <ele>88</ele>
        <time>2017-12-22T22:47:52Z</time>
      </trkpt>
      <trkpt lat="47.28102" lon="1.11235">
        <ele>87</ele>
        <time>2017-12-22T22:48:52Z</time>
      </trkpt>
      <trkpt lat="47.28077" lon="1.11254">
        <ele>87</ele>
        <time>2017-12-22T22:49:52Z</time>
      </trkpt>
      <trkpt lat="47.28051" lon="1.1126">
        <ele>86</ele>
        <time>2017-12-22T22:50:52Z</time>
      </trkpt>
      <trkpt lat="47.28023" lon="1.11278">
        <ele>86</ele>
        <time>2017-12-22T22:51:52Z</time>
      </trkpt>
      <trkpt lat="47.28025" lon="1.11321">
        <ele>84</ele>
        <time>2017-12-22T22:52:52Z</time>
      </trkpt>
      <trkpt lat="47.28033" lon="1.11503">
        <ele>84</ele>
        <time>2017-12-22T22:53:52Z</time>
      </trkpt>
      <trkpt lat="47.28019" lon="1.11563">
        <ele>88</ele>
        <time>2017-12-22T22:54:52Z</time>
      </trkpt>
      <trkpt lat="47.27997" lon="1.11617">
        <ele>90</ele>
        <time>2017-12-22T22:55:52Z</time>
      </trkpt>
      <trkpt lat="47.27949" lon="1.11657">
        <ele>88</ele>
        <time>2017-12-22T22:56:52Z</time>
      </trkpt>
      <trkpt lat="47.27876" lon="1.11677">
        <ele>85</ele>
        <time>2017-12-22T22:57:52Z</time>
      </trkpt>
      <trkpt lat="47.27799" lon="1.11703">
        <ele>85</ele>
        <time>2017-12-22T22:58:52Z</time>
      </trkpt>
      <trkpt lat="47.27773" lon="1.11775">
        <ele>92</ele>
        <time>2017-12-22T22:59:52Z</time>
      </trkpt>
      <trkpt lat="47.27767" lon="1.11821">
        <ele>96</ele>
        <time>2017-12-22T23:00:52Z</time>
      </trkpt>
      <trkpt lat="47.27761" lon="1.11872">
        <ele>98</ele>
        <time>2017-12-22T23:01:52Z</time>
      </trkpt>
      <trkpt lat="47.27751" lon="1.11928">
        <ele>99</ele>
        <time>2017-12-22T23:02:52Z</time>
      </trkpt>
      <trkpt lat="47.27758" lon="1.11969">
        <ele>101</ele>
        <time>2017-12-22T23:03:52Z</time>
      </trkpt>
      <trkpt lat="47.27795" lon="1.12018">
        <ele>106</ele>
        <time>2017-12-22T23:04:52Z</time>
      </trkpt>
      <trkpt lat="47.27835" lon="1.12067">
        <ele>107</ele>
        <time>2017-12-22T23:05:52Z</time>
      </trkpt>
      <trkpt lat="47.2787" lon="1.12125">
        <ele>110</ele>
        <time>2017-12-22T23:06:52Z</time>
      </trkpt>
      <trkpt lat="47.27914" lon="1.12183">
        <ele>111</ele>
        <time>2017-12-22T23:07:52Z</time>
      </trkpt>
      <trkpt lat="47.27945" lon="1.1229">
        <ele>114</ele>
        <time>2017-12-22T23:08:52Z</time>
      </trkpt>
      <trkpt lat="47.27958" lon="1.1237">
        <ele>115</ele>
        <time>2017-12-22T23:09:52Z</time>
      </trkpt>
      <trkpt lat="47.27972" lon="1.12447">
        <ele>118</ele>
        <time>2017-12-22T23:10:52Z</time>
      </trkpt>
      <trkpt lat="47.27985" lon="1.12524">
        <ele>118</ele>
        <time>2017-12-22T23:11:52Z</time>
      </trkpt>
      <trkpt lat="47.28016" lon="1.12629">
        <ele>119</ele>
        <time>2017-12-22T23:12:52Z</time>
      </trkpt>
      <trkpt lat="47.28029" lon="1.12705">
        <ele>120</ele>
        <time>2017-12-22T23:13:52Z</time>
      </trkpt>
      <trkpt lat="47.27997" lon="1.1275">
        <ele>120</ele>
        <time>2017-12-22T23:14:52Z</time>
      </trkpt>
      <trkpt lat="47.27978" lon="1.12797">
        <ele>120</ele>
        <time>2017-12-22T23:15:52Z</time>
      </trkpt>
      <trkpt lat="47.27904" lon="1.12973">
        <ele>125</ele>
        <time>2017-12-22T23:16:52Z</time>
      </trkpt>
      <trkpt lat="47.27838" lon="1.13172">
        <ele>128</ele>
        <time>2017-12-22T23:17:52Z</time>
      </trkpt>
      <trkpt lat="47.27713" lon="1.13127">
        <ele>124</ele>
        <time>2017-12-22T23:18:52Z</time>
      </trkpt>
      <trkpt lat="47.27664" lon="1.13123">
        <ele>121</ele>
        <time>2017-12-22T23:19:52Z</time>
      </trkpt>
      <trkpt lat="47.27617" lon="1.13117">
        <ele>118</ele>
        <time>2017-12-22T23:20:52Z</time>
      </trkpt>
      <trkpt lat="47.27549" lon="1.13091">
        <ele>114</ele>
        <time>2017-12-22T23:21:52Z</time>
      </trkpt>
      <trkpt lat="47.2749" lon="1.13054">
        <ele>110</ele>
        <time>2017-12-22T23:22:52Z</time>
      </trkpt>
      <trkpt lat="47.27439" lon="1.13024">
        <ele>110</ele>
        <time>2017-12-22T23:23:52Z</time>
      </trkpt>
      <trkpt lat="47.27397" lon="1.13018">
        <ele>111</ele>
        <time>2017-12-22T23:24:52Z</time>
      </trkpt>
      <trkpt lat="47.27346" lon="1.13009">
        <ele>115</ele>
        <time>2017-12-22T23:25:52Z</time>
      </trkpt>
      <trkpt lat="47.27286" lon="1.13056">
        <ele>119</ele>
        <time>2017-12-22T23:26:52Z</time>
      </trkpt>
      <trkpt lat="47.27241" lon="1.13093">
        <ele>120</ele>
        <time>2017-12-22T23:27:52Z</time>
      </trkpt>
      <trkpt lat="47.27182" lon="1.13129">
        <ele>122</ele>
        <time>2017-12-22T23:28:52Z</time>
      </trkpt>
      <trkpt lat="47.27102" lon="1.13168">
        <ele>125</ele>
        <time>2017-12-22T23:29:52Z</time>
      </trkpt>
      <trkpt lat="47.27024" lon="1.13269">
        <ele>122</ele>
        <time>2017-12-22T23:30:52Z</time>
      </trkpt>
      <trkpt lat="47.27001" lon="1.13014">
        <ele>123</ele>
        <time>2017-12-22T23:31:52Z</time>
      </trkpt>
      <trkpt lat="47.27017" lon="1.12921">
        <ele>124</ele>
        <time>2017-12-22T23:32:52Z</time>
      </trkpt>
      <trkpt lat="47.2703" lon="1.12818">
        <ele>123</ele>
        <time>2017-12-22T23:33:52Z</time>
      </trkpt>
      <trkpt lat="47.27036" lon="1.12677">
        <ele>119</ele>
        <time>2017-12-22T23:34:52Z</time>
      </trkpt>
      <trkpt lat="47.27008" lon="1.12591">
        <ele>116</ele>
        <time>2017-12-22T23:35:52Z</time>
      </trkpt>
      <trkpt lat="47.26981" lon="1.12522">
        <ele>114</ele>
        <time>2017-12-22T23:36:52Z</time>
      </trkpt>
      <trkpt lat="47.26973" lon="1.12456">
        <ele>113</ele>
        <time>2017-12-22T23:37:52Z</time>
      </trkpt>
      <trkpt lat="47.26939" lon="1.12361">
        <ele>110</ele>
        <time>2017-12-22T23:38:52Z</time>
      </trkpt>
      <trkpt lat="47.26893" lon="1.12271">
        <ele>109</ele>
        <time>2017-12-22T23:39:52Z</time>
      </trkpt>
      <trkpt lat="47.26853" lon="1.12187">
        <ele>102</ele>
        <time>2017-12-22T23:40:52Z</time>
      </trkpt>
      <trkpt lat="47.26805" lon="1.12136">
        <ele>92</ele>
        <time>2017-12-22T23:41:52Z</time>
      </trkpt>
      <trkpt lat="47.26754" lon="1.12157">
        <ele>90</ele>
        <time>2017-12-22T23:42:52Z</time>
      </trkpt>
      <trkpt lat="47.26703" lon="1.12194">
        <ele>90</ele>
        <time>2017-12-22T23:43:52Z</time>
      </trkpt>
      <trkpt lat="47.26655" lon="1.12245">
        <ele>90</ele>
        <time>2017-12-22T23:44:52Z</time>
      </trkpt>
      <trkpt lat="47.26627" lon="1.12359">
        <ele>94</ele>
        <time>2017-12-22T23:45:52Z</time>
      </trkpt>
      <trkpt lat="47.26596" lon="1.12456">
        <ele>94</ele>
        <time>2017-12-22T23:46:52Z</time>
      </trkpt>
      <trkpt lat="47.2657" lon="1.12511">
        <ele>94</ele>
        <time>2017-12-22T23:47:52Z</time>
      </trkpt>
      <trkpt lat="47.26529" lon="1.12567">
        <ele>96</ele>
        <time>2017-12-22T23:48:52Z</time>
      </trkpt>
      <trkpt lat="47.26489" lon="1.12595">
        <ele>94</ele>
        <time>2017-12-22T23:49:52Z</time>
      </trkpt>
      <trkpt lat="47.26435" lon="1.1261">
        <ele>89</ele>
        <time>2017-12-22T23:50:52Z</time>
      </trkpt>
      <trkpt lat="47.26411" lon="1.12587">
        <ele>86</ele>
        <time>2017-12-22T23:51:52Z</time>
      </trkpt>
      <trkpt lat="47.26378" lon="1.12589">
        <ele>86</ele>
        <time>2017-12-22T23:52:52Z</time>
      </trkpt>
      <trkpt lat="47.26346" lon="1.12625">
        <ele>88</ele>
        <time>2017-12-22T23:53:52Z</time>
      </trkpt>
      <trkpt lat="47.26309" lon="1.12653">
        <ele>92</ele>
        <time>2017-12-22T23:54:52Z</time>
      </trkpt>
      <trkpt lat="47.26269" lon="1.12662">
        <ele>94</ele>
        <time>2017-12-22T23:55:52Z</time>
      </trkpt>
      <trkpt lat="47.26208" lon="1.1266">
        <ele>92</ele>
        <time>2017-12-22T23:56:52Z</time>
      </trkpt>
      <trkpt lat="47.2617" lon="1.1269">
        <ele>92</ele>
        <time>2017-12-22T23:57:52Z</time>
      </trkpt>
      <trkpt lat="47.26012" lon="1.12778">
        <ele>91</ele>
        <time>2017-12-22T23:58:52Z</time>
      </trkpt>
      <trkpt lat="47.25985" lon="1.12872">
        <ele>92</ele>
        <time>2017-12-22T23:59:52Z</time>
      </trkpt>
      <trkpt lat="47.2595" lon="1.12848">
        <ele>90</ele>
        <time>2017-12-23T00:00:52Z</time>
      </trkpt>
      <trkpt lat="47.25915" lon="1.12786">
        <ele>91</ele>
        <time>2017-12-23T00:01:52Z</time>
      </trkpt>
      <trkpt lat="47.25884" lon="1.1284">
        <ele>89</ele>
        <time>2017-12-23T00:02:52Z</time>
      </trkpt>
      <trkpt lat="47.25682" lon="1.13059">
        <ele>101</ele>
        <time>2017-12-23T00:03:52Z</time>
      </trkpt>
      <trkpt lat="47.25675" lon="1.13031">
        <ele>102</ele>
        <time>2017-12-23T00:04:52Z</time>
      </trkpt>
      <trkpt lat="47.25653" lon="1.13026">
        <ele>105</ele>
        <time>2017-12-23T00:05:52Z</time>
      </trkpt>
      <trkpt lat="47.25597" lon="1.13056">
        <ele>112</ele>
        <time>2017-12-23T00:06:52Z</time>
      </trkpt>
      <trkpt lat="47.25529" lon="1.13104">
        <ele>112</ele>
        <time>2017-12-23T00:07:52Z</time>
      </trkpt>
      <trkpt lat="47.25443" lon="1.13121">
        <ele>114</ele>
        <time>2017-12-23T00:08:52Z</time>
      </trkpt>
      <trkpt lat="47.25417" lon="1.13121">
        <ele>114</ele>
        <time>2017-12-23T00:09:52Z</time>
      </trkpt>
      <trkpt lat="47.25383" lon="1.13108">
        <ele>114</ele>
        <time>2017-12-23T00:10:52Z</time>
      </trkpt>
      <trkpt lat="47.2529" lon="1.13056">
        <ele>122</ele>
        <time>2017-12-23T00:11:52Z</time>
      </trkpt>
      <trkpt lat="47.25275" lon="1.13162">
        <ele>122</ele>
        <time>2017-12-23T00:12:52Z</time>
      </trkpt>
      <trkpt lat="47.25283" lon="1.13265">
        <ele>120</ele>
        <time>2017-12-23T00:13:52Z</time>
      </trkpt>
      <trkpt lat="47.25271" lon="1.1331">
        <ele>120</ele>
        <time>2017-12-23T00:14:52Z</time>
      </trkpt>
      <trkpt lat="47.25252" lon="1.13374">
        <ele>118</ele>
        <time>2017-12-23T00:15:52Z</time>
      </trkpt>
      <trkpt lat="47.25243" lon="1.13477">
        <ele>110</ele>
        <time>2017-12-23T00:16:52Z</time>
      </trkpt>
      <trkpt lat="47.2523" lon="1.13565">
        <ele>105</ele>
        <time>2017-12-23T00:17:52Z</time>
      </trkpt>
      <trkpt lat="47.25235" lon="1.13627">
        <ele>103</ele>
        <time>2017-12-23T00:18:52Z</time>
      </trkpt>
      <trkpt lat="47.25251" lon="1.13702">
        <ele>99</ele>
        <time>2017-12-23T00:19:52Z</time>
      </trkpt>
      <trkpt lat="47.25204" lon="1.13797">
        <ele>98</ele>
        <time>2017-12-23T00:20:52Z</time>
      </trkpt>
      <trkpt lat="47.25128" lon="1.13689">
        <ele>105</ele>
        <time>2017-12-23T00:21:52Z</time>
      </trkpt>
      <trkpt lat="47.25096" lon="1.13623">
        <ele>109</ele>
        <time>2017-12-23T00:22:52Z</time>
      </trkpt>
      <trkpt lat="47.25076" lon="1.13571">
        <ele>112</ele>
        <time>2017-12-23T00:23:52Z</time>
      </trkpt>
      <trkpt lat="47.2505" lon="1.13561">
        <ele>114</ele>
        <time>2017-12-23T00:24:52Z</time>
      </trkpt>
      <trkpt lat="47.25016" lon="1.13582">
        <ele>114</ele>
        <time>2017-12-23T00:25:52Z</time>
      </trkpt>
      <trkpt lat="47.24981" lon="1.13614">
        <ele>115</ele>
        <time>2017-12-23T00:26:52Z</time>
      </trkpt>
      <trkpt lat="47.24906" lon="1.13672">
        <ele>116</ele>
        <time>2017-12-23T00:27:52Z</time>
      </trkpt>
      <trkpt lat="47.24852" lon="1.13765">
        <ele>111</ele>
        <time>2017-12-23T00:28:52Z</time>
      </trkpt>
      <trkpt lat="47.24821" lon="1.13795">
        <ele>110</ele>
        <time>2017-12-23T00:29:52Z</time>
      </trkpt>
      <trkpt lat="47.24776" lon="1.13808">
        <ele>110</ele>
        <time>2017-12-23T00:30:52Z</time>
      </trkpt>
      <trkpt lat="47.24742" lon="1.13904">
        <ele>107</ele>
        <time>2017-12-23T00:31:52Z</time>
      </trkpt>
      <trkpt lat="47.24712" lon="1.13956">
        <ele>104</ele>
        <time>2017-12-23T00:32:52Z</time>
      </trkpt>
      <trkpt lat="47.24684" lon="1.14001">
        <ele>101</ele>
        <time>2017-12-23T00:33:52Z</time>
      </trkpt>
      <trkpt lat="47.24633" lon="1.14007">
        <ele>102</ele>
        <time>2017-12-23T00:34:52Z</time>
      </trkpt>
      <trkpt lat="47.24591" lon="1.14016">
        <ele>104</ele>
        <time>2017-12-23T00:35:52Z</time>
      </trkpt>
      <trkpt lat="47.24582" lon="1.14093">
        <ele>104</ele>
        <time>2017-12-23T00:36:52Z</time>
      </trkpt>
      <trkpt lat="47.24696" lon="1.14241">
        <ele>113</ele>
        <time>2017-12-23T00:37:52Z</time>
      </trkpt>
      <trkpt lat="47.24728" lon="1.14265">
        <ele>113</ele>
        <time>2017-12-23T00:38:52Z</time>
      </trkpt>
      <trkpt lat="47.24763" lon="1.14295">
        <ele>114</ele>
        <time>2017-12-23T00:39:52Z</time>
      </trkpt>
      <trkpt lat="47.24753" lon="1.14322">
        <ele>118</ele>
        <time>2017-12-23T00:40:52Z</time>
      </trkpt>
      <trkpt lat="47.24646" lon="1.14432">
        <ele>127</ele>
        <time>2017-12-23T00:41:52Z</time>
      </trkpt>
      <trkpt lat="47.24658" lon="1.14458">
        <ele>128</ele>
        <time>2017-12-23T00:42:52Z</time>
      </trkpt>
      <trkpt lat="47.24649" lon="1.1458">
        <ele>130</ele>
        <time>2017-12-23T00:43:52Z</time>
      </trkpt>
      <trkpt lat="47.24658" lon="1.14662">
        <ele>129</ele>
        <time>2017-12-23T00:44:52Z</time>
      </trkpt>
      <trkpt lat="47.24655" lon="1.14694">
        <ele>128</ele>
        <time>2017-12-23T00:45:52Z</time>
      </trkpt>
      <trkpt lat="47.24659" lon="1.14747">
        <ele>126</ele>
        <time>2017-12-23T00:46:52Z</time>
      </trkpt>
      <trkpt lat="47.24658" lon="1.1482">
        <ele>124</ele>
        <time>2017-12-23T00:47:52Z</time>
      </trkpt>
      <trkpt lat="47.24639" lon="1.14887">
        <ele>123</ele>
        <time>2017-12-23T00:48:52Z</time>
      </trkpt>
      <trkpt lat="47.24629" lon="1.14915">
        <ele>123</ele>
        <time>2017-12-23T00:49:52Z</time>
      </trkpt>
      <trkpt lat="47.2461" lon="1.14947">
        <ele>123</ele>
        <time>2017-12-23T00:50:52Z</time>
      </trkpt>
      <trkpt lat="47.24588" lon="1.1499">
        <ele>122</ele>
        <time>2017-12-23T00:51:52Z</time>
      </trkpt>
      <trkpt lat="47.24578" lon="1.15082">
        <ele>122</ele>
        <time>2017-12-23T00:52:52Z</time>
      </trkpt>
      <trkpt lat="47.24549" lon="1.15129">
        <ele>122</ele>
        <time>2017-12-23T00:53:52Z</time>
      </trkpt>
      <trkpt lat="47.24537" lon="1.15155">
        <ele>121</ele>
        <time>2017-12-23T00:54:52Z</time>
      </trkpt>
      <trkpt lat="47.24528" lon="1.15217">
        <ele>118</ele>
        <time>2017-12-23T00:55:52Z</time>
      </trkpt>
      <trkpt lat="47.24512" lon="1.15329">
        <ele>116</ele>
        <time>2017-12-23T00:56:52Z</time>
      </trkpt>
      <trkpt lat="47.24557" lon="1.15423">
        <ele>115</ele>
        <time>2017-12-23T00:57:52Z</time>
      </trkpt>
      <trkpt lat="47.24565" lon="1.15496">
        <ele>114</ele>
        <time>2017-12-23T00:58:52Z</time>
      </trkpt>
      <trkpt lat="47.24559" lon="1.15543">
        <ele>114</ele>
        <time>2017-12-23T00:59:52Z</time>
      </trkpt>
      <trkpt lat="47.24533" lon="1.15591">
        <ele>115</ele>
        <time>2017-12-23T01:00:52Z</time>
      </trkpt>
      <trkpt lat="47.24499" lon="1.15651">
        <ele>115</ele>
        <time>2017-12-23T01:01:52Z</time>
      </trkpt>
      <trkpt lat="47.24511" lon="1.15676">
        <ele>114</ele>
        <time>2017-12-23T01:02:52Z</time>
      </trkpt>
      <trkpt lat="47.24547" lon="1.15676">
        <ele>113</ele>
        <time>2017-12-23T01:03:52Z</time>
      </trkpt>
      <trkpt lat="47.2456" lon="1.15713">
        <ele>115</ele>
        <time>2017-12-23T01:04:52Z</time>
      </trkpt>
      <trkpt lat="47.24611" lon="1.15797">
        <ele>123</ele>
        <time>2017-12-23T01:05:52Z</time>
      </trkpt>
      <trkpt lat="47.24656" lon="1.15816">
        <ele>123</ele>
        <time>2017-12-23T01:06:52Z</time>
      </trkpt>
      <trkpt lat="47.24702" lon="1.15876">
        <ele>127</ele>
        <time>2017-12-23T01:07:52Z</time>
      </trkpt>
      <trkpt lat="47.24763" lon="1.15973">
        <ele>133</ele>
        <time>2017-12-23T01:08:52Z</time>
      </trkpt>
      <trkpt lat="47.24795" lon="1.16026">
        <ele>135</ele>
        <time>2017-12-23T01:09:52Z</time>
      </trkpt>
      <trkpt lat="47.24849" lon="1.16121">
        <ele>139</ele>
        <time>2017-12-23T01:10:52Z</time>
      </trkpt>
      <trkpt lat="47.24885" lon="1.16183">
        <ele>143</ele>
        <time>2017-12-23T01:11:52Z</time>
      </trkpt>
      <trkpt lat="47.24885" lon="1.16217">
        <ele>144</ele>
        <time>2017-12-23T01:12:52Z</time>
      </trkpt>
      <trkpt lat="47.25018" lon="1.16252">
        <ele>142</ele>
        <time>2017-12-23T01:13:52Z</time>
      </trkpt>
      <trkpt lat="47.25133" lon="1.16202">
        <ele>140</ele>
        <time>2017-12-23T01:14:52Z</time>
      </trkpt>
      <trkpt lat="47.25108" lon="1.16402">
        <ele>138</ele>
        <time>2017-12-23T01:15:52Z</time>
      </trkpt>
      <trkpt lat="47.25117" lon="1.16438">
        <ele>138</ele>
        <time>2017-12-23T01:16:52Z</time>
      </trkpt>
      <trkpt lat="47.25628" lon="1.16743">
        <ele>119</ele>
        <time>2017-12-23T01:17:52Z</time>
      </trkpt>
      <trkpt lat="47.25638" lon="1.16792">
        <ele>118</ele>
        <time>2017-12-23T01:18:52Z</time>
      </trkpt>
      <trkpt lat="47.25667" lon="1.16831">
        <ele>117</ele>
        <time>2017-12-23T01:19:52Z</time>
      </trkpt>
      <trkpt lat="47.25707" lon="1.16854">
        <ele>117</ele>
        <time>2017-12-23T01:20:52Z</time>
      </trkpt>
      <trkpt lat="47.25733" lon="1.16859">
        <ele>116</ele>
        <time>2017-12-23T01:21:52Z</time>
      </trkpt>
      <trkpt lat="47.25782" lon="1.1687">
        <ele>113</ele>
        <time>2017-12-23T01:22:52Z</time>
      </trkpt>
      <trkpt lat="47.2581" lon="1.16833">
        <ele>109</ele>
        <time>2017-12-23T01:23:52Z</time>
      </trkpt>
      <trkpt lat="47.25794" lon="1.16945">
        <ele>115</ele>
        <time>2017-12-23T01:24:52Z</time>
      </trkpt>
      <trkpt lat="47.25721" lon="1.17445">
        <ele>112</ele>
        <time>2017-12-23T01:25:52Z</time>
      </trkpt>
      <trkpt lat="47.25701" lon="1.1756">
        <ele>112</ele>
        <time>2017-12-23T01:26:52Z</time>
      </trkpt>
      <trkpt lat="47.25727" lon="1.17593">
        <ele>111</ele>
        <time>2017-12-23T01:27:52Z</time>
      </trkpt>
      <trkpt lat="47.25739" lon="1.17629">
        <ele>110</ele>
        <time>2017-12-23T01:28:52Z</time>
      </trkpt>
      <trkpt lat="47.25758" lon="1.17711">
        <ele>110</ele>
        <time>2017-12-23T01:29:52Z</time>
      </trkpt>
      <trkpt lat="47.2576" lon="1.17775">
        <ele>112</ele>
        <time>2017-12-23T01:30:52Z</time>
      </trkpt>
      <trkpt lat="47.25774" lon="1.17839">
        <ele>115</ele>
        <time>2017-12-23T01:31:52Z</time>
      </trkpt>
      <trkpt lat="47.2581" lon="1.17919">
        <ele>114</ele>
        <time>2017-12-23T01:32:52Z</time>
      </trkpt>
      <trkpt lat="47.25829" lon="1.17987">
        <ele>112</ele>
        <time>2017-12-23T01:33:52Z</time>
      </trkpt>
      <trkpt lat="47.2583" lon="1.18035">
        <ele>115</ele>
        <time>2017-12-23T01:34:52Z</time>
      </trkpt>
      <trkpt lat="47.25857" lon="1.18071">
        <ele>117</ele>
        <time>2017-12-23T01:35:52Z</time>
      </trkpt>
      <trkpt lat="47.25905" lon="1.18116">
        <ele>117</ele>
        <time>2017-12-23T01:36:52Z</time>
      </trkpt>
      <trkpt lat="47.25944" lon="1.18176">
        <ele>118</ele>
        <time>2017-12-23T01:37:52Z</time>
      </trkpt>
      <trkpt lat="47.25992" lon="1.18309">
        <ele>118</ele>
        <time>2017-12-23T01:38:52Z</time>
      </trkpt>
      <trkpt lat="47.25998" lon="1.18376">
        <ele>119</ele>
        <time>2017-12-23T01:39:52Z</time>
      </trkpt>
      <trkpt lat="47.26015" lon="1.18429">
        <ele>121</ele>
        <time>2017-12-23T01:40:52Z</time>
      </trkpt>
      <trkpt lat="47.26002" lon="1.18509">
        <ele>125</ele>
        <time>2017-12-23T01:41:52Z</time>
      </trkpt>
      <trkpt lat="47.26007" lon="1.18569">
        <ele>125</ele>
        <time>2017-12-23T01:42:52Z</time>
      </trkpt>
      <trkpt lat="47.26005" lon="1.18631">
        <ele>128</ele>
        <time>2017-12-23T01:43:52Z</time>
      </trkpt>
      <trkpt lat="47.25993" lon="1.18678">
        <ele>130</ele>
        <time>2017-12-23T01:44:52Z</time>
      </trkpt>
      <trkpt lat="47.25975" lon="1.18732">
        <ele>131</ele>
        <time>2017-12-23T01:45:52Z</time>
      </trkpt>
      <trkpt lat="47.25938" lon="1.18719">
        <ele>133</ele>
        <time>2017-12-23T01:46:52Z</time>
      </trkpt>
      <trkpt lat="47.25916" lon="1.18781">
        <ele>133</ele>
        <time>2017-12-23T01:47:52Z</time>
      </trkpt>
      <trkpt lat="47.25938" lon="1.1888">
        <ele>127</ele>
        <time>2017-12-23T01:48:52Z</time>
      </trkpt>
      <trkpt lat="47.25954" lon="1.18955">
        <ele>123</ele>
        <time>2017-12-23T01:49:52Z</time>
      </trkpt>
      <trkpt lat="47.25953" lon="1.18992">
        <ele>122</ele>
        <time>2017-12-23T01:50:52Z</time>
      </trkpt>
      <trkpt lat="47.26014" lon="1.19041">
        <ele>123</ele>
        <time>2017-12-23T01:51:52Z</time>
      </trkpt>
      <trkpt lat="47.26036" lon="1.19103">
        <ele>127</ele>
        <time>2017-12-23T01:52:52Z</time>
      </trkpt>
      <trkpt lat="47.26018" lon="1.1915">
        <ele>130</ele>
        <time>2017-12-23T01:53:52Z</time>
      </trkpt>
      <trkpt lat="47.26042" lon="1.19301">
        <ele>135</ele>
        <time>2017-12-23T01:54:52Z</time>
      </trkpt>
      <trkpt lat="47.25938" lon="1.19341">
        <ele>132</ele>
        <time>2017-12-23T01:55:52Z</time>
      </trkpt>
      <trkpt lat="47.25921" lon="1.19371">
        <ele>130</ele>
        <time>2017-12-23T01:56:52Z</time>
      </trkpt>
      <trkpt lat="47.25909" lon="1.19423">
        <ele>129</ele>
        <time>2017-12-23T01:57:52Z</time>
      </trkpt>
      <trkpt lat="47.25886" lon="1.19468">
        <ele>130</ele>
        <time>2017-12-23T01:58:52Z</time>
      </trkpt>
      <trkpt lat="47.25881" lon="1.19522">
        <ele>131</ele>
        <time>2017-12-23T01:59:52Z</time>
      </trkpt>
      <trkpt lat="47.25873" lon="1.19597">
        <ele>132</ele>
        <time>2017-12-23T02:00:52Z</time>
      </trkpt>
      <trkpt lat="47.25859" lon="1.19678">
        <ele>134</ele>
        <time>2017-12-23T02:01:52Z</time>
      </trkpt>
      <trkpt lat="47.25861" lon="1.19723">
        <ele>134</ele>
        <time>2017-12-23T02:02:52Z</time>
      </trkpt>
      <trkpt lat="47.25865" lon="1.19798">
        <ele>134</ele>
        <time>2017-12-23T02:03:52Z</time>
      </trkpt>
      <trkpt lat="47.25816" lon="1.19972">
        <ele>137</ele>
        <time>2017-12-23T02:04:52Z</time>
      </trkpt>
      <trkpt lat="47.25832" lon="1.2015">
        <ele>134</ele>
        <time>2017-12-23T02:05:52Z</time>
      </trkpt>
      <trkpt lat="47.25822" lon="1.20251">
        <ele>135</ele>
        <time>2017-12-23T02:06:52Z</time>
      </trkpt>
      <trkpt lat="47.25747" lon="1.20466">
        <ele>137</ele>
        <time>2017-12-23T02:07:52Z</time>
      </trkpt>
      <trkpt lat="47.25545" lon="1.20805">
        <ele>139</ele>
        <time>2017-12-23T02:08:52Z</time>
      </trkpt>
      <trkpt lat="47.25414" lon="1.20629">
        <ele>142</ele>
        <time>2017-12-23T02:09:52Z</time>
      </trkpt>
      <trkpt lat="47.25187" lon="1.20822">
        <ele>149</ele>
        <time>2017-12-23T02:10:52Z</time>
      </trkpt>
      <trkpt lat="47.25169" lon="1.20796">
        <ele>150</ele>
        <time>2017-12-23T02:11:52Z</time>
      </trkpt>
      <trkpt lat="47.25146" lon="1.20805">
        <ele>150</ele>
        <time>2017-12-23T02:12:52Z</time>
      </trkpt>
      <trkpt lat="47.25124" lon="1.20798">
        <ele>150</ele>
        <time>2017-12-23T02:13:52Z</time>
      </trkpt>
      <trkpt lat="47.25037" lon="1.20861">
        <ele>152</ele>
        <time>2017-12-23T02:14:52Z</time>
      </trkpt>
      <trkpt lat="47.25018" lon="1.20895">
        <ele>154</ele>
        <time>2017-12-23T02:15:52Z</time>
      </trkpt>
      <trkpt lat="47.2499" lon="1.20874">
        <ele>153</ele>
        <time>2017-12-23T02:16:52Z</time>
      </trkpt>
      <trkpt lat="47.24968" lon="1.2091">
        <ele>155</ele>
        <time>2017-12-23T02:17:52Z</time>
      </trkpt>
      <trkpt lat="47.24885" lon="1.20994">
        <ele>157</ele>
        <time>2017-12-23T02:18:52Z</time>
      </trkpt>
      <trkpt lat="47.24844" lon="1.21022">
        <ele>158</ele>
        <time>2017-12-23T02:19:52Z</time>
      </trkpt>
      <trkpt lat="47.2476" lon="1.20893">
        <ele>157</ele>
        <time>2017-12-23T02:20:52Z</time>
      </trkpt>
      <trkpt lat="47.24741" lon="1.20863">
        <ele>156</ele>
        <time>2017-12-23T02:21:52Z</time>
      </trkpt>
      <trkpt lat="47.24678" lon="1.20983">
        <ele>159</ele>
        <time>2017-12-23T02:22:52Z</time>
      </trkpt>
      <trkpt lat="47.24562" lon="1.21097">
        <ele>159</ele>
        <time>2017-12-23T02:23:52Z</time>
      </trkpt>
      <trkpt lat="47.24522" lon="1.21135">
        <ele>158</ele>
        <time>2017-12-23T02:24:52Z</time>
      </trkpt>
      <trkpt lat="47.24436" lon="1.21157">
        <ele>156</ele>
        <time>2017-12-23T02:25:52Z</time>
      </trkpt>
      <trkpt lat="47.24365" lon="1.2117">
        <ele>154</ele>
        <time>2017-12-23T02:26:52Z</time>
      </trkpt>
      <trkpt lat="47.24311" lon="1.21191">
        <ele>153</ele>
        <time>2017-12-23T02:27:52Z</time>
      </trkpt>
      <trkpt lat="47.24268" lon="1.21234">
        <ele>152</ele>
        <time>2017-12-23T02:28:52Z</time>
      </trkpt>
      <trkpt lat="47.2423" lon="1.21281">
        <ele>151</ele>
        <time>2017-12-23T02:29:52Z</time>
      </trkpt>
      <trkpt lat="47.24155" lon="1.21386">
        <ele>149</ele>
        <time>2017-12-23T02:30:52Z</time>
      </trkpt>
      <trkpt lat="47.24117" lon="1.21423">
        <ele>148</ele>
        <time>2017-12-23T02:31:52Z</time>
      </trkpt>
      <trkpt lat="47.24058" lon="1.21492">
        <ele>146</ele>
        <time>2017-12-23T02:32:52Z</time>
      </trkpt>
      <trkpt lat="47.23995" lon="1.21543">
        <ele>144</ele>
        <time>2017-12-23T02:33:52Z</time>
      </trkpt>
      <trkpt lat="47.23956" lon="1.21592">
        <ele>144</ele>
        <time>2017-12-23T02:34:52Z</time>
      </trkpt>
      <trkpt lat="47.23919" lon="1.21618">
        <ele>144</ele>
        <time>2017-12-23T02:35:52Z</time>
      </trkpt>
      <trkpt lat="47.23881" lon="1.21685">
        <ele>145</ele>
        <time>2017-12-23T02:36:52Z</time>
      </trkpt>
      <trkpt lat="47.23836" lon="1.21749">
        <ele>144</ele>
        <time>2017-12-23T02:37:52Z</time>
      </trkpt>
      <trkpt lat="47.23793" lon="1.21779">
        <ele>143</ele>
        <time>2017-12-23T02:38:52Z</time>
      </trkpt>
      <trkpt lat="47.23762" lon="1.21813">
        <ele>142</ele>
        <time>2017-12-23T02:39:52Z</time>
      </trkpt>
      <trkpt lat="47.23743" lon="1.21807">
        <ele>142</ele>
        <time>2017-12-23T02:40:52Z</time>
      </trkpt>
      <trkpt lat="47.23733" lon="1.21843">
        <ele>141</ele>
        <time>2017-12-23T02:41:52Z</time>
      </trkpt>
      <trkpt lat="47.23714" lon="1.21899">
        <ele>140</ele>
        <time>2017-12-23T02:42:52Z</time>
      </trkpt>
      <trkpt lat="47.23667" lon="1.21964">
        <ele>138</ele>
        <time>2017-12-23T02:43:52Z</time>
      </trkpt>
      <trkpt lat="47.23663" lon="1.22002">
        <ele>138</ele>
        <time>2017-12-23T02:44:52Z</time>
      </trkpt>
      <trkpt lat="47.23645" lon="1.22037">
        <ele>137</ele>
        <time>2017-12-23T02:45:52Z</time>
      </trkpt>
      <trkpt lat="47.23647" lon="1.2209">
        <ele>136</ele>
        <time>2017-12-23T02:46:52Z</time>
      </trkpt>
      <trkpt lat="47.23619" lon="1.2229">
        <ele>132</ele>
        <time>2017-12-23T02:47:52Z</time>
      </trkpt>
      <trkpt lat="47.23609" lon="1.22391">
        <ele>134</ele>
        <time>2017-12-23T02:48:52Z</time>
      </trkpt>
      <trkpt lat="47.23586" lon="1.22569">
        <ele>141</ele>
        <time>2017-12-23T02:49:52Z</time>
      </trkpt>
      <trkpt lat="47.23565" lon="1.2268">
        <ele>143</ele>
        <time>2017-12-23T02:50:52Z</time>
      </trkpt>
      <trkpt lat="47.23562" lon="1.22747">
        <ele>142</ele>
        <time>2017-12-23T02:51:52Z</time>
      </trkpt>
      <trkpt lat="47.23546" lon="1.22807">
        <ele>142</ele>
        <time>2017-12-23T02:52:52Z</time>
      </trkpt>
      <trkpt lat="47.23463" lon="1.22996">
        <ele>140</ele>
        <time>2017-12-23T02:53:52Z</time>
      </trkpt>
      <trkpt lat="47.23449" lon="1.23054">
        <ele>138</ele>
        <time>2017-12-23T02:54:52Z</time>
      </trkpt>
      <trkpt lat="47.23441" lon="1.23191">
        <ele>134</ele>
        <time>2017-12-23T02:55:52Z</time>
      </trkpt>
      <trkpt lat="47.23441" lon="1.23414">
        <ele>129</ele>
        <time>2017-12-23T02:56:52Z</time>
      </trkpt>
      <trkpt lat="47.23342" lon="1.23406">
        <ele>130</ele>
        <time>2017-12-23T02:57:52Z</time>
      </trkpt>
      <trkpt lat="47.23305" lon="1.23386">
        <ele>132</ele>
        <time>2017-12-23T02:58:52Z</time>
      </trkpt>
      <trkpt lat="47.23259" lon="1.23391">
        <ele>133</ele>
        <time>2017-12-23T02:59:52Z</time>
      </trkpt>
      <trkpt lat="47.2316" lon="1.23401">
        <ele>134</ele>
        <time>2017-12-23T03:00:52Z</time>
      </trkpt>
      <trkpt lat="47.23103" lon="1.23425">
        <ele>131</ele>
        <time>2017-12-23T03:01:52Z</time>
      </trkpt>
      <trkpt lat="47.23061" lon="1.23444">
        <ele>129</ele>
        <time>2017-12-23T03:02:52Z</time>
      </trkpt>
      <trkpt lat="47.23023" lon="1.23453">
        <ele>126</ele>
        <time>2017-12-23T03:03:52Z</time>
      </trkpt>
      <trkpt lat="47.22987" lon="1.23451">
        <ele>125</ele>
        <time>2017-12-23T03:04:52Z</time>
      </trkpt>
      <trkpt lat="47.22969" lon="1.23556">
        <ele>122</ele>
        <time>2017-12-23T03:05:52Z</time>
      </trkpt>
      <trkpt lat="47.2295" lon="1.23687">
        <ele>121</ele>
        <time>2017-12-23T03:06:52Z</time>
      </trkpt>
      <trkpt lat="47.22939" lon="1.23749">
        <ele>123</ele>
        <time>2017-12-23T03:07:52Z</time>
      </trkpt>
      <trkpt lat="47.22889" lon="1.2377">
        <ele>123</ele>
        <time>2017-12-23T03:08:52Z</time>
      </trkpt>
      <trkpt lat="47.22822" lon="1.2379">
        <ele>124</ele>
        <time>2017-12-23T03:09:52Z</time>
      </trkpt>
      <trkpt lat="47.22768" lon="1.23813">
        <ele>129</ele>
        <time>2017-12-23T03:10:52Z</time>
      </trkpt>
      <trkpt lat="47.22659" lon="1.23856">
        <ele>136</ele>
        <time>2017-12-23T03:11:52Z</time>
      </trkpt>
      <trkpt lat="47.22639" lon="1.23852">
        <ele>135</ele>
        <time>2017-12-23T03:12:52Z</time>
      </trkpt>
      <trkpt lat="47.22602" lon="1.23848">
        <ele>135</ele>
        <time>2017-12-23T03:13:52Z</time>
      </trkpt>
      <trkpt lat="47.22551" lon="1.23878">
        <ele>133</ele>
        <time>2017-12-23T03:14:52Z</time>
      </trkpt>
      <trkpt lat="47.22526" lon="1.23942">
        <ele>131</ele>
        <time>2017-12-23T03:15:52Z</time>
      </trkpt>
      <trkpt lat="47.22494" lon="1.24041">
        <ele>128</ele>
        <time>2017-12-23T03:16:52Z</time>
      </trkpt>
      <trkpt lat="47.22499" lon="1.24105">
        <ele>126</ele>
        <time>2017-12-23T03:17:52Z</time>
      </trkpt>
      <trkpt lat="47.22522" lon="1.24135">
        <ele>126</ele>
        <time>2017-12-23T03:18:52Z</time>
      </trkpt>
      <trkpt lat="47.22547" lon="1.24154">
        <ele>127</ele>
        <time>2017-12-23T03:19:52Z</time>
      </trkpt>
      <trkpt lat="47.22583" lon="1.24124">
        <ele>129</ele>
        <time>2017-12-23T03:20:52Z</time>
      </trkpt>
      <trkpt lat="47.22617" lon="1.24103">
        <ele>130</ele>
        <time>2017-12-23T03:21:52Z</time>
      </trkpt>
      <trkpt lat="47.22695" lon="1.24193">
        <ele>128</ele>
        <time>2017-12-23T03:22:52Z</time>
      </trkpt>
      <trkpt lat="47.22738" lon="1.24214">
        <ele>127</ele>
        <time>2017-12-23T03:23:52Z</time>
      </trkpt>
      <trkpt lat="47.22695" lon="1.24332">
        <ele>124</ele>
        <time>2017-12-23T03:24:52Z</time>
      </trkpt>
      <trkpt lat="47.22541" lon="1.24573">
        <ele>131</ele>
        <time>2017-12-23T03:25:52Z</time>
      </trkpt>
      <trkpt lat="47.22486" lon="1.24657">
        <ele>135</ele>
        <time>2017-12-23T03:26:52Z</time>
      </trkpt>
      <trkpt lat="47.22538" lon="1.2471">
        <ele>136</ele>
        <time>2017-12-23T03:27:52Z</time>
      </trkpt>
      <trkpt lat="47.22577" lon="1.24753">
        <ele>138</ele>
        <time>2017-12-23T03:28:52Z</time>
      </trkpt>
      <trkpt lat="47.22601" lon="1.24787">
        <ele>139</ele>
        <time>2017-12-23T03:29:52Z</time>
      </trkpt>
      <trkpt lat="47.22588" lon="1.24815">
        <ele>140</ele>
        <time>2017-12-23T03:30:52Z</time>
      </trkpt>
      <trkpt lat="47.22576" lon="1.2486">
        <ele>141</ele>
        <time>2017-12-23T03:31:52Z</time>
      </trkpt>
      <trkpt lat="47.22585" lon="1.24903">
        <ele>140</ele>
        <time>2017-12-23T03:32:52Z</time>
      </trkpt>
      <trkpt lat="47.22576" lon="1.24946">
        <ele>139</ele>
        <time>2017-12-23T03:33:52Z</time>
      </trkpt>
      <trkpt lat="47.22534" lon="1.25099">
        <ele>134</ele>
        <time>2017-12-23T03:34:52Z</time>
      </trkpt>
      <trkpt lat="47.22518" lon="1.25146">
        <ele>133</ele>
        <time>2017-12-23T03:35:52Z</time>
      </trkpt>
      <trkpt lat="47.22459" lon="1.25219">
        <ele>130</ele>
        <time>2017-12-23T03:36:52Z</time>
      </trkpt>
      <trkpt lat="47.22382" lon="1.2532">
        <ele>124</ele>
        <time>2017-12-23T03:37:52Z</time>
      </trkpt>
      <trkpt lat="47.22286" lon="1.25444">
        <ele>121</ele>
        <time>2017-12-23T03:38:52Z</time>
      </trkpt>
      <trkpt lat="47.2215" lon="1.25635">
        <ele>130</ele>
        <time>2017-12-23T03:39:52Z</time>
      </trkpt>
      <trkpt lat="47.22051" lon="1.25762">
        <ele>137</ele>
        <time>2017-12-23T03:40:52Z</time>
      </trkpt>
      <trkpt lat="47.21898" lon="1.25959">
        <ele>142</ele>
        <time>2017-12-23T03:41:52Z</time>
      </trkpt>
      <trkpt lat="47.21859" lon="1.25877">
        <ele>141</ele>
        <time>2017-12-23T03:42:52Z</time>
      </trkpt>
      <trkpt lat="47.2184" lon="1.2583">
        <ele>141</ele>
        <time>2017-12-23T03:43:52Z</time>
      </trkpt>
      <trkpt lat="47.21831" lon="1.25729">
        <ele>140</ele>
        <time>2017-12-23T03:44:52Z</time>
      </trkpt>
      <trkpt lat="47.21824" lon="1.2565">
        <ele>141</ele>
        <time>2017-12-23T03:45:52Z</time>
      </trkpt>
      <trkpt lat="47.21809" lon="1.25581">
        <ele>142</ele>
        <time>2017-12-23T03:46:52Z</time>
      </trkpt>
      <trkpt lat="47.21795" lon="1.25491">
        <ele>140</ele>
        <time>2017-12-23T03:47:52Z</time>
      </trkpt>
      <trkpt lat="47.21782" lon="1.25433">
        <ele>139</ele>
        <time>2017-12-23T03:48:52Z</time>
      </trkpt>
      <trkpt lat="47.21732" lon="1.2529">
        <ele>137</ele>
        <time>2017-12-23T03:49:52Z</time>
      </trkpt>
      <trkpt lat="47.21694" lon="1.25199">
        <ele>136</ele>
        <time>2017-12-23T03:50:52Z</time>
      </trkpt>
      <trkpt lat="47.21677" lon="1.25124">
        <ele>135</ele>
        <time>2017-12-23T03:51:52Z</time>
      </trkpt>
      <trkpt lat="47.21652" lon="1.25013">
        <ele>134</ele>
        <time>2017-12-23T03:52:52Z</time>
      </trkpt>
      <trkpt lat="47.21607" lon="1.24873">
        <ele>130</ele>
        <time>2017-12-23T03:53:52Z</time>
      </trkpt>
      <trkpt lat="47.21537" lon="1.24609">
        <ele>134</ele>
        <time>2017-12-23T03:54:52Z</time>
      </trkpt>
      <trkpt lat="47.21493" lon="1.24528">
        <ele>136</ele>
        <time>2017-12-23T03:55:52Z</time>
      </trkpt>
      <trkpt lat="47.21423" lon="1.2441">
        <ele>138</ele>
        <time>2017-12-23T03:56:52Z</time>
      </trkpt>
      <trkpt lat="47.21381" lon="1.2433">
        <ele>138</ele>
        <time>2017-12-23T03:57:52Z</time>
      </trkpt>
      <trkpt lat="47.21321" lon="1.24232">
        <ele>135</ele>
        <time>2017-12-23T03:58:52Z</time>
      </trkpt>
      <trkpt lat="47.2126" lon="1.24135">
        <ele>135</ele>
        <time>2017-12-23T03:59:52Z</time>
      </trkpt>
      <trkpt lat="47.21229" lon="1.24075">
        <ele>134</ele>
        <time>2017-12-23T04:00:52Z</time>
      </trkpt>
      <trkpt lat="47.2119" lon="1.24006">
        <ele>133</ele>
        <time>2017-12-23T04:01:52Z</time>
      </trkpt>
      <trkpt lat="47.21149" lon="1.23948">
        <ele>132</ele>
        <time>2017-12-23T04:02:52Z</time>
      </trkpt>
      <trkpt lat="47.21092" lon="1.23882">
        <ele>132</ele>
        <time>2017-12-23T04:03:52Z</time>
      </trkpt>
      <trkpt lat="47.2107" lon="1.23822">
        <ele>130</ele>
        <time>2017-12-23T04:04:52Z</time>
      </trkpt>
      <trkpt lat="47.21057" lon="1.23753">
        <ele>126</ele>
        <time>2017-12-23T04:05:52Z</time>
      </trkpt>
      <trkpt lat="47.21047" lon="1.23635">
        <ele>121</ele>
        <time>2017-12-23T04:06:52Z</time>
      </trkpt>
      <trkpt lat="47.21038" lon="1.23564">
        <ele>118</ele>
        <time>2017-12-23T04:07:52Z</time>
      </trkpt>
      <trkpt lat="47.21006" lon="1.2356">
        <ele>117</ele>
        <time>2017-12-23T04:08:52Z</time>
      </trkpt>
      <trkpt lat="47.20971" lon="1.23534">
        <ele>116</ele>
        <time>2017-12-23T04:09:52Z</time>
      </trkpt>
      <trkpt lat="47.20955" lon="1.23601">
        <ele>120</ele>
        <time>2017-12-23T04:10:52Z</time>
      </trkpt>
      <trkpt lat="47.20926" lon="1.23669">
        <ele>122</ele>
        <time>2017-12-23T04:11:52Z</time>
      </trkpt>
      <trkpt lat="47.20887" lon="1.23751">
        <ele>127</ele>
        <time>2017-12-23T04:12:52Z</time>
      </trkpt>
      <trkpt lat="47.20861" lon="1.23805">
        <ele>130</ele>
        <time>2017-12-23T04:13:52Z</time>
      </trkpt>
      <trkpt lat="47.20802" lon="1.23828">
        <ele>133</ele>
        <time>2017-12-23T04:14:52Z</time>
      </trkpt>
      <trkpt lat="47.20718" lon="1.23886">
        <ele>136</ele>
        <time>2017-12-23T04:15:52Z</time>
      </trkpt>
      <trkpt lat="47.2061" lon="1.2397">
        <ele>139</ele>
        <time>2017-12-23T04:16:52Z</time>
      </trkpt>
      <trkpt lat="47.20517" lon="1.24096">
        <ele>139</ele>
        <time>2017-12-23T04:17:52Z</time>
      </trkpt>
      <trkpt lat="47.20419" lon="1.24142">
        <ele>141</ele>
        <time>2017-12-23T04:18:52Z</time>
      </trkpt>
      <trkpt lat="47.20216" lon="1.24272">
        <ele>141</ele>
        <time>2017-12-23T04:19:52Z</time>
      </trkpt>
      <trkpt lat="47.20088" lon="1.23852">
        <ele>137</ele>
        <time>2017-12-23T04:20:52Z</time>
      </trkpt>
      <trkpt lat="47.20139" lon="1.23813">
        <ele>138</ele>
        <time>2017-12-23T04:21:52Z</time>
      </trkpt>
      <trkpt lat="47.20194" lon="1.23796">
        <ele>139</ele>
        <time>2017-12-23T04:22:52Z</time>
      </trkpt>
      <trkpt lat="47.20277" lon="1.23787">
        <ele>139</ele>
        <time>2017-12-23T04:23:52Z</time>
      </trkpt>
      <trkpt lat="47.20331" lon="1.23779">
        <ele>137</ele>
        <time>2017-12-23T04:24:52Z</time>
      </trkpt>
      <trkpt lat="47.20384" lon="1.2379">
        <ele>135</ele>
        <time>2017-12-23T04:25:52Z</time>
      </trkpt>
      <trkpt lat="47.20464" lon="1.2379">
        <ele>132</ele>
        <time>2017-12-23T04:26:52Z</time>
      </trkpt>
      <trkpt lat="47.2049" lon="1.23798">
        <ele>132</ele>
        <time>2017-12-23T04:27:52Z</time>
      </trkpt>
      <trkpt lat="47.20493" lon="1.23734">
        <ele>128</ele>
        <time>2017-12-23T04:28:52Z</time>
      </trkpt>
      <trkpt lat="47.20524" lon="1.23639">
        <ele>126</ele>
        <time>2017-12-23T04:29:52Z</time>
      </trkpt>
      <trkpt lat="47.20528" lon="1.23551">
        <ele>125</ele>
        <time>2017-12-23T04:30:52Z</time>
      </trkpt>
      <trkpt lat="47.20535" lon="1.23451">
        <ele>123</ele>
        <time>2017-12-23T04:31:52Z</time>
      </trkpt>
      <trkpt lat="47.20546" lon="1.23388">
        <ele>121</ele>
        <time>2017-12-23T04:32:52Z</time>
      </trkpt>
      <trkpt lat="47.20568" lon="1.23309">
        <ele>117</ele>
        <time>2017-12-23T04:33:52Z</time>
      </trkpt>
      <trkpt lat="47.20574" lon="1.2329">
        <ele>115</ele>
        <time>2017-12-23T04:34:52Z</time>
      </trkpt>
      <trkpt lat="47.20552" lon="1.23257">
        <ele>114</ele>
        <time>2017-12-23T04:35:52Z</time>
      </trkpt>
      <trkpt lat="47.20533" lon="1.23232">
        <ele>114</ele>
        <time>2017-12-23T04:36:52Z</time>
      </trkpt>
      <trkpt lat="47.20509" lon="1.23214">
        <ele>114</ele>
        <time>2017-12-23T04:37:52Z</time>
      </trkpt>
      <trkpt lat="47.20478" lon="1.23187">
        <ele>111</ele>
        <time>2017-12-23T04:38:52Z</time>
      </trkpt>
      <trkpt lat="47.20455" lon="1.23184">
        <ele>110</ele>
        <time>2017-12-23T04:39:52Z</time>
      </trkpt>
      <trkpt lat="47.20441" lon="1.2318">
        <ele>110</ele>
        <time>2017-12-23T04:40:52Z</time>
      </trkpt>
      <trkpt lat="47.20426" lon="1.23175">
        <ele>109</ele>
        <time>2017-12-23T04:41:52Z</time>
      </trkpt>
      <trkpt lat="47.20411" lon="1.2317">
        <ele>108</ele>
        <time>2017-12-23T04:42:52Z</time>
      </trkpt>
      <trkpt lat="47.20398" lon="1.23169">
        <ele>108</ele>
        <time>2017-12-23T04:43:52Z</time>
      </trkpt>
      <trkpt lat="47.20371" lon="1.23171">
        <ele>108</ele>
        <time>2017-12-23T04:44:52Z</time>
      </trkpt>
      <trkpt lat="47.20353" lon="1.23178">
        <ele>109</ele>
        <time>2017-12-23T04:45:52Z</time>
      </trkpt>
      <trkpt lat="47.20328" lon="1.23184">
        <ele>110</ele>
        <time>2017-12-23T04:46:52Z</time>
      </trkpt>
      <trkpt lat="47.2032" lon="1.23184">
        <ele>110</ele>
        <time>2017-12-23T04:47:52Z</time>
      </trkpt>
      <trkpt lat="47.2032" lon="1.23168">
        <ele>109</ele>
        <time>2017-12-23T04:48:52Z</time>
      </trkpt>
      <trkpt lat="47.2032" lon="1.23147">
        <ele>108</ele>
        <time>2017-12-23T04:49:52Z</time>
      </trkpt>
      <trkpt lat="47.20321" lon="1.23114">
        <ele>106</ele>
        <time>2017-12-23T04:50:52Z</time>
      </trkpt>
      <trkpt lat="47.20318" lon="1.23082">
        <ele>105</ele>
        <time>2017-12-23T04:51:52Z</time>
      </trkpt>
      <trkpt lat="47.20299" lon="1.23069">
        <ele>106</ele>
        <time>2017-12-23T04:52:52Z</time>
      </trkpt>
      <trkpt lat="47.20259" lon="1.23058">
        <ele>107</ele>
        <time>2017-12-23T04:53:52Z</time>
      </trkpt>
      <trkpt lat="47.20214" lon="1.23044">
        <ele>106</ele>
        <time>2017-12-23T04:54:52Z</time>
      </trkpt>
      <trkpt lat="47.20193" lon="1.23026">
        <ele>106</ele>
        <time>2017-12-23T04:55:52Z</time>
      </trkpt>
      <trkpt lat="47.20165" lon="1.22986">
        <ele>105</ele>
        <time>2017-12-23T04:56:52Z</time>
      </trkpt>
      <trkpt lat="47.20149" lon="1.22957">
        <ele>106</ele>
        <time>2017-12-23T04:57:52Z</time>
      </trkpt>
      <trkpt lat="47.20118" lon="1.22936">
        <ele>105</ele>
        <time>2017-12-23T04:58:52Z</time>
      </trkpt>
      <trkpt lat="47.20088" lon="1.22921">
        <ele>105</ele>
        <time>2017-12-23T04:59:52Z</time>
      </trkpt>
      <trkpt lat="47.20063" lon="1.22916">
        <ele>105</ele>
        <time>2017-12-23T05:00:52Z</time>
      </trkpt>
      <trkpt lat="47.20031" lon="1.22884">
        <ele>105</ele>
        <time>2017-12-23T05:01:52Z</time>
      </trkpt>
      <trkpt lat="47.20008" lon="1.22859">
        <ele>105</ele>
        <time>2017-12-23T05:02:52Z</time>
      </trkpt>
      <trkpt lat="47.19984" lon="1.22849">
        <ele>105</ele>
        <time>2017-12-23T05:03:52Z</time>
      </trkpt>
      <trkpt lat="47.19953" lon="1.2284">
        <ele>105</ele>
        <time>2017-12-23T05:04:52Z</time>
      </trkpt>
      <trkpt lat="47.19925" lon="1.22829">
        <ele>104</ele>
        <time>2017-12-23T05:05:52Z</time>
      </trkpt>
      <trkpt lat="47.19895" lon="1.22807">
        <ele>105</ele>
        <time>2017-12-23T05:06:52Z</time>
      </trkpt>
      <trkpt lat="47.19872" lon="1.22785">
        <ele>106</ele>
        <time>2017-12-23T05:07:52Z</time>
      </trkpt>
      <trkpt lat="47.19852" lon="1.22751">
        <ele>105</ele>
        <time>2017-12-23T05:08:52Z</time>
      </trkpt>
      <trkpt lat="47.19877" lon="1.2272">
        <ele>108</ele>
        <time>2017-12-23T05:09:52Z</time>
      </trkpt>
      <trkpt lat="47.19918" lon="1.22675">
        <ele>112</ele>
        <time>2017-12-23T05:10:52Z</time>
      </trkpt>
      <trkpt lat="47.1995" lon="1.22628">
        <ele>114</ele>
        <time>2017-12-23T05:11:52Z</time>
      </trkpt>
      <trkpt lat="47.19973" lon="1.22574">
        <ele>116</ele>
        <time>2017-12-23T05:12:52Z</time>
      </trkpt>
      <trkpt lat="47.19888" lon="1.22592">
        <ele>113</ele>
        <time>2017-12-23T05:13:52Z</time>
      </trkpt>
      <trkpt lat="47.19827" lon="1.22575">
        <ele>109</ele>
        <time>2017-12-23T05:14:52Z</time>
      </trkpt>
      <trkpt lat="47.19785" lon="1.22556">
        <ele>107</ele>
        <time>2017-12-23T05:15:52Z</time>
      </trkpt>
      <trkpt lat="47.19626" lon="1.22468">
        <ele>113</ele>
        <time>2017-12-23T05:16:52Z</time>
      </trkpt>
      <trkpt lat="47.19608" lon="1.22386">
        <ele>115</ele>
        <time>2017-12-23T05:17:52Z</time>
      </trkpt>
      <trkpt lat="47.19559" lon="1.223">
        <ele>118</ele>
        <time>2017-12-23T05:18:52Z</time>
      </trkpt>
      <trkpt lat="47.19493" lon="1.22185">
        <ele>123</ele>
        <time>2017-12-23T05:19:52Z</time>
      </trkpt>
      <trkpt lat="47.19451" lon="1.22094">
        <ele>126</ele>
        <time>2017-12-23T05:20:52Z</time>
      </trkpt>
      <trkpt lat="47.19443" lon="1.22056">
        <ele>127</ele>
        <time>2017-12-23T05:21:52Z</time>
      </trkpt>
      <trkpt lat="47.19451" lon="1.22013">
        <ele>128</ele>
        <time>2017-12-23T05:22:52Z</time>
      </trkpt>
      <trkpt lat="47.19462" lon="1.21949">
        <ele>128</ele>
        <time>2017-12-23T05:23:52Z</time>
      </trkpt>
      <trkpt lat="47.19452" lon="1.21893">
        <ele>129</ele>
        <time>2017-12-23T05:24:52Z</time>
      </trkpt>
      <trkpt lat="47.19442" lon="1.21856">
        <ele>130</ele>
        <time>2017-12-23T05:25:52Z</time>
      </trkpt>
      <trkpt lat="47.19417" lon="1.21828">
        <ele>131</ele>
        <time>2017-12-23T05:26:52Z</time>
      </trkpt>
      <trkpt lat="47.19382" lon="1.21809">
        <ele>132</ele>
        <time>2017-12-23T05:27:52Z</time>
      </trkpt>
      <trkpt lat="47.19375" lon="1.2177">
        <ele>132</ele>
        <time>2017-12-23T05:28:52Z</time>
      </trkpt>
      <trkpt lat="47.19373" lon="1.21715">
        <ele>133</ele>
        <time>2017-12-23T05:29:52Z</time>
      </trkpt>
      <trkpt lat="47.1935" lon="1.21607">
        <ele>135</ele>
        <time>2017-12-23T05:30:52Z</time>
      </trkpt>
      <trkpt lat="47.19325" lon="1.21571">
        <ele>136</ele>
        <time>2017-12-23T05:31:52Z</time>
      </trkpt>
      <trkpt lat="47.1925" lon="1.21472">
        <ele>135</ele>
        <time>2017-12-23T05:32:52Z</time>
      </trkpt>
      <trkpt lat="47.19213" lon="1.21421">
        <ele>134</ele>
        <time>2017-12-23T05:33:52Z</time>
      </trkpt>
      <trkpt lat="47.1915" lon="1.21331">
        <ele>132</ele>
        <time>2017-12-23T05:34:52Z</time>
      </trkpt>
      <trkpt lat="47.19134" lon="1.2129">
        <ele>131</ele>
        <time>2017-12-23T05:35:52Z</time>
      </trkpt>
      <trkpt lat="47.19092" lon="1.21152">
        <ele>129</ele>
        <time>2017-12-23T05:36:52Z</time>
      </trkpt>
      <trkpt lat="47.1904" lon="1.21148">
        <ele>128</ele>
        <time>2017-12-23T05:37:52Z</time>
      </trkpt>
      <trkpt lat="47.19022" lon="1.21101">
        <ele>129</ele>
        <time>2017-12-23T05:38:52Z</time>
      </trkpt>
      <trkpt lat="47.19019" lon="1.21056">
        <ele>129</ele>
        <time>2017-12-23T05:39:52Z</time>
      </trkpt>
      <trkpt lat="47.19029" lon="1.20996">
        <ele>130</ele>
        <time>2017-12-23T05:40:52Z</time>
      </trkpt>
      <trkpt lat="47.19032" lon="1.20942">
        <ele>131</ele>
        <time>2017-12-23T05:41:52Z</time>
      </trkpt>
      <trkpt lat="47.19038" lon="1.20893">
        <ele>131</ele>
        <time>2017-12-23T05:42:52Z</time>
      </trkpt>
      <trkpt lat="47.19012" lon="1.20798">
        <ele>127</ele>
        <time>2017-12-23T05:43:52Z</time>
      </trkpt>
      <trkpt lat="47.18958" lon="1.20627">
        <ele>126</ele>
        <time>2017-12-23T05:44:52Z</time>
      </trkpt>
      <trkpt lat="47.18929" lon="1.20614">
        <ele>126</ele>
        <time>2017-12-23T05:45:52Z</time>
      </trkpt>
      <trkpt lat="47.18911" lon="1.20597">
        <ele>126</ele>
        <time>2017-12-23T05:46:52Z</time>
      </trkpt>
      <trkpt lat="47.18853" lon="1.20625">
        <ele>124</ele>
        <time>2017-12-23T05:47:52Z</time>
      </trkpt>
      <trkpt lat="47.18798" lon="1.20644">
        <ele>124</ele>
        <time>2017-12-23T05:48:52Z</time>
      </trkpt>
      <trkpt lat="47.18723" lon="1.207">
        <ele>125</ele>
        <time>2017-12-23T05:49:52Z</time>
      </trkpt>
      <trkpt lat="47.18671" lon="1.20743">
        <ele>126</ele>
        <time>2017-12-23T05:50:52Z</time>
      </trkpt>
      <trkpt lat="47.18583" lon="1.20794">
        <ele>122</ele>
        <time>2017-12-23T05:51:52Z</time>
      </trkpt>
      <trkpt lat="47.18558" lon="1.20813">
        <ele>120</ele>
        <time>2017-12-23T05:52:52Z</time>
      </trkpt>
      <trkpt lat="47.18449" lon="1.20977">
        <ele>104</ele>
        <time>2017-12-23T05:53:52Z</time>
      </trkpt>
      <trkpt lat="47.18366" lon="1.21103">
        <ele>98</ele>
        <time>2017-12-23T05:54:52Z</time>
      </trkpt>
      <trkpt lat="47.18261" lon="1.21161">
        <ele>99</ele>
        <time>2017-12-23T05:55:52Z</time>
      </trkpt>
      <trkpt lat="47.18245" lon="1.21142">
        <ele>99</ele>
        <time>2017-12-23T05:56:52Z</time>
      </trkpt>
      <trkpt lat="47.18223" lon="1.21159">
        <ele>100</ele>
        <time>2017-12-23T05:57:52Z</time>
      </trkpt>
      <trkpt lat="47.18096" lon="1.21189">
        <ele>109</ele>
        <time>2017-12-23T05:58:52Z</time>
      </trkpt>
      <trkpt lat="47.18048" lon="1.21202">
        <ele>111</ele>
        <time>2017-12-23T05:59:52Z</time>
      </trkpt>
      <trkpt lat="47.17994" lon="1.21213">
        <ele>114</ele>
        <time>2017-12-23T06:00:52Z</time>
      </trkpt>
      <trkpt lat="47.17908" lon="1.21234">
        <ele>118</ele>
        <time>2017-12-23T06:01:52Z</time>
      </trkpt>
      <trkpt lat="47.17886" lon="1.21236">
        <ele>119</ele>
        <time>2017-12-23T06:02:52Z</time>
      </trkpt>
      <trkpt lat="47.17834" lon="1.2126">
        <ele>121</ele>
        <time>2017-12-23T06:03:52Z</time>
      </trkpt>
      <trkpt lat="47.17749" lon="1.21288">
        <ele>123</ele>
        <time>2017-12-23T06:04:52Z</time>
      </trkpt>
      <trkpt lat="47.17658" lon="1.21298">
        <ele>126</ele>
        <time>2017-12-23T06:05:52Z</time>
      </trkpt>
      <trkpt lat="47.17632" lon="1.21354">
        <ele>126</ele>
        <time>2017-12-23T06:06:52Z</time>
      </trkpt>
      <trkpt lat="47.17594" lon="1.21393">
        <ele>127</ele>
        <time>2017-12-23T06:07:52Z</time>
      </trkpt>
      <trkpt lat="47.17504" lon="1.21436">
        <ele>132</ele>
        <time>2017-12-23T06:08:52Z</time>
      </trkpt>
      <trkpt lat="47.17406" lon="1.21464">
        <ele>135</ele>
        <time>2017-12-23T06:09:52Z</time>
      </trkpt>
      <trkpt lat="47.17339" lon="1.21466">
        <ele>137</ele>
        <time>2017-12-23T06:10:52Z</time>
      </trkpt>
      <trkpt lat="47.17297" lon="1.21472">
        <ele>139</ele>
        <time>2017-12-23T06:11:52Z</time>
      </trkpt>
      <trkpt lat="47.17246" lon="1.21485">
        <ele>141</ele>
        <time>2017-12-23T06:12:52Z</time>
      </trkpt>
      <trkpt lat="47.17187" lon="1.21483">
        <ele>143</ele>
        <time>2017-12-23T06:13:52Z</time>
      </trkpt>
      <trkpt lat="47.17125" lon="1.21468">
        <ele>145</ele>
        <time>2017-12-23T06:14:52Z</time>
      </trkpt>
      <trkpt lat="47.1705" lon="1.21453">
        <ele>146</ele>
        <time>2017-12-23T06:15:52Z</time>
      </trkpt>
      <trkpt lat="47.17017" lon="1.21455">
        <ele>145</ele>
        <time>2017-12-23T06:16:52Z</time>
      </trkpt>
      <trkpt lat="47.16947" lon="1.21472">
        <ele>144</ele>
        <time>2017-12-23T06:17:52Z</time>
      </trkpt>
      <trkpt lat="47.16916" lon="1.21474">
        <ele>143</ele>
        <time>2017-12-23T06:18:52Z</time>
      </trkpt>
      <trkpt lat="47.16878" lon="1.21476">
        <ele>143</ele>
        <time>2017-12-23T06:19:52Z</time>
      </trkpt>
      <trkpt lat="47.16834" lon="1.21455">
        <ele>144</ele>
        <time>2017-12-23T06:20:52Z</time>
      </trkpt>
      <trkpt lat="47.16801" lon="1.2144">
        <ele>145</ele>
        <time>2017-12-23T06:21:52Z</time>
      </trkpt>
      <trkpt lat="47.16718" lon="1.2144">
        <ele>142</ele>
        <time>2017-12-23T06:22:52Z</time>
      </trkpt>
      <trkpt lat="47.16671" lon="1.21238">
        <ele>140</ele>
        <time>2017-12-23T06:23:52Z</time>
      </trkpt>
      <trkpt lat="47.16671" lon="1.21219">
        <ele>141</ele>
        <time>2017-12-23T06:24:52Z</time>
      </trkpt>
      <trkpt lat="47.16653" lon="1.21202">
        <ele>141</ele>
        <time>2017-12-23T06:25:52Z</time>
      </trkpt>
      <trkpt lat="47.16629" lon="1.21178">
        <ele>141</ele>
        <time>2017-12-23T06:26:52Z</time>
      </trkpt>
      <trkpt lat="47.16597" lon="1.21163">
        <ele>139</ele>
        <time>2017-12-23T06:27:52Z</time>
      </trkpt>
      <trkpt lat="47.16503" lon="1.2111">
        <ele>135</ele>
        <time>2017-12-23T06:28:52Z</time>
      </trkpt>
      <trkpt lat="47.16449" lon="1.21071">
        <ele>133</ele>
        <time>2017-12-23T06:29:52Z</time>
      </trkpt>
      <trkpt lat="47.16397" lon="1.2106">
        <ele>129</ele>
        <time>2017-12-23T06:30:52Z</time>
      </trkpt>
      <trkpt lat="47.16343" lon="1.2103">
        <ele>124</ele>
        <time>2017-12-23T06:31:52Z</time>
      </trkpt>
      <trkpt lat="47.16264" lon="1.20985">
        <ele>118</ele>
        <time>2017-12-23T06:32:52Z</time>
      </trkpt>
      <trkpt lat="47.16208" lon="1.20981">
        <ele>118</ele>
        <time>2017-12-23T06:33:52Z</time>
      </trkpt>
      <trkpt lat="47.16134" lon="1.20944">
        <ele>121</ele>
        <time>2017-12-23T06:34:52Z</time>
      </trkpt>
      <trkpt lat="47.16092" lon="1.20942">
        <ele>122</ele>
        <time>2017-12-23T06:35:52Z</time>
      </trkpt>
      <trkpt lat="47.16042" lon="1.20953">
        <ele>122</ele>
        <time>2017-12-23T06:36:52Z</time>
      </trkpt>
      <trkpt lat="47.15971" lon="1.20977">
        <ele>124</ele>
        <time>2017-12-23T06:37:52Z</time>
      </trkpt>
      <trkpt lat="47.15953" lon="1.2094">
        <ele>124</ele>
        <time>2017-12-23T06:38:52Z</time>
      </trkpt>
      <trkpt lat="47.15905" lon="1.20841">
        <ele>123</ele>
        <time>2017-12-23T06:39:52Z</time>
      </trkpt>
      <trkpt lat="47.15876" lon="1.20828">
        <ele>123</ele>
        <time>2017-12-23T06:40:52Z</time>
      </trkpt>
      <trkpt lat="47.15848" lon="1.20811">
        <ele>122</ele>
        <time>2017-12-23T06:41:52Z</time>
      </trkpt>
      <trkpt lat="47.15832" lon="1.20773">
        <ele>122</ele>
        <time>2017-12-23T06:42:52Z</time>
      </trkpt>
      <trkpt lat="47.1581" lon="1.2071">
        <ele>121</ele>
        <time>2017-12-23T06:43:52Z</time>
      </trkpt>
      <trkpt lat="47.15781" lon="1.20683">
        <ele>119</ele>
        <time>2017-12-23T06:44:52Z</time>
      </trkpt>
      <trkpt lat="47.1573" lon="1.20648">
        <ele>116</ele>
        <time>2017-12-23T06:45:52Z</time>
      </trkpt>
      <trkpt lat="47.15714" lon="1.20605">
        <ele>115</ele>
        <time>2017-12-23T06:46:52Z</time>
      </trkpt>
      <trkpt lat="47.15695" lon="1.20515">
        <ele>115</ele>
        <time>2017-12-23T06:47:52Z</time>
      </trkpt>
      <trkpt lat="47.15712" lon="1.20492">
        <ele>115</ele>
        <time>2017-12-23T06:48:52Z</time>
      </trkpt>
      <trkpt lat="47.15714" lon="1.20444">
        <ele>114</ele>
        <time>2017-12-23T06:49:52Z</time>
      </trkpt>
      <trkpt lat="47.15707" lon="1.20374">
        <ele>112</ele>
        <time>2017-12-23T06:50:52Z</time>
      </trkpt>
      <trkpt lat="47.15709" lon="1.20333">
        <ele>111</ele>
        <time>2017-12-23T06:51:52Z</time>
      </trkpt>
      <trkpt lat="47.15717" lon="1.20275">
        <ele>110</ele>
        <time>2017-12-23T06:52:52Z</time>
      </trkpt>
      <trkpt lat="47.15656" lon="1.2026">
        <ele>103</ele>
        <time>2017-12-23T06:53:52Z</time>
      </trkpt>
      <trkpt lat="47.1562" lon="1.20251">
        <ele>102</ele>
        <time>2017-12-23T06:54:52Z</time>
      </trkpt>
      <trkpt lat="47.15628" lon="1.20204">
        <ele>102</ele>
        <time>2017-12-23T06:55:52Z</time>
      </trkpt>
      <trkpt lat="47.15635" lon="1.20148">
        <ele>102</ele>
        <time>2017-12-23T06:56:52Z</time>
      </trkpt>
      <trkpt lat="47.15619" lon="1.20077">
        <ele>102</ele>
        <time>2017-12-23T06:57:52Z</time>
      </trkpt>
      <trkpt lat="47.15606" lon="1.20026">
        <ele>101</ele>
        <time>2017-12-23T06:58:52Z</time>
      </trkpt>
      <trkpt lat="47.15571" lon="1.19998">
        <ele>97</ele>
        <time>2017-12-23T06:59:52Z</time>
      </trkpt>
      <trkpt lat="47.15531" lon="1.20009">
        <ele>95</ele>
        <time>2017-12-23T07:00:52Z</time>
      </trkpt>
      <trkpt lat="47.15515" lon="1.19929">
        <ele>92</ele>
        <time>2017-12-23T07:01:52Z</time>
      </trkpt>
      <trkpt lat="47.15501" lon="1.19861">
        <ele>93</ele>
        <time>2017-12-23T07:02:52Z</time>
      </trkpt>
      <trkpt lat="47.15483" lon="1.19798">
        <ele>94</ele>
        <time>2017-12-23T07:03:52Z</time>
      </trkpt>
      <trkpt lat="47.15453" lon="1.19771">
        <ele>93</ele>
        <time>2017-12-23T07:04:52Z</time>
      </trkpt>
      <trkpt lat="47.15415" lon="1.19777">
        <ele>91</ele>
        <time>2017-12-23T07:05:52Z</time>
      </trkpt>
      <trkpt lat="47.15362" lon="1.19796">
        <ele>91</ele>
        <time>2017-12-23T07:06:52Z</time>
      </trkpt>
      <trkpt lat="47.15326" lon="1.19811">
        <ele>91</ele>
        <time>2017-12-23T07:07:52Z</time>
      </trkpt>
      <trkpt lat="47.15299" lon="1.1979">
        <ele>92</ele>
        <time>2017-12-23T07:08:52Z</time>
      </trkpt>
      <trkpt lat="47.1526" lon="1.19715">
        <ele>92</ele>
        <time>2017-12-23T07:09:52Z</time>
      </trkpt>
      <trkpt lat="47.15275" lon="1.19646">
        <ele>91</ele>
        <time>2017-12-23T07:10:52Z</time>
      </trkpt>
      <trkpt lat="47.15295" lon="1.19565">
        <ele>91</ele>
        <time>2017-12-23T07:11:52Z</time>
      </trkpt>
      <trkpt lat="47.15307" lon="1.19507">
        <ele>91</ele>
        <time>2017-12-23T07:12:52Z</time>
      </trkpt>
      <trkpt lat="47.15308" lon="1.19432">
        <ele>95</ele>
        <time>2017-12-23T07:13:52Z</time>
      </trkpt>
      <trkpt lat="47.15326" lon="1.19354">
        <ele>96</ele>
        <time>2017-12-23T07:14:52Z</time>
      </trkpt>
      <trkpt lat="47.15348" lon="1.19281">
        <ele>94</ele>
        <time>2017-12-23T07:15:52Z</time>
      </trkpt>
      <trkpt lat="47.15371" lon="1.19196">
        <ele>94</ele>
        <time>2017-12-23T07:16:52Z</time>
      </trkpt>
      <trkpt lat="47.15402" lon="1.19105">
        <ele>97</ele>
        <time>2017-12-23T07:17:52Z</time>
      </trkpt>
      <trkpt lat="47.15434" lon="1.19047">
        <ele>98</ele>
        <time>2017-12-23T07:18:52Z</time>
      </trkpt>
      <trkpt lat="47.15477" lon="1.18996">
        <ele>97</ele>
        <time>2017-12-23T07:19:52Z</time>
      </trkpt>
      <trkpt lat="47.15526" lon="1.18964">
        <ele>96</ele>
        <time>2017-12-23T07:20:52Z</time>
      </trkpt>
      <trkpt lat="47.15593" lon="1.18921">
        <ele>95</ele>
        <time>2017-12-23T07:21:52Z</time>
      </trkpt>
      <trkpt lat="47.15641" lon="1.1888">
        <ele>97</ele>
        <time>2017-12-23T07:22:52Z</time>
      </trkpt>
      <trkpt lat="47.15676" lon="1.18809">
        <ele>100</ele>
        <time>2017-12-23T07:23:52Z</time>
      </trkpt>
      <trkpt lat="47.15688" lon="1.18745">
        <ele>102</ele>
        <time>2017-12-23T07:24:52Z</time>
      </trkpt>
      <trkpt lat="47.15683" lon="1.18655">
        <ele>100</ele>
        <time>2017-12-23T07:25:52Z</time>
      </trkpt>
      <trkpt lat="47.15661" lon="1.18425">
        <ele>99</ele>
        <time>2017-12-23T07:26:52Z</time>
      </trkpt>
      <trkpt lat="47.15634" lon="1.18181">
        <ele>98</ele>
        <time>2017-12-23T07:27:52Z</time>
      </trkpt>
      <trkpt lat="47.1562" lon="1.18033">
        <ele>101</ele>
        <time>2017-12-23T07:28:52Z</time>
      </trkpt>
      <trkpt lat="47.15607" lon="1.17938">
        <ele>101</ele>
        <time>2017-12-23T07:29:52Z</time>
      </trkpt>
      <trkpt lat="47.15599" lon="1.17835">
        <ele>99</ele>
        <time>2017-12-23T07:30:52Z</time>
      </trkpt>
      <trkpt lat="47.15599" lon="1.17751">
        <ele>100</ele>
        <time>2017-12-23T07:31:52Z</time>
      </trkpt>
      <trkpt lat="47.15603" lon="1.17653">
        <ele>103</ele>
        <time>2017-12-23T07:32:52Z</time>
      </trkpt>
      <trkpt lat="47.15619" lon="1.17571">
        <ele>103</ele>
        <time>2017-12-23T07:33:52Z</time>
      </trkpt>
      <trkpt lat="47.15641" lon="1.17485">
        <ele>102</ele>
        <time>2017-12-23T07:34:52Z</time>
      </trkpt>
      <trkpt lat="47.15689" lon="1.17376">
        <ele>103</ele>
        <time>2017-12-23T07:35:52Z</time>
      </trkpt>
      <trkpt lat="47.15745" lon="1.17282">
        <ele>101</ele>
        <time>2017-12-23T07:36:52Z</time>
      </trkpt>
      <trkpt lat="47.15796" lon="1.17185">
        <ele>98</ele>
        <time>2017-12-23T07:37:52Z</time>
      </trkpt>
      <trkpt lat="47.15838" lon="1.17121">
        <ele>96</ele>
        <time>2017-12-23T07:38:52Z</time>
      </trkpt>
      <trkpt lat="47.15887" lon="1.17043">
        <ele>95</ele>
        <time>2017-12-23T07:39:52Z</time>
      </trkpt>
      <trkpt lat="47.15931" lon="1.16977">
        <ele>93</ele>
        <time>2017-12-23T07:40:52Z</time>
      </trkpt>
      <trkpt lat="47.15965" lon="1.16912">
        <ele>93</ele>
        <time>2017-12-23T07:41:52Z</time>
      </trkpt>
      <trkpt lat="47.16004" lon="1.16807">
        <ele>93</ele>
        <time>2017-12-23T07:42:52Z</time>
      </trkpt>
      <trkpt lat="47.16051" lon="1.167">
        <ele>93</ele>
        <time>2017-12-23T07:43:52Z</time>
      </trkpt>
      <trkpt lat="47.16082" lon="1.16618">
        <ele>94</ele>
        <time>2017-12-23T07:44:52Z</time>
      </trkpt>
      <trkpt lat="47.16101" lon="1.16561">
        <ele>95</ele>
        <time>2017-12-23T07:45:52Z</time>
      </trkpt>
      <trkpt lat="47.16117" lon="1.16505">
        <ele>96</ele>
        <time>2017-12-23T07:46:52Z</time>
      </trkpt>
      <trkpt lat="47.16099" lon="1.16464">
        <ele>96</ele>
        <time>2017-12-23T07:47:52Z</time>
      </trkpt>
      <trkpt lat="47.16082" lon="1.1643">
        <ele>96</ele>
        <time>2017-12-23T07:48:52Z</time>
      </trkpt>
      <trkpt lat="47.16101" lon="1.16397">
        <ele>96</ele>
        <time>2017-12-23T07:49:52Z</time>
      </trkpt>
      <trkpt lat="47.16133" lon="1.16372">
        <ele>95</ele>
        <time>2017-12-23T07:50:52Z</time>
      </trkpt>
      <trkpt lat="47.16117" lon="1.16318">
        <ele>95</ele>
        <time>2017-12-23T07:51:52Z</time>
      </trkpt>
      <trkpt lat="47.16086" lon="1.16267">
        <ele>95</ele>
        <time>2017-12-23T07:52:52Z</time>
      </trkpt>
      <trkpt lat="47.16074" lon="1.16239">
        <ele>95</ele>
        <time>2017-12-23T07:53:52Z</time>
      </trkpt>
      <trkpt lat="47.16041" lon="1.16267">
        <ele>95</ele>
        <time>2017-12-23T07:54:52Z</time>
      </trkpt>
    </trkseg>
  </trk>
  <trk>
    <name><![CDATA[8086939-Boucle équestre Loché 001]]></name>
    <trkseg>
      <trkpt lat="47.14176" lon="1.13074">
        <ele>115</ele>
        <time>2017-12-22T15:49:19Z</time>
      </trkpt>
      <trkpt lat="47.14135" lon="1.13072">
        <ele>119</ele>
        <time>2017-12-22T15:50:19Z</time>
      </trkpt>
      <trkpt lat="47.14072" lon="1.13041">
        <ele>122</ele>
        <time>2017-12-22T15:51:19Z</time>
      </trkpt>
      <trkpt lat="47.13736" lon="1.12908">
        <ele>129</ele>
        <time>2017-12-22T15:52:19Z</time>
      </trkpt>
      <trkpt lat="47.13652" lon="1.12883">
        <ele>129</ele>
        <time>2017-12-22T15:53:19Z</time>
      </trkpt>
      <trkpt lat="47.1356" lon="1.12829">
        <ele>131</ele>
        <time>2017-12-22T15:54:19Z</time>
      </trkpt>
      <trkpt lat="47.13488" lon="1.12707">
        <ele>140</ele>
        <time>2017-12-22T15:55:19Z</time>
      </trkpt>
      <trkpt lat="47.13364" lon="1.12537">
        <ele>143</ele>
        <time>2017-12-22T15:56:19Z</time>
      </trkpt>
      <trkpt lat="47.13256" lon="1.12385">
        <ele>144</ele>
        <time>2017-12-22T15:57:19Z</time>
      </trkpt>
      <trkpt lat="47.13221" lon="1.1234">
        <ele>149</ele>
        <time>2017-12-22T15:58:19Z</time>
      </trkpt>
      <trkpt lat="47.12974" lon="1.12473">
        <ele>139</ele>
        <time>2017-12-22T15:59:19Z</time>
      </trkpt>
      <trkpt lat="47.12966" lon="1.12531">
        <ele>135</ele>
        <time>2017-12-22T16:00:19Z</time>
      </trkpt>
      <trkpt lat="47.12941" lon="1.1255">
        <ele>136</ele>
        <time>2017-12-22T16:01:19Z</time>
      </trkpt>
      <trkpt lat="47.12919" lon="1.12582">
        <ele>137</ele>
        <time>2017-12-22T16:02:19Z</time>
      </trkpt>
      <trkpt lat="47.12923" lon="1.12625">
        <ele>139</ele>
        <time>2017-12-22T16:03:19Z</time>
      </trkpt>
      <trkpt lat="47.12941" lon="1.12702">
        <ele>140</ele>
        <time>2017-12-22T16:04:19Z</time>
      </trkpt>
      <trkpt lat="47.12938" lon="1.12745">
        <ele>143</ele>
        <time>2017-12-22T16:05:19Z</time>
      </trkpt>
      <trkpt lat="47.12972" lon="1.12786">
        <ele>140</ele>
        <time>2017-12-22T16:06:19Z</time>
      </trkpt>
      <trkpt lat="47.13138" lon="1.1308">
        <ele>131</ele>
        <time>2017-12-22T16:07:19Z</time>
      </trkpt>
      <trkpt lat="47.13214" lon="1.132">
        <ele>127</ele>
        <time>2017-12-22T16:08:19Z</time>
      </trkpt>
      <trkpt lat="47.13046" lon="1.13509">
        <ele>150</ele>
        <time>2017-12-22T16:09:19Z</time>
      </trkpt>
      <trkpt lat="47.12818" lon="1.13722">
        <ele>136</ele>
        <time>2017-12-22T16:10:19Z</time>
      </trkpt>
      <trkpt lat="47.12777" lon="1.14022">
        <ele>119</ele>
        <time>2017-12-22T16:11:19Z</time>
      </trkpt>
      <trkpt lat="47.12757" lon="1.14065">
        <ele>121</ele>
        <time>2017-12-22T16:12:19Z</time>
      </trkpt>
      <trkpt lat="47.12766" lon="1.14132">
        <ele>128</ele>
        <time>2017-12-22T16:13:19Z</time>
      </trkpt>
      <trkpt lat="47.12761" lon="1.14179">
        <ele>133</ele>
        <time>2017-12-22T16:14:19Z</time>
      </trkpt>
      <trkpt lat="47.12709" lon="1.14559">
        <ele>139</ele>
        <time>2017-12-22T16:15:19Z</time>
      </trkpt>
      <trkpt lat="47.12037" lon="1.14134">
        <ele>143</ele>
        <time>2017-12-22T16:16:19Z</time>
      </trkpt>
      <trkpt lat="47.11931" lon="1.14968">
        <ele>142</ele>
        <time>2017-12-22T16:17:19Z</time>
      </trkpt>
      <trkpt lat="47.12014" lon="1.15389">
        <ele>130</ele>
        <time>2017-12-22T16:18:19Z</time>
      </trkpt>
      <trkpt lat="47.11928" lon="1.15509">
        <ele>132</ele>
        <time>2017-12-22T16:19:19Z</time>
      </trkpt>
      <trkpt lat="47.11916" lon="1.15539">
        <ele>132</ele>
        <time>2017-12-22T16:20:19Z</time>
      </trkpt>
      <trkpt lat="47.11884" lon="1.1558">
        <ele>132</ele>
        <time>2017-12-22T16:21:19Z</time>
      </trkpt>
      <trkpt lat="47.1186" lon="1.15612">
        <ele>133</ele>
        <time>2017-12-22T16:22:19Z</time>
      </trkpt>
      <trkpt lat="47.11733" lon="1.15556">
        <ele>134</ele>
        <time>2017-12-22T16:23:19Z</time>
      </trkpt>
      <trkpt lat="47.11713" lon="1.15698">
        <ele>132</ele>
        <time>2017-12-22T16:24:19Z</time>
      </trkpt>
      <trkpt lat="47.1163" lon="1.1582">
        <ele>124</ele>
        <time>2017-12-22T16:25:19Z</time>
      </trkpt>
      <trkpt lat="47.11574" lon="1.15895">
        <ele>120</ele>
        <time>2017-12-22T16:26:19Z</time>
      </trkpt>
      <trkpt lat="47.11525" lon="1.15947">
        <ele>120</ele>
        <time>2017-12-22T16:27:19Z</time>
      </trkpt>
      <trkpt lat="47.11485" lon="1.16013">
        <ele>121</ele>
        <time>2017-12-22T16:28:19Z</time>
      </trkpt>
      <trkpt lat="47.11311" lon="1.16254">
        <ele>122</ele>
        <time>2017-12-22T16:29:19Z</time>
      </trkpt>
      <trkpt lat="47.11167" lon="1.16432">
        <ele>126</ele>
        <time>2017-12-22T16:30:19Z</time>
      </trkpt>
      <trkpt lat="47.11143" lon="1.16455">
        <ele>123</ele>
        <time>2017-12-22T16:31:19Z</time>
      </trkpt>
      <trkpt lat="47.10986" lon="1.165">
        <ele>120</ele>
        <time>2017-12-22T16:32:19Z</time>
      </trkpt>
      <trkpt lat="47.10945" lon="1.16518">
        <ele>120</ele>
        <time>2017-12-22T16:33:19Z</time>
      </trkpt>
      <trkpt lat="47.10894" lon="1.16522">
        <ele>121</ele>
        <time>2017-12-22T16:34:19Z</time>
      </trkpt>
      <trkpt lat="47.10841" lon="1.16554">
        <ele>121</ele>
        <time>2017-12-22T16:35:19Z</time>
      </trkpt>
      <trkpt lat="47.10764" lon="1.16601">
        <ele>120</ele>
        <time>2017-12-22T16:36:19Z</time>
      </trkpt>
      <trkpt lat="47.10727" lon="1.16621">
        <ele>118</ele>
        <time>2017-12-22T16:37:19Z</time>
      </trkpt>
      <trkpt lat="47.10659" lon="1.16646">
        <ele>117</ele>
        <time>2017-12-22T16:38:19Z</time>
      </trkpt>
      <trkpt lat="47.10632" lon="1.16698">
        <ele>117</ele>
        <time>2017-12-22T16:39:19Z</time>
      </trkpt>
      <trkpt lat="47.10629" lon="1.16747">
        <ele>117</ele>
        <time>2017-12-22T16:40:19Z</time>
      </trkpt>
      <trkpt lat="47.10615" lon="1.16721">
        <ele>117</ele>
        <time>2017-12-22T16:41:19Z</time>
      </trkpt>
      <trkpt lat="47.10599" lon="1.16691">
        <ele>116</ele>
        <time>2017-12-22T16:42:19Z</time>
      </trkpt>
      <trkpt lat="47.10586" lon="1.16666">
        <ele>116</ele>
        <time>2017-12-22T16:43:19Z</time>
      </trkpt>
      <trkpt lat="47.10574" lon="1.16623">
        <ele>115</ele>
        <time>2017-12-22T16:44:19Z</time>
      </trkpt>
      <trkpt lat="47.10542" lon="1.16597">
        <ele>115</ele>
        <time>2017-12-22T16:45:19Z</time>
      </trkpt>
      <trkpt lat="47.10513" lon="1.16558">
        <ele>115</ele>
        <time>2017-12-22T16:46:19Z</time>
      </trkpt>
      <trkpt lat="47.10485" lon="1.16522">
        <ele>116</ele>
        <time>2017-12-22T16:47:19Z</time>
      </trkpt>
      <trkpt lat="47.1045" lon="1.16473">
        <ele>116</ele>
        <time>2017-12-22T16:48:19Z</time>
      </trkpt>
      <trkpt lat="47.10428" lon="1.16432">
        <ele>115</ele>
        <time>2017-12-22T16:49:19Z</time>
      </trkpt>
      <trkpt lat="47.10385" lon="1.1643">
        <ele>115</ele>
        <time>2017-12-22T16:50:19Z</time>
      </trkpt>
      <trkpt lat="47.10352" lon="1.16449">
        <ele>115</ele>
        <time>2017-12-22T16:51:19Z</time>
      </trkpt>
      <trkpt lat="47.10304" lon="1.16477">
        <ele>115</ele>
        <time>2017-12-22T16:52:19Z</time>
      </trkpt>
      <trkpt lat="47.10261" lon="1.165">
        <ele>115</ele>
        <time>2017-12-22T16:53:19Z</time>
      </trkpt>
      <trkpt lat="47.10226" lon="1.16509">
        <ele>116</ele>
        <time>2017-12-22T16:54:19Z</time>
      </trkpt>
      <trkpt lat="47.10185" lon="1.16505">
        <ele>117</ele>
        <time>2017-12-22T16:55:19Z</time>
      </trkpt>
      <trkpt lat="47.10143" lon="1.16507">
        <ele>118</ele>
        <time>2017-12-22T16:56:19Z</time>
      </trkpt>
      <trkpt lat="47.10121" lon="1.1653">
        <ele>117</ele>
        <time>2017-12-22T16:57:19Z</time>
      </trkpt>
      <trkpt lat="47.10102" lon="1.16526">
        <ele>117</ele>
        <time>2017-12-22T16:58:19Z</time>
      </trkpt>
      <trkpt lat="47.10079" lon="1.16507">
        <ele>117</ele>
        <time>2017-12-22T16:59:19Z</time>
      </trkpt>
      <trkpt lat="47.10036" lon="1.16494">
        <ele>117</ele>
        <time>2017-12-22T17:00:19Z</time>
      </trkpt>
      <trkpt lat="47.09995" lon="1.16503">
        <ele>117</ele>
        <time>2017-12-22T17:01:19Z</time>
      </trkpt>
      <trkpt lat="47.09952" lon="1.1652">
        <ele>118</ele>
        <time>2017-12-22T17:02:19Z</time>
      </trkpt>
      <trkpt lat="47.09896" lon="1.16546">
        <ele>119</ele>
        <time>2017-12-22T17:03:19Z</time>
      </trkpt>
      <trkpt lat="47.09855" lon="1.16556">
        <ele>118</ele>
        <time>2017-12-22T17:04:19Z</time>
      </trkpt>
      <trkpt lat="47.09828" lon="1.16636">
        <ele>119</ele>
        <time>2017-12-22T17:05:19Z</time>
      </trkpt>
      <trkpt lat="47.09794" lon="1.16702">
        <ele>120</ele>
        <time>2017-12-22T17:06:19Z</time>
      </trkpt>
      <trkpt lat="47.09747" lon="1.16807">
        <ele>121</ele>
        <time>2017-12-22T17:07:19Z</time>
      </trkpt>
      <trkpt lat="47.09702" lon="1.1688">
        <ele>122</ele>
        <time>2017-12-22T17:08:19Z</time>
      </trkpt>
      <trkpt lat="47.09671" lon="1.16912">
        <ele>122</ele>
        <time>2017-12-22T17:09:19Z</time>
      </trkpt>
      <trkpt lat="47.09551" lon="1.16814">
        <ele>130</ele>
        <time>2017-12-22T17:10:19Z</time>
      </trkpt>
      <trkpt lat="47.09408" lon="1.16689">
        <ele>131</ele>
        <time>2017-12-22T17:11:19Z</time>
      </trkpt>
      <trkpt lat="47.09078" lon="1.16698">
        <ele>133</ele>
        <time>2017-12-22T17:12:19Z</time>
      </trkpt>
      <trkpt lat="47.09037" lon="1.16691">
        <ele>133</ele>
        <time>2017-12-22T17:13:19Z</time>
      </trkpt>
      <trkpt lat="47.08768" lon="1.16698">
        <ele>138</ele>
        <time>2017-12-22T17:14:19Z</time>
      </trkpt>
      <trkpt lat="47.08716" lon="1.16734">
        <ele>137</ele>
        <time>2017-12-22T17:15:19Z</time>
      </trkpt>
      <trkpt lat="47.08631" lon="1.16782">
        <ele>138</ele>
        <time>2017-12-22T17:16:19Z</time>
      </trkpt>
      <trkpt lat="47.08675" lon="1.16887">
        <ele>141</ele>
        <time>2017-12-22T17:17:19Z</time>
      </trkpt>
      <trkpt lat="47.08678" lon="1.1693">
        <ele>141</ele>
        <time>2017-12-22T17:18:19Z</time>
      </trkpt>
      <trkpt lat="47.0866" lon="1.17022">
        <ele>140</ele>
        <time>2017-12-22T17:19:19Z</time>
      </trkpt>
      <trkpt lat="47.08649" lon="1.1708">
        <ele>140</ele>
        <time>2017-12-22T17:20:19Z</time>
      </trkpt>
      <trkpt lat="47.08624" lon="1.17163">
        <ele>140</ele>
        <time>2017-12-22T17:21:19Z</time>
      </trkpt>
      <trkpt lat="47.08589" lon="1.1723">
        <ele>139</ele>
        <time>2017-12-22T17:22:19Z</time>
      </trkpt>
      <trkpt lat="47.08586" lon="1.1729">
        <ele>139</ele>
        <time>2017-12-22T17:23:19Z</time>
      </trkpt>
      <trkpt lat="47.08538" lon="1.1741">
        <ele>138</ele>
        <time>2017-12-22T17:24:19Z</time>
      </trkpt>
      <trkpt lat="47.08527" lon="1.17447">
        <ele>138</ele>
        <time>2017-12-22T17:25:19Z</time>
      </trkpt>
      <trkpt lat="47.08504" lon="1.17801">
        <ele>145</ele>
        <time>2017-12-22T17:26:19Z</time>
      </trkpt>
      <trkpt lat="47.08538" lon="1.17837">
        <ele>145</ele>
        <time>2017-12-22T17:27:19Z</time>
      </trkpt>
      <trkpt lat="47.08567" lon="1.17857">
        <ele>145</ele>
        <time>2017-12-22T17:28:19Z</time>
      </trkpt>
      <trkpt lat="47.08608" lon="1.1791">
        <ele>147</ele>
        <time>2017-12-22T17:29:19Z</time>
      </trkpt>
      <trkpt lat="47.08694" lon="1.17945">
        <ele>148</ele>
        <time>2017-12-22T17:30:19Z</time>
      </trkpt>
      <trkpt lat="47.08757" lon="1.1797">
        <ele>148</ele>
        <time>2017-12-22T17:31:19Z</time>
      </trkpt>
      <trkpt lat="47.08799" lon="1.1797">
        <ele>148</ele>
        <time>2017-12-22T17:32:19Z</time>
      </trkpt>
      <trkpt lat="47.08847" lon="1.17992">
        <ele>147</ele>
        <time>2017-12-22T17:33:19Z</time>
      </trkpt>
      <trkpt lat="47.08879" lon="1.18067">
        <ele>147</ele>
        <time>2017-12-22T17:34:19Z</time>
      </trkpt>
      <trkpt lat="47.08893" lon="1.18116">
        <ele>146</ele>
        <time>2017-12-22T17:35:19Z</time>
      </trkpt>
      <trkpt lat="47.08853" lon="1.18138">
        <ele>148</ele>
        <time>2017-12-22T17:36:19Z</time>
      </trkpt>
      <trkpt lat="47.08808" lon="1.18153">
        <ele>149</ele>
        <time>2017-12-22T17:37:19Z</time>
      </trkpt>
      <trkpt lat="47.08746" lon="1.18163">
        <ele>150</ele>
        <time>2017-12-22T17:38:19Z</time>
      </trkpt>
      <trkpt lat="47.0871" lon="1.18172">
        <ele>150</ele>
        <time>2017-12-22T17:39:19Z</time>
      </trkpt>
      <trkpt lat="47.0864" lon="1.18208">
        <ele>151</ele>
        <time>2017-12-22T17:40:19Z</time>
      </trkpt>
      <trkpt lat="47.08577" lon="1.18226">
        <ele>152</ele>
        <time>2017-12-22T17:41:19Z</time>
      </trkpt>
      <trkpt lat="47.08536" lon="1.18215">
        <ele>151</ele>
        <time>2017-12-22T17:42:19Z</time>
      </trkpt>
      <trkpt lat="47.08491" lon="1.18198">
        <ele>151</ele>
        <time>2017-12-22T17:43:19Z</time>
      </trkpt>
      <trkpt lat="47.08431" lon="1.18174">
        <ele>151</ele>
        <time>2017-12-22T17:44:19Z</time>
      </trkpt>
      <trkpt lat="47.08412" lon="1.18189">
        <ele>151</ele>
        <time>2017-12-22T17:45:19Z</time>
      </trkpt>
      <trkpt lat="47.08371" lon="1.18264">
        <ele>151</ele>
        <time>2017-12-22T17:46:19Z</time>
      </trkpt>
      <trkpt lat="47.08356" lon="1.18299">
        <ele>151</ele>
        <time>2017-12-22T17:47:19Z</time>
      </trkpt>
      <trkpt lat="47.08343" lon="1.18331">
        <ele>151</ele>
        <time>2017-12-22T17:48:19Z</time>
      </trkpt>
      <trkpt lat="47.0831" lon="1.18395">
        <ele>151</ele>
        <time>2017-12-22T17:49:19Z</time>
      </trkpt>
      <trkpt lat="47.0826" lon="1.18567">
        <ele>151</ele>
        <time>2017-12-22T17:50:19Z</time>
      </trkpt>
      <trkpt lat="47.08245" lon="1.18612">
        <ele>151</ele>
        <time>2017-12-22T17:51:19Z</time>
      </trkpt>
      <trkpt lat="47.08109" lon="1.18796">
        <ele>151</ele>
        <time>2017-12-22T17:52:19Z</time>
      </trkpt>
      <trkpt lat="47.08014" lon="1.18906">
        <ele>150</ele>
        <time>2017-12-22T17:53:19Z</time>
      </trkpt>
      <trkpt lat="47.07898" lon="1.18994">
        <ele>151</ele>
        <time>2017-12-22T17:54:19Z</time>
      </trkpt>
      <trkpt lat="47.078" lon="1.1909">
        <ele>149</ele>
        <time>2017-12-22T17:55:19Z</time>
      </trkpt>
      <trkpt lat="47.07754" lon="1.19105">
        <ele>150</ele>
        <time>2017-12-22T17:56:19Z</time>
      </trkpt>
      <trkpt lat="47.07712" lon="1.1912">
        <ele>150</ele>
        <time>2017-12-22T17:57:19Z</time>
      </trkpt>
      <trkpt lat="47.07623" lon="1.19131">
        <ele>150</ele>
        <time>2017-12-22T17:58:19Z</time>
      </trkpt>
      <trkpt lat="47.07578" lon="1.19176">
        <ele>146</ele>
        <time>2017-12-22T17:59:19Z</time>
      </trkpt>
      <trkpt lat="47.07554" lon="1.19198">
        <ele>145</ele>
        <time>2017-12-22T18:00:19Z</time>
      </trkpt>
      <trkpt lat="47.07529" lon="1.19174">
        <ele>146</ele>
        <time>2017-12-22T18:01:19Z</time>
      </trkpt>
      <trkpt lat="47.07475" lon="1.19161">
        <ele>147</ele>
        <time>2017-12-22T18:02:19Z</time>
      </trkpt>
      <trkpt lat="47.07433" lon="1.19157">
        <ele>149</ele>
        <time>2017-12-22T18:03:19Z</time>
      </trkpt>
      <trkpt lat="47.07393" lon="1.19165">
        <ele>149</ele>
        <time>2017-12-22T18:04:19Z</time>
      </trkpt>
      <trkpt lat="47.07328" lon="1.19193">
        <ele>148</ele>
        <time>2017-12-22T18:05:19Z</time>
      </trkpt>
      <trkpt lat="47.07088" lon="1.19459">
        <ele>140</ele>
        <time>2017-12-22T18:06:19Z</time>
      </trkpt>
      <trkpt lat="47.07063" lon="1.19496">
        <ele>138</ele>
        <time>2017-12-22T18:07:19Z</time>
      </trkpt>
      <trkpt lat="47.07013" lon="1.19492">
        <ele>138</ele>
        <time>2017-12-22T18:08:19Z</time>
      </trkpt>
      <trkpt lat="47.06935" lon="1.19451">
        <ele>140</ele>
        <time>2017-12-22T18:09:19Z</time>
      </trkpt>
      <trkpt lat="47.06859" lon="1.19449">
        <ele>141</ele>
        <time>2017-12-22T18:10:19Z</time>
      </trkpt>
      <trkpt lat="47.06679" lon="1.19414">
        <ele>144</ele>
        <time>2017-12-22T18:11:19Z</time>
      </trkpt>
      <trkpt lat="47.06565" lon="1.19159">
        <ele>149</ele>
        <time>2017-12-22T18:12:19Z</time>
      </trkpt>
      <trkpt lat="47.06435" lon="1.18874">
        <ele>147</ele>
        <time>2017-12-22T18:13:19Z</time>
      </trkpt>
      <trkpt lat="47.06382" lon="1.18773">
        <ele>148</ele>
        <time>2017-12-22T18:14:19Z</time>
      </trkpt>
      <trkpt lat="47.06344" lon="1.18689">
        <ele>150</ele>
        <time>2017-12-22T18:15:19Z</time>
      </trkpt>
      <trkpt lat="47.06291" lon="1.18545">
        <ele>154</ele>
        <time>2017-12-22T18:16:19Z</time>
      </trkpt>
      <trkpt lat="47.06113" lon="1.18176">
        <ele>154</ele>
        <time>2017-12-22T18:17:19Z</time>
      </trkpt>
      <trkpt lat="47.06011" lon="1.18142">
        <ele>153</ele>
        <time>2017-12-22T18:18:19Z</time>
      </trkpt>
      <trkpt lat="47.05958" lon="1.18125">
        <ele>152</ele>
        <time>2017-12-22T18:19:19Z</time>
      </trkpt>
      <trkpt lat="47.05787" lon="1.1808">
        <ele>152</ele>
        <time>2017-12-22T18:20:19Z</time>
      </trkpt>
      <trkpt lat="47.05783" lon="1.18163">
        <ele>153</ele>
        <time>2017-12-22T18:21:19Z</time>
      </trkpt>
      <trkpt lat="47.05765" lon="1.18264">
        <ele>152</ele>
        <time>2017-12-22T18:22:19Z</time>
      </trkpt>
      <trkpt lat="47.05767" lon="1.18406">
        <ele>149</ele>
        <time>2017-12-22T18:23:19Z</time>
      </trkpt>
      <trkpt lat="47.05736" lon="1.18509">
        <ele>148</ele>
        <time>2017-12-22T18:24:19Z</time>
      </trkpt>
      <trkpt lat="47.05729" lon="1.18633">
        <ele>149</ele>
        <time>2017-12-22T18:25:19Z</time>
      </trkpt>
      <trkpt lat="47.05682" lon="1.1873">
        <ele>149</ele>
        <time>2017-12-22T18:26:19Z</time>
      </trkpt>
      <trkpt lat="47.05673" lon="1.18769">
        <ele>148</ele>
        <time>2017-12-22T18:27:19Z</time>
      </trkpt>
      <trkpt lat="47.05666" lon="1.18824">
        <ele>148</ele>
        <time>2017-12-22T18:28:19Z</time>
      </trkpt>
      <trkpt lat="47.0566" lon="1.18917">
        <ele>149</ele>
        <time>2017-12-22T18:29:19Z</time>
      </trkpt>
      <trkpt lat="47.05657" lon="1.19056">
        <ele>145</ele>
        <time>2017-12-22T18:30:19Z</time>
      </trkpt>
      <trkpt lat="47.05536" lon="1.19181">
        <ele>139</ele>
        <time>2017-12-22T18:31:19Z</time>
      </trkpt>
      <trkpt lat="47.0524" lon="1.19479">
        <ele>124</ele>
        <time>2017-12-22T18:32:19Z</time>
      </trkpt>
      <trkpt lat="47.05235" lon="1.19537">
        <ele>124</ele>
        <time>2017-12-22T18:33:19Z</time>
      </trkpt>
      <trkpt lat="47.05268" lon="1.19631">
        <ele>122</ele>
        <time>2017-12-22T18:34:19Z</time>
      </trkpt>
      <trkpt lat="47.05297" lon="1.19723">
        <ele>120</ele>
        <time>2017-12-22T18:35:19Z</time>
      </trkpt>
      <trkpt lat="47.05315" lon="1.19794">
        <ele>119</ele>
        <time>2017-12-22T18:36:19Z</time>
      </trkpt>
      <trkpt lat="47.05343" lon="1.19811">
        <ele>120</ele>
        <time>2017-12-22T18:37:19Z</time>
      </trkpt>
      <trkpt lat="47.05375" lon="1.19824">
        <ele>121</ele>
        <time>2017-12-22T18:38:19Z</time>
      </trkpt>
      <trkpt lat="47.05401" lon="1.19889">
        <ele>120</ele>
        <time>2017-12-22T18:39:19Z</time>
      </trkpt>
      <trkpt lat="47.05449" lon="1.19934">
        <ele>120</ele>
        <time>2017-12-22T18:40:19Z</time>
      </trkpt>
      <trkpt lat="47.0549" lon="1.19981">
        <ele>119</ele>
        <time>2017-12-22T18:41:19Z</time>
      </trkpt>
      <trkpt lat="47.0552" lon="1.19996">
        <ele>119</ele>
        <time>2017-12-22T18:42:19Z</time>
      </trkpt>
      <trkpt lat="47.05683" lon="1.19891">
        <ele>132</ele>
        <time>2017-12-22T18:43:19Z</time>
      </trkpt>
      <trkpt lat="47.05683" lon="1.19927">
        <ele>130</ele>
        <time>2017-12-22T18:44:19Z</time>
      </trkpt>
      <trkpt lat="47.05666" lon="1.20015">
        <ele>124</ele>
        <time>2017-12-22T18:45:19Z</time>
      </trkpt>
      <trkpt lat="47.05805" lon="1.19944">
        <ele>131</ele>
        <time>2017-12-22T18:46:19Z</time>
      </trkpt>
      <trkpt lat="47.05879" lon="1.19889">
        <ele>133</ele>
        <time>2017-12-22T18:47:19Z</time>
      </trkpt>
      <trkpt lat="47.05948" lon="1.19837">
        <ele>134</ele>
        <time>2017-12-22T18:48:19Z</time>
      </trkpt>
      <trkpt lat="47.05984" lon="1.19826">
        <ele>135</ele>
        <time>2017-12-22T18:49:19Z</time>
      </trkpt>
      <trkpt lat="47.06024" lon="1.19826">
        <ele>135</ele>
        <time>2017-12-22T18:50:19Z</time>
      </trkpt>
      <trkpt lat="47.06104" lon="1.19859">
        <ele>136</ele>
        <time>2017-12-22T18:51:19Z</time>
      </trkpt>
      <trkpt lat="47.06163" lon="1.19874">
        <ele>136</ele>
        <time>2017-12-22T18:52:19Z</time>
      </trkpt>
      <trkpt lat="47.06234" lon="1.19917">
        <ele>135</ele>
        <time>2017-12-22T18:53:19Z</time>
      </trkpt>
      <trkpt lat="47.06348" lon="1.19959">
        <ele>134</ele>
        <time>2017-12-22T18:54:19Z</time>
      </trkpt>
      <trkpt lat="47.06455" lon="1.19979">
        <ele>133</ele>
        <time>2017-12-22T18:55:19Z</time>
      </trkpt>
      <trkpt lat="47.06593" lon="1.20002">
        <ele>132</ele>
        <time>2017-12-22T18:56:19Z</time>
      </trkpt>
      <trkpt lat="47.06638" lon="1.20009">
        <ele>134</ele>
        <time>2017-12-22T18:57:19Z</time>
      </trkpt>
      <trkpt lat="47.06693" lon="1.20045">
        <ele>133</ele>
        <time>2017-12-22T18:58:19Z</time>
      </trkpt>
      <trkpt lat="47.06987" lon="1.20238">
        <ele>142</ele>
        <time>2017-12-22T18:59:19Z</time>
      </trkpt>
      <trkpt lat="47.07068" lon="1.20296">
        <ele>142</ele>
        <time>2017-12-22T19:00:19Z</time>
      </trkpt>
      <trkpt lat="47.07225" lon="1.20399">
        <ele>144</ele>
        <time>2017-12-22T19:01:19Z</time>
      </trkpt>
      <trkpt lat="47.07244" lon="1.20444">
        <ele>144</ele>
        <time>2017-12-22T19:02:19Z</time>
      </trkpt>
      <trkpt lat="47.07236" lon="1.20489">
        <ele>145</ele>
        <time>2017-12-22T19:03:19Z</time>
      </trkpt>
      <trkpt lat="47.0724" lon="1.20534">
        <ele>144</ele>
        <time>2017-12-22T19:04:19Z</time>
      </trkpt>
      <trkpt lat="47.0725" lon="1.20573">
        <ele>143</ele>
        <time>2017-12-22T19:05:19Z</time>
      </trkpt>
      <trkpt lat="47.073" lon="1.20582">
        <ele>143</ele>
        <time>2017-12-22T19:06:19Z</time>
      </trkpt>
      <trkpt lat="47.07358" lon="1.20597">
        <ele>142</ele>
        <time>2017-12-22T19:07:19Z</time>
      </trkpt>
      <trkpt lat="47.07385" lon="1.20629">
        <ele>141</ele>
        <time>2017-12-22T19:08:19Z</time>
      </trkpt>
      <trkpt lat="47.07409" lon="1.20704">
        <ele>139</ele>
        <time>2017-12-22T19:09:19Z</time>
      </trkpt>
      <trkpt lat="47.07439" lon="1.2074">
        <ele>138</ele>
        <time>2017-12-22T19:10:19Z</time>
      </trkpt>
      <trkpt lat="47.07478" lon="1.20816">
        <ele>138</ele>
        <time>2017-12-22T19:11:19Z</time>
      </trkpt>
      <trkpt lat="47.07531" lon="1.20901">
        <ele>136</ele>
        <time>2017-12-22T19:12:19Z</time>
      </trkpt>
      <trkpt lat="47.07551" lon="1.20946">
        <ele>136</ele>
        <time>2017-12-22T19:13:19Z</time>
      </trkpt>
      <trkpt lat="47.07589" lon="1.20987">
        <ele>135</ele>
        <time>2017-12-22T19:14:19Z</time>
      </trkpt>
      <trkpt lat="47.07618" lon="1.21037">
        <ele>133</ele>
        <time>2017-12-22T19:15:19Z</time>
      </trkpt>
      <trkpt lat="47.07664" lon="1.21073">
        <ele>132</ele>
        <time>2017-12-22T19:16:19Z</time>
      </trkpt>
      <trkpt lat="47.07687" lon="1.21105">
        <ele>131</ele>
        <time>2017-12-22T19:17:19Z</time>
      </trkpt>
      <trkpt lat="47.07741" lon="1.21131">
        <ele>129</ele>
        <time>2017-12-22T19:18:19Z</time>
      </trkpt>
      <trkpt lat="47.07773" lon="1.21152">
        <ele>128</ele>
        <time>2017-12-22T19:19:19Z</time>
      </trkpt>
      <trkpt lat="47.07811" lon="1.21208">
        <ele>126</ele>
        <time>2017-12-22T19:20:19Z</time>
      </trkpt>
      <trkpt lat="47.07887" lon="1.21292">
        <ele>122</ele>
        <time>2017-12-22T19:21:19Z</time>
      </trkpt>
      <trkpt lat="47.07979" lon="1.2141">
        <ele>117</ele>
        <time>2017-12-22T19:22:19Z</time>
      </trkpt>
      <trkpt lat="47.08016" lon="1.21468">
        <ele>118</ele>
        <time>2017-12-22T19:23:19Z</time>
      </trkpt>
      <trkpt lat="47.08136" lon="1.21715">
        <ele>123</ele>
        <time>2017-12-22T19:24:19Z</time>
      </trkpt>
      <trkpt lat="47.08191" lon="1.21745">
        <ele>122</ele>
        <time>2017-12-22T19:25:19Z</time>
      </trkpt>
      <trkpt lat="47.0833" lon="1.21792">
        <ele>116</ele>
        <time>2017-12-22T19:26:19Z</time>
      </trkpt>
      <trkpt lat="47.0841" lon="1.21824">
        <ele>113</ele>
        <time>2017-12-22T19:27:19Z</time>
      </trkpt>
      <trkpt lat="47.0846" lon="1.21846">
        <ele>112</ele>
        <time>2017-12-22T19:28:19Z</time>
      </trkpt>
      <trkpt lat="47.08562" lon="1.21837">
        <ele>110</ele>
        <time>2017-12-22T19:29:19Z</time>
      </trkpt>
      <trkpt lat="47.08652" lon="1.21828">
        <ele>112</ele>
        <time>2017-12-22T19:30:19Z</time>
      </trkpt>
      <trkpt lat="47.08716" lon="1.21811">
        <ele>115</ele>
        <time>2017-12-22T19:31:19Z</time>
      </trkpt>
      <trkpt lat="47.08771" lon="1.21783">
        <ele>120</ele>
        <time>2017-12-22T19:32:19Z</time>
      </trkpt>
      <trkpt lat="47.08863" lon="1.21743">
        <ele>124</ele>
        <time>2017-12-22T19:33:19Z</time>
      </trkpt>
      <trkpt lat="47.08955" lon="1.217">
        <ele>124</ele>
        <time>2017-12-22T19:34:19Z</time>
      </trkpt>
      <trkpt lat="47.08926" lon="1.21713">
        <ele>124</ele>
        <time>2017-12-22T19:35:19Z</time>
      </trkpt>
      <trkpt lat="47.08988" lon="1.21682">
        <ele>125</ele>
        <time>2017-12-22T19:36:19Z</time>
      </trkpt>
      <trkpt lat="47.08957" lon="1.21616">
        <ele>126</ele>
        <time>2017-12-22T19:37:19Z</time>
      </trkpt>
      <trkpt lat="47.08917" lon="1.21522">
        <ele>129</ele>
        <time>2017-12-22T19:38:19Z</time>
      </trkpt>
      <trkpt lat="47.08895" lon="1.21431">
        <ele>130</ele>
        <time>2017-12-22T19:39:19Z</time>
      </trkpt>
      <trkpt lat="47.09075" lon="1.21339">
        <ele>134</ele>
        <time>2017-12-22T19:40:19Z</time>
      </trkpt>
      <trkpt lat="47.09062" lon="1.21247">
        <ele>137</ele>
        <time>2017-12-22T19:41:19Z</time>
      </trkpt>
      <trkpt lat="47.09074" lon="1.21137">
        <ele>138</ele>
        <time>2017-12-22T19:42:19Z</time>
      </trkpt>
      <trkpt lat="47.091" lon="1.21125">
        <ele>139</ele>
        <time>2017-12-22T19:43:19Z</time>
      </trkpt>
      <trkpt lat="47.09306" lon="1.21015">
        <ele>139</ele>
        <time>2017-12-22T19:44:19Z</time>
      </trkpt>
      <trkpt lat="47.09337" lon="1.21013">
        <ele>140</ele>
        <time>2017-12-22T19:45:19Z</time>
      </trkpt>
      <trkpt lat="47.09375" lon="1.21028">
        <ele>140</ele>
        <time>2017-12-22T19:46:19Z</time>
      </trkpt>
      <trkpt lat="47.094" lon="1.21007">
        <ele>140</ele>
        <time>2017-12-22T19:47:19Z</time>
      </trkpt>
      <trkpt lat="47.09417" lon="1.20987">
        <ele>140</ele>
        <time>2017-12-22T19:48:19Z</time>
      </trkpt>
      <trkpt lat="47.09429" lon="1.20959">
        <ele>140</ele>
        <time>2017-12-22T19:49:19Z</time>
      </trkpt>
      <trkpt lat="47.0943" lon="1.20912">
        <ele>139</ele>
        <time>2017-12-22T19:50:19Z</time>
      </trkpt>
      <trkpt lat="47.09475" lon="1.20897">
        <ele>137</ele>
        <time>2017-12-22T19:51:19Z</time>
      </trkpt>
      <trkpt lat="47.09516" lon="1.20882">
        <ele>135</ele>
        <time>2017-12-22T19:52:19Z</time>
      </trkpt>
      <trkpt lat="47.09556" lon="1.20843">
        <ele>133</ele>
        <time>2017-12-22T19:53:19Z</time>
      </trkpt>
      <trkpt lat="47.09582" lon="1.20801">
        <ele>130</ele>
        <time>2017-12-22T19:54:19Z</time>
      </trkpt>
      <trkpt lat="47.09605" lon="1.20715">
        <ele>127</ele>
        <time>2017-12-22T19:55:19Z</time>
      </trkpt>
      <trkpt lat="47.09627" lon="1.20672">
        <ele>125</ele>
        <time>2017-12-22T19:56:19Z</time>
      </trkpt>
      <trkpt lat="47.09658" lon="1.20644">
        <ele>123</ele>
        <time>2017-12-22T19:57:19Z</time>
      </trkpt>
      <trkpt lat="47.09711" lon="1.20614">
        <ele>125</ele>
        <time>2017-12-22T19:58:19Z</time>
      </trkpt>
      <trkpt lat="47.09737" lon="1.20599">
        <ele>127</ele>
        <time>2017-12-22T19:59:19Z</time>
      </trkpt>
      <trkpt lat="47.0976" lon="1.20567">
        <ele>129</ele>
        <time>2017-12-22T20:00:19Z</time>
      </trkpt>
      <trkpt lat="47.0979" lon="1.2055">
        <ele>132</ele>
        <time>2017-12-22T20:01:19Z</time>
      </trkpt>
      <trkpt lat="47.09829" lon="1.20513">
        <ele>135</ele>
        <time>2017-12-22T20:02:19Z</time>
      </trkpt>
      <trkpt lat="47.09868" lon="1.20481">
        <ele>136</ele>
        <time>2017-12-22T20:03:19Z</time>
      </trkpt>
      <trkpt lat="47.09901" lon="1.20449">
        <ele>137</ele>
        <time>2017-12-22T20:04:19Z</time>
      </trkpt>
      <trkpt lat="47.09933" lon="1.20412">
        <ele>138</ele>
        <time>2017-12-22T20:05:19Z</time>
      </trkpt>
      <trkpt lat="47.09928" lon="1.20344">
        <ele>139</ele>
        <time>2017-12-22T20:06:19Z</time>
      </trkpt>
      <trkpt lat="47.09959" lon="1.2032">
        <ele>138</ele>
        <time>2017-12-22T20:07:19Z</time>
      </trkpt>
      <trkpt lat="47.10009" lon="1.20303">
        <ele>136</ele>
        <time>2017-12-22T20:08:19Z</time>
      </trkpt>
      <trkpt lat="47.10067" lon="1.20286">
        <ele>133</ele>
        <time>2017-12-22T20:09:19Z</time>
      </trkpt>
      <trkpt lat="47.10107" lon="1.20279">
        <ele>131</ele>
        <time>2017-12-22T20:10:19Z</time>
      </trkpt>
      <trkpt lat="47.10147" lon="1.20268">
        <ele>129</ele>
        <time>2017-12-22T20:11:19Z</time>
      </trkpt>
      <trkpt lat="47.10193" lon="1.20247">
        <ele>128</ele>
        <time>2017-12-22T20:12:19Z</time>
      </trkpt>
      <trkpt lat="47.10223" lon="1.20234">
        <ele>127</ele>
        <time>2017-12-22T20:13:19Z</time>
      </trkpt>
      <trkpt lat="47.10254" lon="1.20219">
        <ele>127</ele>
        <time>2017-12-22T20:14:19Z</time>
      </trkpt>
      <trkpt lat="47.10288" lon="1.20221">
        <ele>125</ele>
        <time>2017-12-22T20:15:19Z</time>
      </trkpt>
      <trkpt lat="47.1032" lon="1.20223">
        <ele>123</ele>
        <time>2017-12-22T20:16:19Z</time>
      </trkpt>
      <trkpt lat="47.10352" lon="1.20213">
        <ele>123</ele>
        <time>2017-12-22T20:17:19Z</time>
      </trkpt>
      <trkpt lat="47.10383" lon="1.20195">
        <ele>123</ele>
        <time>2017-12-22T20:18:19Z</time>
      </trkpt>
      <trkpt lat="47.10429" lon="1.20174">
        <ele>123</ele>
        <time>2017-12-22T20:19:19Z</time>
      </trkpt>
      <trkpt lat="47.10472" lon="1.20148">
        <ele>124</ele>
        <time>2017-12-22T20:20:19Z</time>
      </trkpt>
      <trkpt lat="47.10533" lon="1.20146">
        <ele>124</ele>
        <time>2017-12-22T20:21:19Z</time>
      </trkpt>
      <trkpt lat="47.10556" lon="1.20174">
        <ele>125</ele>
        <time>2017-12-22T20:22:19Z</time>
      </trkpt>
      <trkpt lat="47.10602" lon="1.20183">
        <ele>126</ele>
        <time>2017-12-22T20:23:19Z</time>
      </trkpt>
      <trkpt lat="47.10635" lon="1.20193">
        <ele>127</ele>
        <time>2017-12-22T20:24:19Z</time>
      </trkpt>
      <trkpt lat="47.10688" lon="1.20221">
        <ele>129</ele>
        <time>2017-12-22T20:25:19Z</time>
      </trkpt>
      <trkpt lat="47.10736" lon="1.20245">
        <ele>130</ele>
        <time>2017-12-22T20:26:19Z</time>
      </trkpt>
      <trkpt lat="47.10783" lon="1.20258">
        <ele>131</ele>
        <time>2017-12-22T20:27:19Z</time>
      </trkpt>
      <trkpt lat="47.10894" lon="1.20305">
        <ele>134</ele>
        <time>2017-12-22T20:28:19Z</time>
      </trkpt>
      <trkpt lat="47.10897" lon="1.20236">
        <ele>134</ele>
        <time>2017-12-22T20:29:19Z</time>
      </trkpt>
      <trkpt lat="47.10905" lon="1.20193">
        <ele>135</ele>
        <time>2017-12-22T20:30:19Z</time>
      </trkpt>
      <trkpt lat="47.10924" lon="1.20118">
        <ele>136</ele>
        <time>2017-12-22T20:31:19Z</time>
      </trkpt>
      <trkpt lat="47.1093" lon="1.20062">
        <ele>136</ele>
        <time>2017-12-22T20:32:19Z</time>
      </trkpt>
      <trkpt lat="47.10939" lon="1.20017">
        <ele>137</ele>
        <time>2017-12-22T20:33:19Z</time>
      </trkpt>
      <trkpt lat="47.10939" lon="1.19955">
        <ele>137</ele>
        <time>2017-12-22T20:34:19Z</time>
      </trkpt>
      <trkpt lat="47.10943" lon="1.19882">
        <ele>138</ele>
        <time>2017-12-22T20:35:19Z</time>
      </trkpt>
      <trkpt lat="47.10948" lon="1.19792">
        <ele>140</ele>
        <time>2017-12-22T20:36:19Z</time>
      </trkpt>
      <trkpt lat="47.10958" lon="1.19689">
        <ele>141</ele>
        <time>2017-12-22T20:37:19Z</time>
      </trkpt>
      <trkpt lat="47.11003" lon="1.19296">
        <ele>139</ele>
        <time>2017-12-22T20:38:19Z</time>
      </trkpt>
      <trkpt lat="47.11027" lon="1.19356">
        <ele>139</ele>
        <time>2017-12-22T20:39:19Z</time>
      </trkpt>
      <trkpt lat="47.1105" lon="1.19421">
        <ele>140</ele>
        <time>2017-12-22T20:40:19Z</time>
      </trkpt>
      <trkpt lat="47.11068" lon="1.19472">
        <ele>141</ele>
        <time>2017-12-22T20:41:19Z</time>
      </trkpt>
      <trkpt lat="47.11095" lon="1.1955">
        <ele>141</ele>
        <time>2017-12-22T20:42:19Z</time>
      </trkpt>
      <trkpt lat="47.11114" lon="1.19612">
        <ele>141</ele>
        <time>2017-12-22T20:43:19Z</time>
      </trkpt>
      <trkpt lat="47.11143" lon="1.19655">
        <ele>141</ele>
        <time>2017-12-22T20:44:19Z</time>
      </trkpt>
      <trkpt lat="47.11246" lon="1.1985">
        <ele>141</ele>
        <time>2017-12-22T20:45:19Z</time>
      </trkpt>
      <trkpt lat="47.11272" lon="1.19856">
        <ele>141</ele>
        <time>2017-12-22T20:46:19Z</time>
      </trkpt>
      <trkpt lat="47.11341" lon="1.19949">
        <ele>142</ele>
        <time>2017-12-22T20:47:19Z</time>
      </trkpt>
      <trkpt lat="47.11383" lon="1.19953">
        <ele>142</ele>
        <time>2017-12-22T20:48:19Z</time>
      </trkpt>
      <trkpt lat="47.11457" lon="1.19996">
        <ele>141</ele>
        <time>2017-12-22T20:49:19Z</time>
      </trkpt>
      <trkpt lat="47.11561" lon="1.2006">
        <ele>140</ele>
        <time>2017-12-22T20:50:19Z</time>
      </trkpt>
      <trkpt lat="47.11593" lon="1.20071">
        <ele>140</ele>
        <time>2017-12-22T20:51:19Z</time>
      </trkpt>
      <trkpt lat="47.11631" lon="1.20037">
        <ele>140</ele>
        <time>2017-12-22T20:52:19Z</time>
      </trkpt>
      <trkpt lat="47.11668" lon="1.20011">
        <ele>140</ele>
        <time>2017-12-22T20:53:19Z</time>
      </trkpt>
      <trkpt lat="47.11719" lon="1.19985">
        <ele>140</ele>
        <time>2017-12-22T20:54:19Z</time>
      </trkpt>
      <trkpt lat="47.11811" lon="1.20277">
        <ele>137</ele>
        <time>2017-12-22T20:55:19Z</time>
      </trkpt>
      <trkpt lat="47.11942" lon="1.20277">
        <ele>137</ele>
        <time>2017-12-22T20:56:19Z</time>
      </trkpt>
      <trkpt lat="47.12011" lon="1.20281">
        <ele>134</ele>
        <time>2017-12-22T20:57:19Z</time>
      </trkpt>
      <trkpt lat="47.12065" lon="1.20277">
        <ele>133</ele>
        <time>2017-12-22T20:58:19Z</time>
      </trkpt>
      <trkpt lat="47.12287" lon="1.2026">
        <ele>136</ele>
        <time>2017-12-22T20:59:19Z</time>
      </trkpt>
      <trkpt lat="47.12437" lon="1.20245">
        <ele>137</ele>
        <time>2017-12-22T21:00:19Z</time>
      </trkpt>
      <trkpt lat="47.12569" lon="1.20311">
        <ele>137</ele>
        <time>2017-12-22T21:01:19Z</time>
      </trkpt>
      <trkpt lat="47.12655" lon="1.20346">
        <ele>139</ele>
        <time>2017-12-22T21:02:19Z</time>
      </trkpt>
      <trkpt lat="47.12904" lon="1.20273">
        <ele>134</ele>
        <time>2017-12-22T21:03:19Z</time>
      </trkpt>
      <trkpt lat="47.13011" lon="1.20271">
        <ele>135</ele>
        <time>2017-12-22T21:04:19Z</time>
      </trkpt>
      <trkpt lat="47.13068" lon="1.20271">
        <ele>135</ele>
        <time>2017-12-22T21:05:19Z</time>
      </trkpt>
      <trkpt lat="47.13142" lon="1.20249">
        <ele>133</ele>
        <time>2017-12-22T21:06:19Z</time>
      </trkpt>
      <trkpt lat="47.13215" lon="1.20225">
        <ele>134</ele>
        <time>2017-12-22T21:07:19Z</time>
      </trkpt>
      <trkpt lat="47.13291" lon="1.20208">
        <ele>134</ele>
        <time>2017-12-22T21:08:19Z</time>
      </trkpt>
      <trkpt lat="47.1348" lon="1.20217">
        <ele>130</ele>
        <time>2017-12-22T21:09:19Z</time>
      </trkpt>
      <trkpt lat="47.13544" lon="1.2021">
        <ele>128</ele>
        <time>2017-12-22T21:10:19Z</time>
      </trkpt>
      <trkpt lat="47.13722" lon="1.20198">
        <ele>123</ele>
        <time>2017-12-22T21:11:19Z</time>
      </trkpt>
      <trkpt lat="47.13726" lon="1.20133">
        <ele>124</ele>
        <time>2017-12-22T21:12:19Z</time>
      </trkpt>
      <trkpt lat="47.13744" lon="1.20043">
        <ele>126</ele>
        <time>2017-12-22T21:13:19Z</time>
      </trkpt>
      <trkpt lat="47.13763" lon="1.19955">
        <ele>128</ele>
        <time>2017-12-22T21:14:19Z</time>
      </trkpt>
      <trkpt lat="47.13774" lon="1.19882">
        <ele>130</ele>
        <time>2017-12-22T21:15:19Z</time>
      </trkpt>
      <trkpt lat="47.13777" lon="1.19809">
        <ele>131</ele>
        <time>2017-12-22T21:16:19Z</time>
      </trkpt>
      <trkpt lat="47.13874" lon="1.19844">
        <ele>130</ele>
        <time>2017-12-22T21:17:19Z</time>
      </trkpt>
      <trkpt lat="47.14033" lon="1.19884">
        <ele>126</ele>
        <time>2017-12-22T21:18:19Z</time>
      </trkpt>
      <trkpt lat="47.14265" lon="1.1988">
        <ele>120</ele>
        <time>2017-12-22T21:19:19Z</time>
      </trkpt>
      <trkpt lat="47.14402" lon="1.19876">
        <ele>116</ele>
        <time>2017-12-22T21:20:19Z</time>
      </trkpt>
      <trkpt lat="47.14538" lon="1.19876">
        <ele>112</ele>
        <time>2017-12-22T21:21:19Z</time>
      </trkpt>
      <trkpt lat="47.14635" lon="1.19878">
        <ele>107</ele>
        <time>2017-12-22T21:22:19Z</time>
      </trkpt>
      <trkpt lat="47.14701" lon="1.19893">
        <ele>104</ele>
        <time>2017-12-22T21:23:19Z</time>
      </trkpt>
      <trkpt lat="47.14786" lon="1.19919">
        <ele>100</ele>
        <time>2017-12-22T21:24:19Z</time>
      </trkpt>
      <trkpt lat="47.14824" lon="1.19932">
        <ele>99</ele>
        <time>2017-12-22T21:25:19Z</time>
      </trkpt>
      <trkpt lat="47.14886" lon="1.19974">
        <ele>100</ele>
        <time>2017-12-22T21:26:19Z</time>
      </trkpt>
      <trkpt lat="47.14951" lon="1.19994">
        <ele>101</ele>
        <time>2017-12-22T21:27:19Z</time>
      </trkpt>
      <trkpt lat="47.15019" lon="1.20015">
        <ele>103</ele>
        <time>2017-12-22T21:28:19Z</time>
      </trkpt>
      <trkpt lat="47.15048" lon="1.19893">
        <ele>105</ele>
        <time>2017-12-22T21:29:19Z</time>
      </trkpt>
      <trkpt lat="47.15091" lon="1.1973">
        <ele>106</ele>
        <time>2017-12-22T21:30:19Z</time>
      </trkpt>
      <trkpt lat="47.15104" lon="1.19678">
        <ele>105</ele>
        <time>2017-12-22T21:31:19Z</time>
      </trkpt>
      <trkpt lat="47.15132" lon="1.1961">
        <ele>104</ele>
        <time>2017-12-22T21:32:19Z</time>
      </trkpt>
      <trkpt lat="47.15149" lon="1.19509">
        <ele>103</ele>
        <time>2017-12-22T21:33:19Z</time>
      </trkpt>
      <trkpt lat="47.15193" lon="1.19505">
        <ele>100</ele>
        <time>2017-12-22T21:34:19Z</time>
      </trkpt>
      <trkpt lat="47.15234" lon="1.19511">
        <ele>97</ele>
        <time>2017-12-22T21:35:19Z</time>
      </trkpt>
      <trkpt lat="47.1526" lon="1.19468">
        <ele>96</ele>
        <time>2017-12-22T21:36:19Z</time>
      </trkpt>
      <trkpt lat="47.15283" lon="1.19356">
        <ele>100</ele>
        <time>2017-12-22T21:37:19Z</time>
      </trkpt>
      <trkpt lat="47.15298" lon="1.19314">
        <ele>99</ele>
        <time>2017-12-22T21:38:19Z</time>
      </trkpt>
      <trkpt lat="47.1534" lon="1.19292">
        <ele>94</ele>
        <time>2017-12-22T21:39:19Z</time>
      </trkpt>
    </trkseg>
  </trk>
  <trk>
    <name><![CDATA[8089308-Liaison Le Liège 001]]></name>
    <trkseg>
      <trkpt lat="47.25325" lon="1.12005">
        <ele>116</ele>
        <time>2017-12-22T15:48:28Z</time>
      </trkpt>
      <trkpt lat="47.25264" lon="1.1219">
        <ele>108</ele>
        <time>2017-12-22T15:49:28Z</time>
      </trkpt>
      <trkpt lat="47.25208" lon="1.12357">
        <ele>98</ele>
        <time>2017-12-22T15:50:28Z</time>
      </trkpt>
      <trkpt lat="47.25179" lon="1.12494">
        <ele>104</ele>
        <time>2017-12-22T15:51:28Z</time>
      </trkpt>
      <trkpt lat="47.25171" lon="1.12614">
        <ele>114</ele>
        <time>2017-12-22T15:52:28Z</time>
      </trkpt>
      <trkpt lat="47.25191" lon="1.12717">
        <ele>118</ele>
        <time>2017-12-22T15:53:28Z</time>
      </trkpt>
      <trkpt lat="47.25232" lon="1.1282">
        <ele>120</ele>
        <time>2017-12-22T15:54:28Z</time>
      </trkpt>
      <trkpt lat="47.25264" lon="1.12898">
        <ele>121</ele>
        <time>2017-12-22T15:55:28Z</time>
      </trkpt>
      <trkpt lat="47.25296" lon="1.12992">
        <ele>122</ele>
        <time>2017-12-22T15:56:28Z</time>
      </trkpt>
      <trkpt lat="47.25293" lon="1.13065">
        <ele>121</ele>
        <time>2017-12-22T15:57:28Z</time>
      </trkpt>
    </trkseg>
  </trk>
  <trk>
    <name><![CDATA[Cere la ronde par Epeigne les bois]]></name>
    <trkseg>
      <trkpt lat="47.26452" lon="1.18893">
        <ele>134</ele>
      </trkpt>
      <trkpt lat="47.26389" lon="1.18899">
        <ele>134</ele>
      </trkpt>
      <trkpt lat="47.26336" lon="1.18869">
        <ele>133</ele>
      </trkpt>
      <trkpt lat="47.26311" lon="1.18906">
        <ele>135</ele>
      </trkpt>
      <trkpt lat="47.26307" lon="1.18929">
        <ele>136</ele>
      </trkpt>
      <trkpt lat="47.26397" lon="1.19165">
        <ele>144</ele>
      </trkpt>
      <trkpt lat="47.26517" lon="1.19443">
        <ele>149</ele>
      </trkpt>
      <trkpt lat="47.26351" lon="1.19513">
        <ele>136</ele>
      </trkpt>
      <trkpt lat="47.26329" lon="1.1953">
        <ele>133</ele>
      </trkpt>
      <trkpt lat="47.26291" lon="1.1961">
        <ele>127</ele>
      </trkpt>
      <trkpt lat="47.26353" lon="1.19737">
        <ele>130</ele>
      </trkpt>
      <trkpt lat="47.26688" lon="1.2013">
        <ele>141</ele>
      </trkpt>
      <trkpt lat="47.27153" lon="1.2051">
        <ele>150</ele>
      </trkpt>
      <trkpt lat="47.27147" lon="1.20656">
        <ele>148</ele>
      </trkpt>
      <trkpt lat="47.27137" lon="1.20801">
        <ele>149</ele>
      </trkpt>
      <trkpt lat="47.27189" lon="1.20962">
        <ele>148</ele>
      </trkpt>
      <trkpt lat="47.27291" lon="1.21089">
        <ele>144</ele>
      </trkpt>
      <trkpt lat="47.27439" lon="1.21287">
        <ele>142</ele>
      </trkpt>
      <trkpt lat="47.27588" lon="1.21373">
        <ele>143</ele>
      </trkpt>
      <trkpt lat="47.27677" lon="1.21438">
        <ele>144</ele>
      </trkpt>
      <trkpt lat="47.27738" lon="1.21466">
        <ele>143</ele>
      </trkpt>
      <trkpt lat="47.27783" lon="1.21521">
        <ele>142</ele>
      </trkpt>
      <trkpt lat="47.27824" lon="1.21524">
        <ele>142</ele>
      </trkpt>
      <trkpt lat="47.2788" lon="1.21503">
        <ele>144</ele>
      </trkpt>
      <trkpt lat="47.27881" lon="1.21427">
        <ele>142</ele>
      </trkpt>
      <trkpt lat="47.27926" lon="1.21369">
        <ele>143</ele>
      </trkpt>
      <trkpt lat="47.27959" lon="1.21349">
        <ele>144</ele>
      </trkpt>
      <trkpt lat="47.2799" lon="1.21282">
        <ele>142</ele>
      </trkpt>
      <trkpt lat="47.28073" lon="1.21251">
        <ele>142</ele>
      </trkpt>
      <trkpt lat="47.28138" lon="1.21263">
        <ele>141</ele>
      </trkpt>
      <trkpt lat="47.28215" lon="1.21317">
        <ele>142</ele>
      </trkpt>
      <trkpt lat="47.28258" lon="1.21356">
        <ele>144</ele>
      </trkpt>
      <trkpt lat="47.28276" lon="1.21339">
        <ele>143</ele>
      </trkpt>
      <trkpt lat="47.28422" lon="1.21323">
        <ele>140</ele>
      </trkpt>
      <trkpt lat="47.28534" lon="1.21264">
        <ele>139</ele>
      </trkpt>
      <trkpt lat="47.28669" lon="1.21291">
        <ele>138</ele>
      </trkpt>
      <trkpt lat="47.28744" lon="1.21296">
        <ele>137</ele>
      </trkpt>
      <trkpt lat="47.28831" lon="1.21479">
        <ele>129</ele>
      </trkpt>
      <trkpt lat="47.28893" lon="1.21571">
        <ele>125</ele>
      </trkpt>
      <trkpt lat="47.28943" lon="1.21427">
        <ele>123</ele>
      </trkpt>
      <trkpt lat="47.2898" lon="1.21324">
        <ele>124</ele>
      </trkpt>
      <trkpt lat="47.29038" lon="1.21287">
        <ele>122</ele>
      </trkpt>
      <trkpt lat="47.29083" lon="1.21263">
        <ele>122</ele>
      </trkpt>
      <trkpt lat="47.29085" lon="1.21223">
        <ele>121</ele>
      </trkpt>
      <trkpt lat="47.29069" lon="1.21193">
        <ele>121</ele>
      </trkpt>
      <trkpt lat="47.29075" lon="1.2114">
        <ele>120</ele>
      </trkpt>
      <trkpt lat="47.29095" lon="1.2109">
        <ele>119</ele>
      </trkpt>
      <trkpt lat="47.29087" lon="1.21028">
        <ele>117</ele>
      </trkpt>
      <trkpt lat="47.29053" lon="1.20919">
        <ele>117</ele>
      </trkpt>
      <trkpt lat="47.29032" lon="1.20933">
        <ele>118</ele>
      </trkpt>
      <trkpt lat="47.28969" lon="1.20921">
        <ele>119</ele>
      </trkpt>
      <trkpt lat="47.28936" lon="1.20932">
        <ele>120</ele>
      </trkpt>
      <trkpt lat="47.28841" lon="1.20934">
        <ele>121</ele>
      </trkpt>
      <trkpt lat="47.28787" lon="1.20928">
        <ele>122</ele>
      </trkpt>
      <trkpt lat="47.28791" lon="1.20799">
        <ele>127</ele>
      </trkpt>
      <trkpt lat="47.28789" lon="1.20687">
        <ele>131</ele>
      </trkpt>
      <trkpt lat="47.28822" lon="1.206">
        <ele>133</ele>
      </trkpt>
      <trkpt lat="47.28897" lon="1.20407">
        <ele>130</ele>
      </trkpt>
      <trkpt lat="47.28803" lon="1.20277">
        <ele>132</ele>
      </trkpt>
      <trkpt lat="47.28678" lon="1.20124">
        <ele>140</ele>
      </trkpt>
      <trkpt lat="47.28564" lon="1.19951">
        <ele>143</ele>
      </trkpt>
      <trkpt lat="47.28445" lon="1.19746">
        <ele>140</ele>
      </trkpt>
      <trkpt lat="47.2839" lon="1.19634">
        <ele>139</ele>
      </trkpt>
      <trkpt lat="47.28284" lon="1.19405">
        <ele>132</ele>
      </trkpt>
      <trkpt lat="47.28263" lon="1.19307">
        <ele>131</ele>
      </trkpt>
      <trkpt lat="47.28359" lon="1.19278">
        <ele>130</ele>
      </trkpt>
      <trkpt lat="47.28409" lon="1.19257">
        <ele>129</ele>
      </trkpt>
      <trkpt lat="47.28512" lon="1.19225">
        <ele>129</ele>
      </trkpt>
      <trkpt lat="47.28563" lon="1.19128">
        <ele>128</ele>
      </trkpt>
      <trkpt lat="47.28638" lon="1.19209">
        <ele>131</ele>
      </trkpt>
      <trkpt lat="47.28706" lon="1.19264">
        <ele>134</ele>
      </trkpt>
      <trkpt lat="47.28834" lon="1.19288">
        <ele>135</ele>
      </trkpt>
      <trkpt lat="47.28922" lon="1.19279">
        <ele>134</ele>
      </trkpt>
      <trkpt lat="47.28888" lon="1.19227">
        <ele>134</ele>
      </trkpt>
      <trkpt lat="47.28862" lon="1.19129">
        <ele>133</ele>
      </trkpt>
      <trkpt lat="47.28832" lon="1.19099">
        <ele>133</ele>
      </trkpt>
      <trkpt lat="47.28825" lon="1.19047">
        <ele>132</ele>
      </trkpt>
      <trkpt lat="47.28851" lon="1.18739">
        <ele>131</ele>
      </trkpt>
      <trkpt lat="47.28907" lon="1.18737">
        <ele>130</ele>
      </trkpt>
      <trkpt lat="47.29009" lon="1.18762">
        <ele>128</ele>
      </trkpt>
      <trkpt lat="47.29047" lon="1.18758">
        <ele>128</ele>
      </trkpt>
      <trkpt lat="47.29052" lon="1.18615">
        <ele>127</ele>
      </trkpt>
      <trkpt lat="47.29036" lon="1.18563">
        <ele>128</ele>
      </trkpt>
      <trkpt lat="47.29042" lon="1.18487">
        <ele>129</ele>
      </trkpt>
      <trkpt lat="47.29058" lon="1.18295">
        <ele>132</ele>
      </trkpt>
      <trkpt lat="47.29148" lon="1.18279">
        <ele>133</ele>
      </trkpt>
      <trkpt lat="47.2914" lon="1.182">
        <ele>134</ele>
      </trkpt>
      <trkpt lat="47.29101" lon="1.18066">
        <ele>134</ele>
      </trkpt>
      <trkpt lat="47.29046" lon="1.17941">
        <ele>133</ele>
      </trkpt>
      <trkpt lat="47.28968" lon="1.17867">
        <ele>133</ele>
      </trkpt>
      <trkpt lat="47.28925" lon="1.17821">
        <ele>132</ele>
      </trkpt>
      <trkpt lat="47.28936" lon="1.17749">
        <ele>132</ele>
      </trkpt>
      <trkpt lat="47.28946" lon="1.17629">
        <ele>131</ele>
      </trkpt>
      <trkpt lat="47.28942" lon="1.17527">
        <ele>129</ele>
      </trkpt>
      <trkpt lat="47.28942" lon="1.17438">
        <ele>128</ele>
      </trkpt>
      <trkpt lat="47.28927" lon="1.17352">
        <ele>121</ele>
      </trkpt>
      <trkpt lat="47.2895" lon="1.17348">
        <ele>123</ele>
      </trkpt>
      <trkpt lat="47.28918" lon="1.17306">
        <ele>115</ele>
      </trkpt>
      <trkpt lat="47.28881" lon="1.17211">
        <ele>112</ele>
      </trkpt>
      <trkpt lat="47.28848" lon="1.17056">
        <ele>121</ele>
      </trkpt>
      <trkpt lat="47.28859" lon="1.17023">
        <ele>123</ele>
      </trkpt>
      <trkpt lat="47.2884" lon="1.16951">
        <ele>124</ele>
      </trkpt>
      <trkpt lat="47.28817" lon="1.16855">
        <ele>126</ele>
      </trkpt>
      <trkpt lat="47.28818" lon="1.16763">
        <ele>126</ele>
      </trkpt>
      <trkpt lat="47.28828" lon="1.16686">
        <ele>124</ele>
      </trkpt>
      <trkpt lat="47.28862" lon="1.16504">
        <ele>125</ele>
      </trkpt>
      <trkpt lat="47.28772" lon="1.1644">
        <ele>129</ele>
      </trkpt>
      <trkpt lat="47.28629" lon="1.16321">
        <ele>132</ele>
      </trkpt>
      <trkpt lat="47.28588" lon="1.16285">
        <ele>132</ele>
      </trkpt>
      <trkpt lat="47.28625" lon="1.16185">
        <ele>130</ele>
      </trkpt>
      <trkpt lat="47.28466" lon="1.1603">
        <ele>132</ele>
      </trkpt>
      <trkpt lat="47.28274" lon="1.15882">
        <ele>126</ele>
      </trkpt>
      <trkpt lat="47.28176" lon="1.15792">
        <ele>124</ele>
      </trkpt>
      <trkpt lat="47.28081" lon="1.15698">
        <ele>127</ele>
      </trkpt>
      <trkpt lat="47.27974" lon="1.15621">
        <ele>130</ele>
      </trkpt>
      <trkpt lat="47.27861" lon="1.15534">
        <ele>133</ele>
      </trkpt>
      <trkpt lat="47.27802" lon="1.15493">
        <ele>134</ele>
      </trkpt>
      <trkpt lat="47.27743" lon="1.15468">
        <ele>136</ele>
      </trkpt>
      <trkpt lat="47.27729" lon="1.15455">
        <ele>136</ele>
      </trkpt>
      <trkpt lat="47.27591" lon="1.15296">
        <ele>135</ele>
      </trkpt>
      <trkpt lat="47.27513" lon="1.15172">
        <ele>135</ele>
      </trkpt>
      <trkpt lat="47.27456" lon="1.15071">
        <ele>136</ele>
      </trkpt>
      <trkpt lat="47.27435" lon="1.15055">
        <ele>136</ele>
      </trkpt>
      <trkpt lat="47.27399" lon="1.15049">
        <ele>137</ele>
      </trkpt>
      <trkpt lat="47.2734" lon="1.15017">
        <ele>136</ele>
      </trkpt>
      <trkpt lat="47.27418" lon="1.14949">
        <ele>136</ele>
      </trkpt>
      <trkpt lat="47.27481" lon="1.14892">
        <ele>136</ele>
      </trkpt>
      <trkpt lat="47.27534" lon="1.14795">
        <ele>135</ele>
      </trkpt>
      <trkpt lat="47.27599" lon="1.14628">
        <ele>135</ele>
      </trkpt>
      <trkpt lat="47.27735" lon="1.1445">
        <ele>136</ele>
      </trkpt>
      <trkpt lat="47.2788" lon="1.14314">
        <ele>134</ele>
      </trkpt>
      <trkpt lat="47.28059" lon="1.14079">
        <ele>133</ele>
      </trkpt>
      <trkpt lat="47.28142" lon="1.13998">
        <ele>133</ele>
      </trkpt>
      <trkpt lat="47.28241" lon="1.1383">
        <ele>130</ele>
      </trkpt>
      <trkpt lat="47.28272" lon="1.1375">
        <ele>129</ele>
      </trkpt>
      <trkpt lat="47.28431" lon="1.13512">
        <ele>120</ele>
      </trkpt>
      <trkpt lat="47.28622" lon="1.13201">
        <ele>122</ele>
      </trkpt>
      <trkpt lat="47.28701" lon="1.13076">
        <ele>123</ele>
      </trkpt>
      <trkpt lat="47.28754" lon="1.13006">
        <ele>124</ele>
      </trkpt>
      <trkpt lat="47.2881" lon="1.12952">
        <ele>126</ele>
      </trkpt>
      <trkpt lat="47.28859" lon="1.12884">
        <ele>127</ele>
      </trkpt>
      <trkpt lat="47.28941" lon="1.1276">
        <ele>128</ele>
      </trkpt>
      <trkpt lat="47.28998" lon="1.12597">
        <ele>125</ele>
      </trkpt>
      <trkpt lat="47.28855" lon="1.12544">
        <ele>121</ele>
      </trkpt>
      <trkpt lat="47.2887" lon="1.12412">
        <ele>120</ele>
      </trkpt>
      <trkpt lat="47.28877" lon="1.12273">
        <ele>118</ele>
      </trkpt>
      <trkpt lat="47.28872" lon="1.12187">
        <ele>117</ele>
      </trkpt>
      <trkpt lat="47.28859" lon="1.12081">
        <ele>115</ele>
      </trkpt>
      <trkpt lat="47.28843" lon="1.11982">
        <ele>112</ele>
      </trkpt>
      <trkpt lat="47.28779" lon="1.11911">
        <ele>106</ele>
      </trkpt>
      <trkpt lat="47.28753" lon="1.11806">
        <ele>105</ele>
      </trkpt>
      <trkpt lat="47.28743" lon="1.1172">
        <ele>103</ele>
      </trkpt>
      <trkpt lat="47.28776" lon="1.1165">
        <ele>106</ele>
      </trkpt>
      <trkpt lat="47.28614" lon="1.11608">
        <ele>95</ele>
      </trkpt>
      <trkpt lat="47.28603" lon="1.11462">
        <ele>91</ele>
      </trkpt>
      <trkpt lat="47.2851" lon="1.11593">
        <ele>101</ele>
      </trkpt>
      <trkpt lat="47.28407" lon="1.11596">
        <ele>102</ele>
      </trkpt>
      <trkpt lat="47.28321" lon="1.11581">
        <ele>102</ele>
      </trkpt>
      <trkpt lat="47.28247" lon="1.11599">
        <ele>105</ele>
      </trkpt>
      <trkpt lat="47.28163" lon="1.1173">
        <ele>113</ele>
      </trkpt>
      <trkpt lat="47.28117" lon="1.11827">
        <ele>117</ele>
      </trkpt>
      <trkpt lat="47.28059" lon="1.11891">
        <ele>119</ele>
      </trkpt>
      <trkpt lat="47.2799" lon="1.11969">
        <ele>119</ele>
      </trkpt>
      <trkpt lat="47.27907" lon="1.12024">
        <ele>110</ele>
      </trkpt>
      <trkpt lat="47.27834" lon="1.12062">
        <ele>95</ele>
      </trkpt>
      <trkpt lat="47.27765" lon="1.1199">
        <ele>91</ele>
      </trkpt>
      <trkpt lat="47.27749" lon="1.11921">
        <ele>90</ele>
      </trkpt>
      <trkpt lat="47.27768" lon="1.11835">
        <ele>94</ele>
      </trkpt>
      <trkpt lat="47.27787" lon="1.11712">
        <ele>86</ele>
      </trkpt>
      <trkpt lat="47.27706" lon="1.11698">
        <ele>84</ele>
      </trkpt>
      <trkpt lat="47.27656" lon="1.11652">
        <ele>86</ele>
      </trkpt>
      <trkpt lat="47.27611" lon="1.11634">
        <ele>86</ele>
      </trkpt>
      <trkpt lat="47.27553" lon="1.11642">
        <ele>88</ele>
      </trkpt>
      <trkpt lat="47.2744" lon="1.11624">
        <ele>87</ele>
      </trkpt>
      <trkpt lat="47.27354" lon="1.11587">
        <ele>89</ele>
      </trkpt>
      <trkpt lat="47.27327" lon="1.11554">
        <ele>86</ele>
      </trkpt>
      <trkpt lat="47.27282" lon="1.11575">
        <ele>88</ele>
      </trkpt>
      <trkpt lat="47.27228" lon="1.11586">
        <ele>83</ele>
      </trkpt>
      <trkpt lat="47.27218" lon="1.11692">
        <ele>86</ele>
      </trkpt>
      <trkpt lat="47.27212" lon="1.11755">
        <ele>86</ele>
      </trkpt>
      <trkpt lat="47.27228" lon="1.11811">
        <ele>87</ele>
      </trkpt>
      <trkpt lat="47.27236" lon="1.11877">
        <ele>92</ele>
      </trkpt>
      <trkpt lat="47.27214" lon="1.11993">
        <ele>101</ele>
      </trkpt>
      <trkpt lat="47.27162" lon="1.11974">
        <ele>103</ele>
      </trkpt>
      <trkpt lat="47.27115" lon="1.11969">
        <ele>104</ele>
      </trkpt>
      <trkpt lat="47.27107" lon="1.12042">
        <ele>107</ele>
      </trkpt>
      <trkpt lat="47.27053" lon="1.12066">
        <ele>108</ele>
      </trkpt>
      <trkpt lat="47.27027" lon="1.12096">
        <ele>108</ele>
      </trkpt>
      <trkpt lat="47.27007" lon="1.12137">
        <ele>110</ele>
      </trkpt>
      <trkpt lat="47.2698" lon="1.12147">
        <ele>109</ele>
      </trkpt>
      <trkpt lat="47.26958" lon="1.12187">
        <ele>109</ele>
      </trkpt>
      <trkpt lat="47.26925" lon="1.12238">
        <ele>107</ele>
      </trkpt>
      <trkpt lat="47.26934" lon="1.12277">
        <ele>107</ele>
      </trkpt>
      <trkpt lat="47.26905" lon="1.12311">
        <ele>104</ele>
      </trkpt>
      <trkpt lat="47.26846" lon="1.12203">
        <ele>97</ele>
      </trkpt>
      <trkpt lat="47.268" lon="1.12135">
        <ele>89</ele>
      </trkpt>
      <trkpt lat="47.26697" lon="1.1219">
        <ele>90</ele>
      </trkpt>
      <trkpt lat="47.26653" lon="1.12293">
        <ele>95</ele>
      </trkpt>
      <trkpt lat="47.26607" lon="1.1244">
        <ele>97</ele>
      </trkpt>
      <trkpt lat="47.26581" lon="1.1252">
        <ele>101</ele>
      </trkpt>
      <trkpt lat="47.26517" lon="1.126">
        <ele>102</ele>
      </trkpt>
      <trkpt lat="47.26472" lon="1.12618">
        <ele>98</ele>
      </trkpt>
      <trkpt lat="47.26427" lon="1.12616">
        <ele>92</ele>
      </trkpt>
      <trkpt lat="47.26391" lon="1.12593">
        <ele>87</ele>
      </trkpt>
      <trkpt lat="47.26371" lon="1.12607">
        <ele>88</ele>
      </trkpt>
      <trkpt lat="47.26326" lon="1.12661">
        <ele>94</ele>
      </trkpt>
      <trkpt lat="47.26257" lon="1.12682">
        <ele>96</ele>
      </trkpt>
      <trkpt lat="47.26212" lon="1.1267">
        <ele>92</ele>
      </trkpt>
      <trkpt lat="47.26084" lon="1.12746">
        <ele>95</ele>
      </trkpt>
      <trkpt lat="47.26" lon="1.12823">
        <ele>88</ele>
      </trkpt>
      <trkpt lat="47.25982" lon="1.1289">
        <ele>86</ele>
      </trkpt>
      <trkpt lat="47.26001" lon="1.12946">
        <ele>89</ele>
      </trkpt>
      <trkpt lat="47.26008" lon="1.13025">
        <ele>91</ele>
      </trkpt>
      <trkpt lat="47.26029" lon="1.13074">
        <ele>91</ele>
      </trkpt>
      <trkpt lat="47.26068" lon="1.13159">
        <ele>93</ele>
      </trkpt>
      <trkpt lat="47.26131" lon="1.13177">
        <ele>97</ele>
      </trkpt>
      <trkpt lat="47.26175" lon="1.13229">
        <ele>102</ele>
      </trkpt>
      <trkpt lat="47.262" lon="1.13301">
        <ele>105</ele>
      </trkpt>
      <trkpt lat="47.26304" lon="1.13312">
        <ele>117</ele>
      </trkpt>
      <trkpt lat="47.26338" lon="1.13397">
        <ele>118</ele>
      </trkpt>
      <trkpt lat="47.26335" lon="1.13497">
        <ele>117</ele>
      </trkpt>
      <trkpt lat="47.26368" lon="1.13595">
        <ele>117</ele>
      </trkpt>
      <trkpt lat="47.26412" lon="1.13719">
        <ele>116</ele>
      </trkpt>
      <trkpt lat="47.26473" lon="1.13807">
        <ele>117</ele>
      </trkpt>
      <trkpt lat="47.26543" lon="1.14067">
        <ele>121</ele>
      </trkpt>
      <trkpt lat="47.26581" lon="1.14191">
        <ele>119</ele>
      </trkpt>
      <trkpt lat="47.26615" lon="1.1427">
        <ele>115</ele>
      </trkpt>
      <trkpt lat="47.26668" lon="1.14345">
        <ele>115</ele>
      </trkpt>
      <trkpt lat="47.26746" lon="1.14482">
        <ele>116</ele>
      </trkpt>
      <trkpt lat="47.26819" lon="1.14639">
        <ele>118</ele>
      </trkpt>
      <trkpt lat="47.26923" lon="1.14868">
        <ele>122</ele>
      </trkpt>
      <trkpt lat="47.27017" lon="1.1511">
        <ele>127</ele>
      </trkpt>
      <trkpt lat="47.27052" lon="1.15195">
        <ele>129</ele>
      </trkpt>
      <trkpt lat="47.26736" lon="1.15526">
        <ele>136</ele>
      </trkpt>
      <trkpt lat="47.26705" lon="1.15524">
        <ele>136</ele>
      </trkpt>
      <trkpt lat="47.26427" lon="1.15834">
        <ele>138</ele>
      </trkpt>
      <trkpt lat="47.26355" lon="1.15855">
        <ele>134</ele>
      </trkpt>
      <trkpt lat="47.26415" lon="1.16032">
        <ele>134</ele>
      </trkpt>
      <trkpt lat="47.26892" lon="1.16726">
        <ele>139</ele>
      </trkpt>
      <trkpt lat="47.27001" lon="1.16571">
        <ele>142</ele>
      </trkpt>
      <trkpt lat="47.27053" lon="1.16864">
        <ele>143</ele>
      </trkpt>
      <trkpt lat="47.27131" lon="1.17444">
        <ele>146</ele>
      </trkpt>
      <trkpt lat="47.2716" lon="1.17595">
        <ele>146</ele>
      </trkpt>
      <trkpt lat="47.27031" lon="1.17572">
        <ele>142</ele>
      </trkpt>
      <trkpt lat="47.26914" lon="1.17587">
        <ele>139</ele>
      </trkpt>
      <trkpt lat="47.26809" lon="1.1757">
        <ele>142</ele>
      </trkpt>
      <trkpt lat="47.26728" lon="1.17572">
        <ele>142</ele>
      </trkpt>
      <trkpt lat="47.26613" lon="1.17591">
        <ele>143</ele>
      </trkpt>
      <trkpt lat="47.26462" lon="1.17574">
        <ele>145</ele>
      </trkpt>
      <trkpt lat="47.26305" lon="1.17548">
        <ele>147</ele>
      </trkpt>
      <trkpt lat="47.26198" lon="1.17438">
        <ele>146</ele>
      </trkpt>
      <trkpt lat="47.26151" lon="1.17465">
        <ele>143</ele>
      </trkpt>
      <trkpt lat="47.26088" lon="1.17523">
        <ele>138</ele>
      </trkpt>
      <trkpt lat="47.26042" lon="1.1758">
        <ele>131</ele>
      </trkpt>
      <trkpt lat="47.26022" lon="1.1761">
        <ele>128</ele>
      </trkpt>
      <trkpt lat="47.25968" lon="1.17605">
        <ele>123</ele>
      </trkpt>
      <trkpt lat="47.2593" lon="1.17625">
        <ele>122</ele>
      </trkpt>
      <trkpt lat="47.25894" lon="1.17676">
        <ele>122</ele>
      </trkpt>
      <trkpt lat="47.25851" lon="1.17667">
        <ele>115</ele>
      </trkpt>
      <trkpt lat="47.25824" lon="1.17634">
        <ele>114</ele>
      </trkpt>
      <trkpt lat="47.25769" lon="1.17705">
        <ele>110</ele>
      </trkpt>
      <trkpt lat="47.25758" lon="1.17791">
        <ele>111</ele>
      </trkpt>
      <trkpt lat="47.25775" lon="1.17863">
        <ele>111</ele>
      </trkpt>
      <trkpt lat="47.2582" lon="1.17951">
        <ele>112</ele>
      </trkpt>
      <trkpt lat="47.2583" lon="1.1804">
        <ele>113</ele>
      </trkpt>
      <trkpt lat="47.25926" lon="1.18157">
        <ele>114</ele>
      </trkpt>
      <trkpt lat="47.25981" lon="1.18249">
        <ele>114</ele>
      </trkpt>
      <trkpt lat="47.25998" lon="1.18351">
        <ele>114</ele>
      </trkpt>
      <trkpt lat="47.26005" lon="1.18433">
        <ele>114</ele>
      </trkpt>
      <trkpt lat="47.26026" lon="1.18443">
        <ele>114</ele>
      </trkpt>
      <trkpt lat="47.26066" lon="1.18405">
        <ele>116</ele>
      </trkpt>
      <trkpt lat="47.26093" lon="1.18444">
        <ele>118</ele>
      </trkpt>
      <trkpt lat="47.26109" lon="1.18418">
        <ele>120</ele>
      </trkpt>
      <trkpt lat="47.26117" lon="1.18381">
        <ele>120</ele>
      </trkpt>
      <trkpt lat="47.26099" lon="1.18345">
        <ele>118</ele>
      </trkpt>
      <trkpt lat="47.26159" lon="1.18304">
        <ele>127</ele>
      </trkpt>
      <trkpt lat="47.26215" lon="1.18293">
        <ele>134</ele>
      </trkpt>
      <trkpt lat="47.26271" lon="1.18239">
        <ele>140</ele>
      </trkpt>
      <trkpt lat="47.26338" lon="1.1838">
        <ele>141</ele>
      </trkpt>
      <trkpt lat="47.26387" lon="1.18392">
        <ele>143</ele>
      </trkpt>
      <trkpt lat="47.26468" lon="1.18628">
        <ele>140</ele>
      </trkpt>
      <trkpt lat="47.26537" lon="1.18779">
        <ele>139</ele>
      </trkpt>
      <trkpt lat="47.26453" lon="1.18894">
        <ele>134</ele>
      </trkpt>
    </trkseg>
  </trk>
</gpx>